<?xml version="1.0" encoding="UTF-8" standalone="no" ?>
<gpx xmlns="http://www.topografix.com/GPX/1/1" xmlns:xsi="http://www.w3.org/2001/XMLSchema-instance" xsi:schemaLocation="http://www.topografix.com/GPX/1/1 http://www.topografix.com/GPX/1/1/gpx.xsd" version="1.1" creator="VisuGPX - https://www.visugpx.com">
  <metadata>
    <name>83-D+-le Muy</name>
    <desc><![CDATA[83-D+-le Muy : sur la piste du chef indien - l'Endre
]]></desc>
  </metadata>
  <trk>
    <name><![CDATA[2019-01-27-D+-l' Endre-sur la piste du chef indien]]></name>
    <trkseg>
      <trkpt lat="43.50451" lon="6.59016">
        <ele>41.6</ele>
        <time>2019-01-27T08:36:07Z</time>
      </trkpt>
      <trkpt lat="43.50451" lon="6.59017">
        <ele>41.6</ele>
        <time>2019-01-27T08:36:08Z</time>
      </trkpt>
      <trkpt lat="43.50455" lon="6.59028">
        <ele>36.5</ele>
        <time>2019-01-27T08:36:26Z</time>
      </trkpt>
      <trkpt lat="43.50445" lon="6.59027">
        <ele>37.3</ele>
        <time>2019-01-27T08:42:50Z</time>
      </trkpt>
      <trkpt lat="43.50437" lon="6.59032">
        <ele>37.2</ele>
        <time>2019-01-27T08:42:59Z</time>
      </trkpt>
      <trkpt lat="43.50429" lon="6.5904">
        <ele>37</ele>
        <time>2019-01-27T08:43:08Z</time>
      </trkpt>
      <trkpt lat="43.50421" lon="6.59049">
        <ele>36.9</ele>
        <time>2019-01-27T08:43:17Z</time>
      </trkpt>
      <trkpt lat="43.50413" lon="6.59056">
        <ele>36.6</ele>
        <time>2019-01-27T08:43:26Z</time>
      </trkpt>
      <trkpt lat="43.50404" lon="6.59058">
        <ele>36.9</ele>
        <time>2019-01-27T08:43:35Z</time>
      </trkpt>
      <trkpt lat="43.50396" lon="6.59063">
        <ele>37.4</ele>
        <time>2019-01-27T08:43:43Z</time>
      </trkpt>
      <trkpt lat="43.50387" lon="6.59067">
        <ele>38.9</ele>
        <time>2019-01-27T08:43:55Z</time>
      </trkpt>
      <trkpt lat="43.50379" lon="6.59071">
        <ele>39.6</ele>
        <time>2019-01-27T08:43:59Z</time>
      </trkpt>
      <trkpt lat="43.50369" lon="6.59077">
        <ele>40.7</ele>
        <time>2019-01-27T08:44:06Z</time>
      </trkpt>
      <trkpt lat="43.5036" lon="6.59083">
        <ele>41.8</ele>
        <time>2019-01-27T08:44:14Z</time>
      </trkpt>
      <trkpt lat="43.50357" lon="6.59096">
        <ele>42.5</ele>
        <time>2019-01-27T08:44:21Z</time>
      </trkpt>
      <trkpt lat="43.50353" lon="6.5911">
        <ele>42.3</ele>
        <time>2019-01-27T08:44:28Z</time>
      </trkpt>
      <trkpt lat="43.50344" lon="6.59116">
        <ele>43</ele>
        <time>2019-01-27T08:44:39Z</time>
      </trkpt>
      <trkpt lat="43.50334" lon="6.59118">
        <ele>42.9</ele>
        <time>2019-01-27T08:44:49Z</time>
      </trkpt>
      <trkpt lat="43.50324" lon="6.59118">
        <ele>42.7</ele>
        <time>2019-01-27T08:44:58Z</time>
      </trkpt>
      <trkpt lat="43.50315" lon="6.59123">
        <ele>42.4</ele>
        <time>2019-01-27T08:45:06Z</time>
      </trkpt>
      <trkpt lat="43.50305" lon="6.59128">
        <ele>41.9</ele>
        <time>2019-01-27T08:45:13Z</time>
      </trkpt>
      <trkpt lat="43.50295" lon="6.59128">
        <ele>40</ele>
        <time>2019-01-27T08:45:25Z</time>
      </trkpt>
      <trkpt lat="43.50285" lon="6.59125">
        <ele>39.5</ele>
        <time>2019-01-27T08:45:34Z</time>
      </trkpt>
      <trkpt lat="43.50277" lon="6.5912">
        <ele>38.4</ele>
        <time>2019-01-27T08:45:42Z</time>
      </trkpt>
      <trkpt lat="43.50268" lon="6.59115">
        <ele>38.1</ele>
        <time>2019-01-27T08:45:50Z</time>
      </trkpt>
      <trkpt lat="43.50259" lon="6.59113">
        <ele>37.8</ele>
        <time>2019-01-27T08:45:57Z</time>
      </trkpt>
      <trkpt lat="43.50249" lon="6.59113">
        <ele>37.8</ele>
        <time>2019-01-27T08:46:04Z</time>
      </trkpt>
      <trkpt lat="43.50239" lon="6.5911">
        <ele>37.7</ele>
        <time>2019-01-27T08:46:11Z</time>
      </trkpt>
      <trkpt lat="43.50229" lon="6.59109">
        <ele>37.4</ele>
        <time>2019-01-27T08:46:19Z</time>
      </trkpt>
      <trkpt lat="43.5022" lon="6.59108">
        <ele>37.3</ele>
        <time>2019-01-27T08:46:26Z</time>
      </trkpt>
      <trkpt lat="43.5021" lon="6.59108">
        <ele>37.2</ele>
        <time>2019-01-27T08:46:33Z</time>
      </trkpt>
      <trkpt lat="43.50201" lon="6.59106">
        <ele>37.4</ele>
        <time>2019-01-27T08:46:40Z</time>
      </trkpt>
      <trkpt lat="43.50191" lon="6.59106">
        <ele>37.4</ele>
        <time>2019-01-27T08:46:48Z</time>
      </trkpt>
      <trkpt lat="43.50182" lon="6.59102">
        <ele>37.2</ele>
        <time>2019-01-27T08:46:56Z</time>
      </trkpt>
      <trkpt lat="43.50173" lon="6.591">
        <ele>37.1</ele>
        <time>2019-01-27T08:47:04Z</time>
      </trkpt>
      <trkpt lat="43.50163" lon="6.591">
        <ele>37.2</ele>
        <time>2019-01-27T08:47:14Z</time>
      </trkpt>
      <trkpt lat="43.50153" lon="6.591">
        <ele>37.3</ele>
        <time>2019-01-27T08:47:23Z</time>
      </trkpt>
      <trkpt lat="43.50143" lon="6.59101">
        <ele>37.2</ele>
        <time>2019-01-27T08:47:31Z</time>
      </trkpt>
      <trkpt lat="43.50134" lon="6.59102">
        <ele>36.8</ele>
        <time>2019-01-27T08:47:39Z</time>
      </trkpt>
      <trkpt lat="43.50124" lon="6.59102">
        <ele>36.7</ele>
        <time>2019-01-27T08:47:49Z</time>
      </trkpt>
      <trkpt lat="43.50115" lon="6.59102">
        <ele>36.7</ele>
        <time>2019-01-27T08:48:01Z</time>
      </trkpt>
      <trkpt lat="43.50106" lon="6.59101">
        <ele>36.5</ele>
        <time>2019-01-27T08:48:12Z</time>
      </trkpt>
      <trkpt lat="43.50097" lon="6.59106">
        <ele>36.4</ele>
        <time>2019-01-27T08:48:29Z</time>
      </trkpt>
      <trkpt lat="43.50091" lon="6.59114">
        <ele>37.8</ele>
        <time>2019-01-27T08:51:25Z</time>
      </trkpt>
      <trkpt lat="43.50082" lon="6.59117">
        <ele>38.3</ele>
        <time>2019-01-27T08:51:33Z</time>
      </trkpt>
      <trkpt lat="43.50075" lon="6.59124">
        <ele>38.2</ele>
        <time>2019-01-27T08:51:41Z</time>
      </trkpt>
      <trkpt lat="43.50068" lon="6.59134">
        <ele>37.8</ele>
        <time>2019-01-27T08:51:56Z</time>
      </trkpt>
      <trkpt lat="43.5006" lon="6.59141">
        <ele>37.7</ele>
        <time>2019-01-27T08:52:06Z</time>
      </trkpt>
      <trkpt lat="43.50051" lon="6.59145">
        <ele>38</ele>
        <time>2019-01-27T08:52:14Z</time>
      </trkpt>
      <trkpt lat="43.50041" lon="6.59147">
        <ele>37.7</ele>
        <time>2019-01-27T08:52:22Z</time>
      </trkpt>
      <trkpt lat="43.50031" lon="6.59149">
        <ele>37.9</ele>
        <time>2019-01-27T08:52:29Z</time>
      </trkpt>
      <trkpt lat="43.50022" lon="6.59152">
        <ele>37.5</ele>
        <time>2019-01-27T08:52:37Z</time>
      </trkpt>
      <trkpt lat="43.50012" lon="6.59153">
        <ele>37.1</ele>
        <time>2019-01-27T08:52:46Z</time>
      </trkpt>
      <trkpt lat="43.50003" lon="6.59154">
        <ele>37</ele>
        <time>2019-01-27T08:52:55Z</time>
      </trkpt>
      <trkpt lat="43.49993" lon="6.59149">
        <ele>37.3</ele>
        <time>2019-01-27T08:53:05Z</time>
      </trkpt>
      <trkpt lat="43.49985" lon="6.59143">
        <ele>37.3</ele>
        <time>2019-01-27T08:53:13Z</time>
      </trkpt>
      <trkpt lat="43.49976" lon="6.59138">
        <ele>37.2</ele>
        <time>2019-01-27T08:53:20Z</time>
      </trkpt>
      <trkpt lat="43.49967" lon="6.59134">
        <ele>37</ele>
        <time>2019-01-27T08:53:27Z</time>
      </trkpt>
      <trkpt lat="43.49958" lon="6.5913">
        <ele>36.2</ele>
        <time>2019-01-27T08:53:35Z</time>
      </trkpt>
      <trkpt lat="43.4995" lon="6.59123">
        <ele>35.9</ele>
        <time>2019-01-27T08:53:41Z</time>
      </trkpt>
      <trkpt lat="43.49942" lon="6.59118">
        <ele>35.8</ele>
        <time>2019-01-27T08:53:48Z</time>
      </trkpt>
      <trkpt lat="43.49931" lon="6.59116">
        <ele>35.4</ele>
        <time>2019-01-27T08:53:58Z</time>
      </trkpt>
      <trkpt lat="43.49922" lon="6.59117">
        <ele>35.2</ele>
        <time>2019-01-27T08:54:03Z</time>
      </trkpt>
      <trkpt lat="43.49912" lon="6.59117">
        <ele>35.2</ele>
        <time>2019-01-27T08:54:10Z</time>
      </trkpt>
      <trkpt lat="43.49904" lon="6.59121">
        <ele>35</ele>
        <time>2019-01-27T08:54:16Z</time>
      </trkpt>
      <trkpt lat="43.49894" lon="6.59123">
        <ele>35</ele>
        <time>2019-01-27T08:54:22Z</time>
      </trkpt>
      <trkpt lat="43.49885" lon="6.59125">
        <ele>34.9</ele>
        <time>2019-01-27T08:54:29Z</time>
      </trkpt>
      <trkpt lat="43.49876" lon="6.59129">
        <ele>34.9</ele>
        <time>2019-01-27T08:54:35Z</time>
      </trkpt>
      <trkpt lat="43.49868" lon="6.59135">
        <ele>34.6</ele>
        <time>2019-01-27T08:54:42Z</time>
      </trkpt>
      <trkpt lat="43.4986" lon="6.59142">
        <ele>34.5</ele>
        <time>2019-01-27T08:54:49Z</time>
      </trkpt>
      <trkpt lat="43.49852" lon="6.59149">
        <ele>34.3</ele>
        <time>2019-01-27T08:54:56Z</time>
      </trkpt>
      <trkpt lat="43.49844" lon="6.59157">
        <ele>34.1</ele>
        <time>2019-01-27T08:55:03Z</time>
      </trkpt>
      <trkpt lat="43.49837" lon="6.59167">
        <ele>34.1</ele>
        <time>2019-01-27T08:55:10Z</time>
      </trkpt>
      <trkpt lat="43.4983" lon="6.59174">
        <ele>34.1</ele>
        <time>2019-01-27T08:55:16Z</time>
      </trkpt>
      <trkpt lat="43.49824" lon="6.59184">
        <ele>33.9</ele>
        <time>2019-01-27T08:55:24Z</time>
      </trkpt>
      <trkpt lat="43.49817" lon="6.59194">
        <ele>33</ele>
        <time>2019-01-27T08:55:31Z</time>
      </trkpt>
      <trkpt lat="43.49809" lon="6.59203">
        <ele>32.1</ele>
        <time>2019-01-27T08:55:38Z</time>
      </trkpt>
      <trkpt lat="43.49801" lon="6.59214">
        <ele>31.3</ele>
        <time>2019-01-27T08:55:46Z</time>
      </trkpt>
      <trkpt lat="43.49792" lon="6.5922">
        <ele>30.5</ele>
        <time>2019-01-27T08:55:53Z</time>
      </trkpt>
      <trkpt lat="43.49784" lon="6.59227">
        <ele>29.9</ele>
        <time>2019-01-27T08:56:01Z</time>
      </trkpt>
      <trkpt lat="43.49779" lon="6.59238">
        <ele>29.3</ele>
        <time>2019-01-27T08:56:10Z</time>
      </trkpt>
      <trkpt lat="43.49777" lon="6.59252">
        <ele>28.9</ele>
        <time>2019-01-27T08:56:20Z</time>
      </trkpt>
      <trkpt lat="43.49772" lon="6.59263">
        <ele>28.4</ele>
        <time>2019-01-27T08:56:27Z</time>
      </trkpt>
      <trkpt lat="43.4977" lon="6.59278">
        <ele>28.1</ele>
        <time>2019-01-27T08:56:34Z</time>
      </trkpt>
      <trkpt lat="43.49767" lon="6.5929">
        <ele>27.9</ele>
        <time>2019-01-27T08:56:39Z</time>
      </trkpt>
      <trkpt lat="43.49763" lon="6.59302">
        <ele>27.6</ele>
        <time>2019-01-27T08:56:45Z</time>
      </trkpt>
      <trkpt lat="43.49756" lon="6.59311">
        <ele>27.2</ele>
        <time>2019-01-27T08:56:52Z</time>
      </trkpt>
      <trkpt lat="43.49752" lon="6.59323">
        <ele>26.8</ele>
        <time>2019-01-27T08:57:00Z</time>
      </trkpt>
      <trkpt lat="43.49745" lon="6.59333">
        <ele>26.4</ele>
        <time>2019-01-27T08:57:07Z</time>
      </trkpt>
      <trkpt lat="43.49737" lon="6.59339">
        <ele>26</ele>
        <time>2019-01-27T08:57:13Z</time>
      </trkpt>
      <trkpt lat="43.49731" lon="6.59349">
        <ele>25.4</ele>
        <time>2019-01-27T08:57:23Z</time>
      </trkpt>
      <trkpt lat="43.4973" lon="6.59362">
        <ele>25</ele>
        <time>2019-01-27T08:57:33Z</time>
      </trkpt>
      <trkpt lat="43.49722" lon="6.5937">
        <ele>25.3</ele>
        <time>2019-01-27T08:57:46Z</time>
      </trkpt>
      <trkpt lat="43.49714" lon="6.59376">
        <ele>25.3</ele>
        <time>2019-01-27T08:57:56Z</time>
      </trkpt>
      <trkpt lat="43.49707" lon="6.59385">
        <ele>25.6</ele>
        <time>2019-01-27T08:58:05Z</time>
      </trkpt>
      <trkpt lat="43.497" lon="6.59393">
        <ele>25.2</ele>
        <time>2019-01-27T08:58:11Z</time>
      </trkpt>
      <trkpt lat="43.49691" lon="6.59397">
        <ele>25</ele>
        <time>2019-01-27T08:58:20Z</time>
      </trkpt>
      <trkpt lat="43.49683" lon="6.59406">
        <ele>24.6</ele>
        <time>2019-01-27T08:58:28Z</time>
      </trkpt>
      <trkpt lat="43.49674" lon="6.59411">
        <ele>24</ele>
        <time>2019-01-27T08:58:37Z</time>
      </trkpt>
      <trkpt lat="43.49665" lon="6.59417">
        <ele>23.8</ele>
        <time>2019-01-27T08:58:45Z</time>
      </trkpt>
      <trkpt lat="43.49657" lon="6.59423">
        <ele>24.3</ele>
        <time>2019-01-27T08:58:53Z</time>
      </trkpt>
      <trkpt lat="43.49649" lon="6.5943">
        <ele>24.2</ele>
        <time>2019-01-27T08:59:01Z</time>
      </trkpt>
      <trkpt lat="43.49639" lon="6.59437">
        <ele>24.5</ele>
        <time>2019-01-27T08:59:11Z</time>
      </trkpt>
      <trkpt lat="43.49631" lon="6.59442">
        <ele>24.4</ele>
        <time>2019-01-27T08:59:20Z</time>
      </trkpt>
      <trkpt lat="43.49622" lon="6.59443">
        <ele>24.6</ele>
        <time>2019-01-27T08:59:30Z</time>
      </trkpt>
      <trkpt lat="43.49612" lon="6.59444">
        <ele>24.1</ele>
        <time>2019-01-27T08:59:52Z</time>
      </trkpt>
      <trkpt lat="43.49603" lon="6.59442">
        <ele>24.4</ele>
        <time>2019-01-27T09:00:04Z</time>
      </trkpt>
      <trkpt lat="43.49594" lon="6.59442">
        <ele>24.8</ele>
        <time>2019-01-27T09:00:15Z</time>
      </trkpt>
      <trkpt lat="43.49584" lon="6.59443">
        <ele>24.4</ele>
        <time>2019-01-27T09:00:26Z</time>
      </trkpt>
      <trkpt lat="43.49575" lon="6.59447">
        <ele>24.4</ele>
        <time>2019-01-27T09:00:37Z</time>
      </trkpt>
      <trkpt lat="43.49566" lon="6.59449">
        <ele>24.1</ele>
        <time>2019-01-27T09:00:47Z</time>
      </trkpt>
      <trkpt lat="43.49557" lon="6.59453">
        <ele>24.6</ele>
        <time>2019-01-27T09:00:58Z</time>
      </trkpt>
      <trkpt lat="43.49549" lon="6.59458">
        <ele>24.9</ele>
        <time>2019-01-27T09:01:05Z</time>
      </trkpt>
      <trkpt lat="43.49539" lon="6.59461">
        <ele>24.8</ele>
        <time>2019-01-27T09:01:13Z</time>
      </trkpt>
      <trkpt lat="43.4953" lon="6.59465">
        <ele>24.3</ele>
        <time>2019-01-27T09:01:21Z</time>
      </trkpt>
      <trkpt lat="43.4952" lon="6.59467">
        <ele>24.2</ele>
        <time>2019-01-27T09:01:27Z</time>
      </trkpt>
      <trkpt lat="43.49512" lon="6.59471">
        <ele>24.3</ele>
        <time>2019-01-27T09:01:34Z</time>
      </trkpt>
      <trkpt lat="43.49502" lon="6.59472">
        <ele>24.3</ele>
        <time>2019-01-27T09:01:41Z</time>
      </trkpt>
      <trkpt lat="43.49493" lon="6.59471">
        <ele>24.8</ele>
        <time>2019-01-27T09:01:50Z</time>
      </trkpt>
      <trkpt lat="43.49483" lon="6.59472">
        <ele>24.8</ele>
        <time>2019-01-27T09:01:57Z</time>
      </trkpt>
      <trkpt lat="43.49474" lon="6.59475">
        <ele>25.3</ele>
        <time>2019-01-27T09:02:04Z</time>
      </trkpt>
      <trkpt lat="43.49464" lon="6.5948">
        <ele>26.1</ele>
        <time>2019-01-27T09:02:12Z</time>
      </trkpt>
      <trkpt lat="43.49455" lon="6.59478">
        <ele>26.5</ele>
        <time>2019-01-27T09:02:20Z</time>
      </trkpt>
      <trkpt lat="43.49446" lon="6.59477">
        <ele>26.9</ele>
        <time>2019-01-27T09:02:27Z</time>
      </trkpt>
      <trkpt lat="43.49434" lon="6.59481">
        <ele>27.2</ele>
        <time>2019-01-27T09:02:33Z</time>
      </trkpt>
      <trkpt lat="43.49425" lon="6.59483">
        <ele>26.8</ele>
        <time>2019-01-27T09:02:38Z</time>
      </trkpt>
      <trkpt lat="43.49415" lon="6.59483">
        <ele>26.4</ele>
        <time>2019-01-27T09:02:46Z</time>
      </trkpt>
      <trkpt lat="43.49406" lon="6.59483">
        <ele>26.1</ele>
        <time>2019-01-27T09:02:54Z</time>
      </trkpt>
      <trkpt lat="43.49397" lon="6.59483">
        <ele>25.8</ele>
        <time>2019-01-27T09:03:00Z</time>
      </trkpt>
      <trkpt lat="43.49388" lon="6.59479">
        <ele>26.2</ele>
        <time>2019-01-27T09:03:08Z</time>
      </trkpt>
      <trkpt lat="43.4938" lon="6.59472">
        <ele>25.7</ele>
        <time>2019-01-27T09:03:18Z</time>
      </trkpt>
      <trkpt lat="43.49371" lon="6.59465">
        <ele>25.3</ele>
        <time>2019-01-27T09:03:26Z</time>
      </trkpt>
      <trkpt lat="43.49365" lon="6.59456">
        <ele>25.8</ele>
        <time>2019-01-27T09:03:34Z</time>
      </trkpt>
      <trkpt lat="43.49356" lon="6.59448">
        <ele>26</ele>
        <time>2019-01-27T09:03:43Z</time>
      </trkpt>
      <trkpt lat="43.49352" lon="6.59436">
        <ele>26.6</ele>
        <time>2019-01-27T09:03:55Z</time>
      </trkpt>
      <trkpt lat="43.49346" lon="6.59424">
        <ele>26.8</ele>
        <time>2019-01-27T09:04:02Z</time>
      </trkpt>
      <trkpt lat="43.49339" lon="6.59413">
        <ele>26.6</ele>
        <time>2019-01-27T09:04:09Z</time>
      </trkpt>
      <trkpt lat="43.49337" lon="6.59401">
        <ele>26.3</ele>
        <time>2019-01-27T09:04:16Z</time>
      </trkpt>
      <trkpt lat="43.49333" lon="6.59389">
        <ele>26.1</ele>
        <time>2019-01-27T09:04:23Z</time>
      </trkpt>
      <trkpt lat="43.49332" lon="6.59377">
        <ele>25.8</ele>
        <time>2019-01-27T09:04:31Z</time>
      </trkpt>
      <trkpt lat="43.4933" lon="6.59363">
        <ele>25.7</ele>
        <time>2019-01-27T09:04:41Z</time>
      </trkpt>
      <trkpt lat="43.49331" lon="6.5935">
        <ele>25.8</ele>
        <time>2019-01-27T09:04:48Z</time>
      </trkpt>
      <trkpt lat="43.4933" lon="6.59338">
        <ele>25.6</ele>
        <time>2019-01-27T09:04:55Z</time>
      </trkpt>
      <trkpt lat="43.4933" lon="6.59323">
        <ele>25.8</ele>
        <time>2019-01-27T09:05:01Z</time>
      </trkpt>
      <trkpt lat="43.49334" lon="6.5931">
        <ele>25.9</ele>
        <time>2019-01-27T09:05:08Z</time>
      </trkpt>
      <trkpt lat="43.4933" lon="6.59298">
        <ele>25.8</ele>
        <time>2019-01-27T09:05:16Z</time>
      </trkpt>
      <trkpt lat="43.4933" lon="6.59285">
        <ele>25.4</ele>
        <time>2019-01-27T09:05:24Z</time>
      </trkpt>
      <trkpt lat="43.49329" lon="6.59273">
        <ele>25</ele>
        <time>2019-01-27T09:05:31Z</time>
      </trkpt>
      <trkpt lat="43.49329" lon="6.5926">
        <ele>24.6</ele>
        <time>2019-01-27T09:05:38Z</time>
      </trkpt>
      <trkpt lat="43.4933" lon="6.59247">
        <ele>24.6</ele>
        <time>2019-01-27T09:05:46Z</time>
      </trkpt>
      <trkpt lat="43.49334" lon="6.59234">
        <ele>25.2</ele>
        <time>2019-01-27T09:05:53Z</time>
      </trkpt>
      <trkpt lat="43.49333" lon="6.59221">
        <ele>25.3</ele>
        <time>2019-01-27T09:06:02Z</time>
      </trkpt>
      <trkpt lat="43.49333" lon="6.59208">
        <ele>25.4</ele>
        <time>2019-01-27T09:06:12Z</time>
      </trkpt>
      <trkpt lat="43.49329" lon="6.59195">
        <ele>25.3</ele>
        <time>2019-01-27T09:06:20Z</time>
      </trkpt>
      <trkpt lat="43.49327" lon="6.59182">
        <ele>26.7</ele>
        <time>2019-01-27T09:06:31Z</time>
      </trkpt>
      <trkpt lat="43.49318" lon="6.5918">
        <ele>26.4</ele>
        <time>2019-01-27T09:06:48Z</time>
      </trkpt>
      <trkpt lat="43.4932" lon="6.59167">
        <ele>25.5</ele>
        <time>2019-01-27T09:09:05Z</time>
      </trkpt>
      <trkpt lat="43.49319" lon="6.59154">
        <ele>25.4</ele>
        <time>2019-01-27T09:09:17Z</time>
      </trkpt>
      <trkpt lat="43.49319" lon="6.59141">
        <ele>25.2</ele>
        <time>2019-01-27T09:09:26Z</time>
      </trkpt>
      <trkpt lat="43.49318" lon="6.59129">
        <ele>25</ele>
        <time>2019-01-27T09:09:33Z</time>
      </trkpt>
      <trkpt lat="43.4932" lon="6.59116">
        <ele>24.8</ele>
        <time>2019-01-27T09:09:53Z</time>
      </trkpt>
      <trkpt lat="43.49321" lon="6.59102">
        <ele>24.8</ele>
        <time>2019-01-27T09:10:01Z</time>
      </trkpt>
      <trkpt lat="43.49319" lon="6.5909">
        <ele>24.5</ele>
        <time>2019-01-27T09:10:14Z</time>
      </trkpt>
      <trkpt lat="43.49313" lon="6.59079">
        <ele>25.1</ele>
        <time>2019-01-27T09:10:46Z</time>
      </trkpt>
      <trkpt lat="43.49312" lon="6.59066">
        <ele>25.4</ele>
        <time>2019-01-27T09:10:54Z</time>
      </trkpt>
      <trkpt lat="43.49307" lon="6.59056">
        <ele>25.8</ele>
        <time>2019-01-27T09:11:00Z</time>
      </trkpt>
      <trkpt lat="43.49302" lon="6.59045">
        <ele>26.1</ele>
        <time>2019-01-27T09:11:07Z</time>
      </trkpt>
      <trkpt lat="43.49295" lon="6.59036">
        <ele>26.1</ele>
        <time>2019-01-27T09:11:14Z</time>
      </trkpt>
      <trkpt lat="43.49286" lon="6.59031">
        <ele>26.3</ele>
        <time>2019-01-27T09:11:22Z</time>
      </trkpt>
      <trkpt lat="43.49276" lon="6.59029">
        <ele>26.8</ele>
        <time>2019-01-27T09:11:29Z</time>
      </trkpt>
      <trkpt lat="43.49267" lon="6.59027">
        <ele>25.8</ele>
        <time>2019-01-27T09:12:01Z</time>
      </trkpt>
      <trkpt lat="43.49258" lon="6.59031">
        <ele>24.8</ele>
        <time>2019-01-27T09:12:43Z</time>
      </trkpt>
      <trkpt lat="43.49253" lon="6.59044">
        <ele>24.3</ele>
        <time>2019-01-27T09:12:51Z</time>
      </trkpt>
      <trkpt lat="43.49253" lon="6.59057">
        <ele>23.8</ele>
        <time>2019-01-27T09:12:59Z</time>
      </trkpt>
      <trkpt lat="43.49247" lon="6.59067">
        <ele>23.6</ele>
        <time>2019-01-27T09:13:08Z</time>
      </trkpt>
      <trkpt lat="43.49238" lon="6.59073">
        <ele>23.9</ele>
        <time>2019-01-27T09:13:16Z</time>
      </trkpt>
      <trkpt lat="43.49229" lon="6.59078">
        <ele>24</ele>
        <time>2019-01-27T09:13:24Z</time>
      </trkpt>
      <trkpt lat="43.4922" lon="6.5908">
        <ele>24.2</ele>
        <time>2019-01-27T09:13:31Z</time>
      </trkpt>
      <trkpt lat="43.49211" lon="6.59085">
        <ele>24.5</ele>
        <time>2019-01-27T09:13:39Z</time>
      </trkpt>
      <trkpt lat="43.49202" lon="6.59089">
        <ele>24.1</ele>
        <time>2019-01-27T09:13:48Z</time>
      </trkpt>
      <trkpt lat="43.49193" lon="6.59093">
        <ele>24.5</ele>
        <time>2019-01-27T09:13:55Z</time>
      </trkpt>
      <trkpt lat="43.49184" lon="6.59099">
        <ele>24.4</ele>
        <time>2019-01-27T09:14:02Z</time>
      </trkpt>
      <trkpt lat="43.49177" lon="6.59107">
        <ele>23.6</ele>
        <time>2019-01-27T09:14:08Z</time>
      </trkpt>
      <trkpt lat="43.49169" lon="6.59116">
        <ele>23.2</ele>
        <time>2019-01-27T09:14:17Z</time>
      </trkpt>
      <trkpt lat="43.49161" lon="6.59122">
        <ele>23.4</ele>
        <time>2019-01-27T09:14:25Z</time>
      </trkpt>
      <trkpt lat="43.49153" lon="6.59127">
        <ele>23.7</ele>
        <time>2019-01-27T09:14:32Z</time>
      </trkpt>
      <trkpt lat="43.49144" lon="6.59133">
        <ele>23.6</ele>
        <time>2019-01-27T09:14:40Z</time>
      </trkpt>
      <trkpt lat="43.49135" lon="6.59137">
        <ele>23.4</ele>
        <time>2019-01-27T09:14:47Z</time>
      </trkpt>
      <trkpt lat="43.49126" lon="6.59144">
        <ele>23.3</ele>
        <time>2019-01-27T09:14:53Z</time>
      </trkpt>
      <trkpt lat="43.49117" lon="6.59149">
        <ele>23.5</ele>
        <time>2019-01-27T09:15:01Z</time>
      </trkpt>
      <trkpt lat="43.49108" lon="6.59154">
        <ele>23.5</ele>
        <time>2019-01-27T09:15:08Z</time>
      </trkpt>
      <trkpt lat="43.491" lon="6.59161">
        <ele>23.2</ele>
        <time>2019-01-27T09:15:16Z</time>
      </trkpt>
      <trkpt lat="43.49092" lon="6.59167">
        <ele>23.2</ele>
        <time>2019-01-27T09:15:23Z</time>
      </trkpt>
      <trkpt lat="43.49083" lon="6.59173">
        <ele>23.1</ele>
        <time>2019-01-27T09:15:30Z</time>
      </trkpt>
      <trkpt lat="43.49074" lon="6.59181">
        <ele>23</ele>
        <time>2019-01-27T09:15:37Z</time>
      </trkpt>
      <trkpt lat="43.49067" lon="6.59189">
        <ele>22.7</ele>
        <time>2019-01-27T09:15:43Z</time>
      </trkpt>
      <trkpt lat="43.49059" lon="6.59197">
        <ele>22.9</ele>
        <time>2019-01-27T09:15:50Z</time>
      </trkpt>
      <trkpt lat="43.49054" lon="6.59209">
        <ele>23.3</ele>
        <time>2019-01-27T09:15:57Z</time>
      </trkpt>
      <trkpt lat="43.49046" lon="6.59215">
        <ele>23.2</ele>
        <time>2019-01-27T09:16:05Z</time>
      </trkpt>
      <trkpt lat="43.4904" lon="6.59226">
        <ele>23</ele>
        <time>2019-01-27T09:16:13Z</time>
      </trkpt>
      <trkpt lat="43.49032" lon="6.59233">
        <ele>23</ele>
        <time>2019-01-27T09:16:21Z</time>
      </trkpt>
      <trkpt lat="43.49024" lon="6.59238">
        <ele>23.8</ele>
        <time>2019-01-27T09:16:30Z</time>
      </trkpt>
      <trkpt lat="43.49016" lon="6.59248">
        <ele>24.9</ele>
        <time>2019-01-27T09:16:40Z</time>
      </trkpt>
      <trkpt lat="43.49008" lon="6.59256">
        <ele>26.1</ele>
        <time>2019-01-27T09:17:00Z</time>
      </trkpt>
      <trkpt lat="43.49001" lon="6.59267">
        <ele>25.9</ele>
        <time>2019-01-27T09:17:08Z</time>
      </trkpt>
      <trkpt lat="43.48993" lon="6.59274">
        <ele>25.6</ele>
        <time>2019-01-27T09:17:14Z</time>
      </trkpt>
      <trkpt lat="43.48986" lon="6.59282">
        <ele>25.6</ele>
        <time>2019-01-27T09:17:23Z</time>
      </trkpt>
      <trkpt lat="43.48977" lon="6.59287">
        <ele>26</ele>
        <time>2019-01-27T09:17:30Z</time>
      </trkpt>
      <trkpt lat="43.48969" lon="6.59294">
        <ele>26</ele>
        <time>2019-01-27T09:17:37Z</time>
      </trkpt>
      <trkpt lat="43.48961" lon="6.59299">
        <ele>25.6</ele>
        <time>2019-01-27T09:17:44Z</time>
      </trkpt>
      <trkpt lat="43.48954" lon="6.59307">
        <ele>25.5</ele>
        <time>2019-01-27T09:17:51Z</time>
      </trkpt>
      <trkpt lat="43.48945" lon="6.59312">
        <ele>25.5</ele>
        <time>2019-01-27T09:17:58Z</time>
      </trkpt>
      <trkpt lat="43.48937" lon="6.59321">
        <ele>25.9</ele>
        <time>2019-01-27T09:18:04Z</time>
      </trkpt>
      <trkpt lat="43.48931" lon="6.5933">
        <ele>26.4</ele>
        <time>2019-01-27T09:18:12Z</time>
      </trkpt>
      <trkpt lat="43.48922" lon="6.59338">
        <ele>26.4</ele>
        <time>2019-01-27T09:18:21Z</time>
      </trkpt>
      <trkpt lat="43.48914" lon="6.59343">
        <ele>26.5</ele>
        <time>2019-01-27T09:18:29Z</time>
      </trkpt>
      <trkpt lat="43.48905" lon="6.59351">
        <ele>25.3</ele>
        <time>2019-01-27T09:18:37Z</time>
      </trkpt>
      <trkpt lat="43.48901" lon="6.59362">
        <ele>25.6</ele>
        <time>2019-01-27T09:19:04Z</time>
      </trkpt>
      <trkpt lat="43.48909" lon="6.59368">
        <ele>24.8</ele>
        <time>2019-01-27T09:21:43Z</time>
      </trkpt>
      <trkpt lat="43.48918" lon="6.59371">
        <ele>24.6</ele>
        <time>2019-01-27T09:21:53Z</time>
      </trkpt>
      <trkpt lat="43.48928" lon="6.59372">
        <ele>25</ele>
        <time>2019-01-27T09:22:02Z</time>
      </trkpt>
      <trkpt lat="43.48937" lon="6.59368">
        <ele>25</ele>
        <time>2019-01-27T09:22:09Z</time>
      </trkpt>
      <trkpt lat="43.48945" lon="6.59374">
        <ele>24.8</ele>
        <time>2019-01-27T09:22:44Z</time>
      </trkpt>
      <trkpt lat="43.48951" lon="6.59384">
        <ele>24.7</ele>
        <time>2019-01-27T09:22:51Z</time>
      </trkpt>
      <trkpt lat="43.48955" lon="6.59396">
        <ele>24.5</ele>
        <time>2019-01-27T09:23:00Z</time>
      </trkpt>
      <trkpt lat="43.48961" lon="6.59406">
        <ele>24.7</ele>
        <time>2019-01-27T09:23:07Z</time>
      </trkpt>
      <trkpt lat="43.48969" lon="6.59413">
        <ele>25.8</ele>
        <time>2019-01-27T09:23:15Z</time>
      </trkpt>
      <trkpt lat="43.48978" lon="6.59418">
        <ele>27.8</ele>
        <time>2019-01-27T09:23:25Z</time>
      </trkpt>
      <trkpt lat="43.48986" lon="6.59426">
        <ele>30.9</ele>
        <time>2019-01-27T09:23:37Z</time>
      </trkpt>
      <trkpt lat="43.48995" lon="6.5943">
        <ele>34.1</ele>
        <time>2019-01-27T09:23:48Z</time>
      </trkpt>
      <trkpt lat="43.49005" lon="6.5943">
        <ele>35.4</ele>
        <time>2019-01-27T09:23:57Z</time>
      </trkpt>
      <trkpt lat="43.49014" lon="6.59433">
        <ele>37.9</ele>
        <time>2019-01-27T09:24:09Z</time>
      </trkpt>
      <trkpt lat="43.49025" lon="6.59429">
        <ele>39.7</ele>
        <time>2019-01-27T09:24:18Z</time>
      </trkpt>
      <trkpt lat="43.49034" lon="6.59428">
        <ele>41.6</ele>
        <time>2019-01-27T09:24:27Z</time>
      </trkpt>
      <trkpt lat="43.49043" lon="6.5943">
        <ele>42.5</ele>
        <time>2019-01-27T09:24:34Z</time>
      </trkpt>
      <trkpt lat="43.49052" lon="6.59435">
        <ele>42.8</ele>
        <time>2019-01-27T09:24:43Z</time>
      </trkpt>
      <trkpt lat="43.4906" lon="6.59441">
        <ele>43.4</ele>
        <time>2019-01-27T09:24:52Z</time>
      </trkpt>
      <trkpt lat="43.4907" lon="6.59445">
        <ele>43.7</ele>
        <time>2019-01-27T09:25:00Z</time>
      </trkpt>
      <trkpt lat="43.49078" lon="6.59454">
        <ele>43.5</ele>
        <time>2019-01-27T09:25:08Z</time>
      </trkpt>
      <trkpt lat="43.49084" lon="6.59464">
        <ele>43.9</ele>
        <time>2019-01-27T09:25:16Z</time>
      </trkpt>
      <trkpt lat="43.49091" lon="6.59474">
        <ele>44</ele>
        <time>2019-01-27T09:25:24Z</time>
      </trkpt>
      <trkpt lat="43.491" lon="6.59482">
        <ele>43.6</ele>
        <time>2019-01-27T09:25:32Z</time>
      </trkpt>
      <trkpt lat="43.4911" lon="6.59484">
        <ele>43.3</ele>
        <time>2019-01-27T09:25:40Z</time>
      </trkpt>
      <trkpt lat="43.49118" lon="6.5949">
        <ele>43.7</ele>
        <time>2019-01-27T09:25:47Z</time>
      </trkpt>
      <trkpt lat="43.49127" lon="6.59494">
        <ele>43.8</ele>
        <time>2019-01-27T09:25:56Z</time>
      </trkpt>
      <trkpt lat="43.49135" lon="6.59501">
        <ele>43.6</ele>
        <time>2019-01-27T09:26:04Z</time>
      </trkpt>
      <trkpt lat="43.49144" lon="6.59506">
        <ele>43.9</ele>
        <time>2019-01-27T09:26:13Z</time>
      </trkpt>
      <trkpt lat="43.49153" lon="6.59506">
        <ele>44.9</ele>
        <time>2019-01-27T09:26:21Z</time>
      </trkpt>
      <trkpt lat="43.49162" lon="6.59508">
        <ele>45</ele>
        <time>2019-01-27T09:26:29Z</time>
      </trkpt>
      <trkpt lat="43.49172" lon="6.59508">
        <ele>45.1</ele>
        <time>2019-01-27T09:26:36Z</time>
      </trkpt>
      <trkpt lat="43.49182" lon="6.59511">
        <ele>45.1</ele>
        <time>2019-01-27T09:26:43Z</time>
      </trkpt>
      <trkpt lat="43.4919" lon="6.59517">
        <ele>47</ele>
        <time>2019-01-27T09:26:56Z</time>
      </trkpt>
      <trkpt lat="43.49198" lon="6.59526">
        <ele>48.2</ele>
        <time>2019-01-27T09:27:04Z</time>
      </trkpt>
      <trkpt lat="43.49207" lon="6.59529">
        <ele>48.6</ele>
        <time>2019-01-27T09:27:12Z</time>
      </trkpt>
      <trkpt lat="43.49216" lon="6.59533">
        <ele>49.1</ele>
        <time>2019-01-27T09:27:19Z</time>
      </trkpt>
      <trkpt lat="43.49225" lon="6.59536">
        <ele>49.8</ele>
        <time>2019-01-27T09:27:28Z</time>
      </trkpt>
      <trkpt lat="43.49234" lon="6.59543">
        <ele>50.7</ele>
        <time>2019-01-27T09:27:35Z</time>
      </trkpt>
      <trkpt lat="43.49242" lon="6.59552">
        <ele>50.7</ele>
        <time>2019-01-27T09:27:43Z</time>
      </trkpt>
      <trkpt lat="43.49249" lon="6.5956">
        <ele>50.9</ele>
        <time>2019-01-27T09:27:50Z</time>
      </trkpt>
      <trkpt lat="43.49256" lon="6.59569">
        <ele>50.9</ele>
        <time>2019-01-27T09:27:57Z</time>
      </trkpt>
      <trkpt lat="43.49264" lon="6.59578">
        <ele>51.7</ele>
        <time>2019-01-27T09:28:04Z</time>
      </trkpt>
      <trkpt lat="43.49271" lon="6.59588">
        <ele>51.8</ele>
        <time>2019-01-27T09:28:12Z</time>
      </trkpt>
      <trkpt lat="43.49279" lon="6.59596">
        <ele>52.3</ele>
        <time>2019-01-27T09:28:20Z</time>
      </trkpt>
      <trkpt lat="43.49287" lon="6.59604">
        <ele>52.7</ele>
        <time>2019-01-27T09:28:30Z</time>
      </trkpt>
      <trkpt lat="43.49295" lon="6.59611">
        <ele>52.6</ele>
        <time>2019-01-27T09:28:38Z</time>
      </trkpt>
      <trkpt lat="43.49304" lon="6.59615">
        <ele>51.9</ele>
        <time>2019-01-27T09:28:46Z</time>
      </trkpt>
      <trkpt lat="43.49312" lon="6.59622">
        <ele>51.7</ele>
        <time>2019-01-27T09:28:54Z</time>
      </trkpt>
      <trkpt lat="43.49321" lon="6.59629">
        <ele>52.4</ele>
        <time>2019-01-27T09:29:02Z</time>
      </trkpt>
      <trkpt lat="43.49329" lon="6.59637">
        <ele>51.6</ele>
        <time>2019-01-27T09:29:10Z</time>
      </trkpt>
      <trkpt lat="43.49338" lon="6.59644">
        <ele>52.1</ele>
        <time>2019-01-27T09:29:19Z</time>
      </trkpt>
      <trkpt lat="43.49347" lon="6.59648">
        <ele>52.1</ele>
        <time>2019-01-27T09:29:25Z</time>
      </trkpt>
      <trkpt lat="43.49356" lon="6.59653">
        <ele>52.1</ele>
        <time>2019-01-27T09:29:33Z</time>
      </trkpt>
      <trkpt lat="43.49365" lon="6.59655">
        <ele>52.7</ele>
        <time>2019-01-27T09:29:42Z</time>
      </trkpt>
      <trkpt lat="43.49375" lon="6.5965">
        <ele>53.3</ele>
        <time>2019-01-27T09:29:50Z</time>
      </trkpt>
      <trkpt lat="43.49385" lon="6.59651">
        <ele>53.6</ele>
        <time>2019-01-27T09:29:57Z</time>
      </trkpt>
      <trkpt lat="43.49394" lon="6.59651">
        <ele>54</ele>
        <time>2019-01-27T09:30:03Z</time>
      </trkpt>
      <trkpt lat="43.49403" lon="6.59652">
        <ele>54.5</ele>
        <time>2019-01-27T09:30:11Z</time>
      </trkpt>
      <trkpt lat="43.49412" lon="6.59649">
        <ele>54.3</ele>
        <time>2019-01-27T09:30:18Z</time>
      </trkpt>
      <trkpt lat="43.49421" lon="6.59644">
        <ele>54.9</ele>
        <time>2019-01-27T09:30:27Z</time>
      </trkpt>
      <trkpt lat="43.4943" lon="6.59638">
        <ele>55.2</ele>
        <time>2019-01-27T09:30:35Z</time>
      </trkpt>
      <trkpt lat="43.4944" lon="6.59636">
        <ele>56.8</ele>
        <time>2019-01-27T09:30:44Z</time>
      </trkpt>
      <trkpt lat="43.49449" lon="6.59642">
        <ele>57.8</ele>
        <time>2019-01-27T09:30:53Z</time>
      </trkpt>
      <trkpt lat="43.49457" lon="6.59649">
        <ele>59.7</ele>
        <time>2019-01-27T09:31:02Z</time>
      </trkpt>
      <trkpt lat="43.49465" lon="6.59652">
        <ele>60.3</ele>
        <time>2019-01-27T09:31:10Z</time>
      </trkpt>
      <trkpt lat="43.49475" lon="6.59655">
        <ele>61.3</ele>
        <time>2019-01-27T09:31:18Z</time>
      </trkpt>
      <trkpt lat="43.49484" lon="6.59661">
        <ele>61.7</ele>
        <time>2019-01-27T09:31:25Z</time>
      </trkpt>
      <trkpt lat="43.49493" lon="6.59665">
        <ele>61.9</ele>
        <time>2019-01-27T09:31:32Z</time>
      </trkpt>
      <trkpt lat="43.49502" lon="6.59669">
        <ele>62.1</ele>
        <time>2019-01-27T09:31:40Z</time>
      </trkpt>
      <trkpt lat="43.49511" lon="6.5967">
        <ele>61.9</ele>
        <time>2019-01-27T09:31:47Z</time>
      </trkpt>
      <trkpt lat="43.49521" lon="6.59672">
        <ele>62.2</ele>
        <time>2019-01-27T09:31:55Z</time>
      </trkpt>
      <trkpt lat="43.4953" lon="6.59675">
        <ele>63.1</ele>
        <time>2019-01-27T09:32:03Z</time>
      </trkpt>
      <trkpt lat="43.4954" lon="6.59679">
        <ele>63.2</ele>
        <time>2019-01-27T09:32:12Z</time>
      </trkpt>
      <trkpt lat="43.4955" lon="6.59681">
        <ele>63.6</ele>
        <time>2019-01-27T09:32:21Z</time>
      </trkpt>
      <trkpt lat="43.4956" lon="6.59685">
        <ele>64.9</ele>
        <time>2019-01-27T09:32:29Z</time>
      </trkpt>
      <trkpt lat="43.49568" lon="6.5969">
        <ele>66.1</ele>
        <time>2019-01-27T09:32:38Z</time>
      </trkpt>
      <trkpt lat="43.49577" lon="6.59697">
        <ele>67.4</ele>
        <time>2019-01-27T09:32:46Z</time>
      </trkpt>
      <trkpt lat="43.49586" lon="6.59701">
        <ele>67.7</ele>
        <time>2019-01-27T09:32:54Z</time>
      </trkpt>
      <trkpt lat="43.49597" lon="6.59703">
        <ele>68.1</ele>
        <time>2019-01-27T09:33:02Z</time>
      </trkpt>
      <trkpt lat="43.49605" lon="6.59709">
        <ele>68.3</ele>
        <time>2019-01-27T09:33:10Z</time>
      </trkpt>
      <trkpt lat="43.49614" lon="6.59712">
        <ele>68.5</ele>
        <time>2019-01-27T09:33:17Z</time>
      </trkpt>
      <trkpt lat="43.49623" lon="6.59719">
        <ele>68.6</ele>
        <time>2019-01-27T09:33:25Z</time>
      </trkpt>
      <trkpt lat="43.49631" lon="6.59725">
        <ele>68.7</ele>
        <time>2019-01-27T09:33:33Z</time>
      </trkpt>
      <trkpt lat="43.4964" lon="6.5973">
        <ele>69.1</ele>
        <time>2019-01-27T09:33:41Z</time>
      </trkpt>
      <trkpt lat="43.49647" lon="6.5974">
        <ele>69.9</ele>
        <time>2019-01-27T09:33:50Z</time>
      </trkpt>
      <trkpt lat="43.49648" lon="6.59754">
        <ele>71.2</ele>
        <time>2019-01-27T09:33:59Z</time>
      </trkpt>
      <trkpt lat="43.49648" lon="6.59767">
        <ele>71.6</ele>
        <time>2019-01-27T09:34:06Z</time>
      </trkpt>
      <trkpt lat="43.49649" lon="6.5978">
        <ele>71.5</ele>
        <time>2019-01-27T09:34:14Z</time>
      </trkpt>
      <trkpt lat="43.49648" lon="6.59794">
        <ele>71.6</ele>
        <time>2019-01-27T09:34:22Z</time>
      </trkpt>
      <trkpt lat="43.49649" lon="6.59808">
        <ele>72.1</ele>
        <time>2019-01-27T09:34:29Z</time>
      </trkpt>
      <trkpt lat="43.49653" lon="6.5982">
        <ele>72.3</ele>
        <time>2019-01-27T09:34:36Z</time>
      </trkpt>
      <trkpt lat="43.49659" lon="6.5983">
        <ele>72.5</ele>
        <time>2019-01-27T09:34:43Z</time>
      </trkpt>
      <trkpt lat="43.49664" lon="6.59841">
        <ele>72.4</ele>
        <time>2019-01-27T09:34:51Z</time>
      </trkpt>
      <trkpt lat="43.49668" lon="6.59853">
        <ele>72.3</ele>
        <time>2019-01-27T09:34:59Z</time>
      </trkpt>
      <trkpt lat="43.49672" lon="6.59865">
        <ele>72</ele>
        <time>2019-01-27T09:35:08Z</time>
      </trkpt>
      <trkpt lat="43.49679" lon="6.59875">
        <ele>72.1</ele>
        <time>2019-01-27T09:35:16Z</time>
      </trkpt>
      <trkpt lat="43.49685" lon="6.59884">
        <ele>72.4</ele>
        <time>2019-01-27T09:35:23Z</time>
      </trkpt>
      <trkpt lat="43.49692" lon="6.59892">
        <ele>72.2</ele>
        <time>2019-01-27T09:35:31Z</time>
      </trkpt>
      <trkpt lat="43.49702" lon="6.59898">
        <ele>71.4</ele>
        <time>2019-01-27T09:35:39Z</time>
      </trkpt>
      <trkpt lat="43.4971" lon="6.59905">
        <ele>71.9</ele>
        <time>2019-01-27T09:35:47Z</time>
      </trkpt>
      <trkpt lat="43.49718" lon="6.59912">
        <ele>71.1</ele>
        <time>2019-01-27T09:35:58Z</time>
      </trkpt>
      <trkpt lat="43.49726" lon="6.59918">
        <ele>70.5</ele>
        <time>2019-01-27T09:36:06Z</time>
      </trkpt>
      <trkpt lat="43.49733" lon="6.59925">
        <ele>70.2</ele>
        <time>2019-01-27T09:36:13Z</time>
      </trkpt>
      <trkpt lat="43.4974" lon="6.59935">
        <ele>71.4</ele>
        <time>2019-01-27T09:36:21Z</time>
      </trkpt>
      <trkpt lat="43.49748" lon="6.59943">
        <ele>71.8</ele>
        <time>2019-01-27T09:36:29Z</time>
      </trkpt>
      <trkpt lat="43.49755" lon="6.59952">
        <ele>71.4</ele>
        <time>2019-01-27T09:36:37Z</time>
      </trkpt>
      <trkpt lat="43.49763" lon="6.59959">
        <ele>71.4</ele>
        <time>2019-01-27T09:36:45Z</time>
      </trkpt>
      <trkpt lat="43.49772" lon="6.59965">
        <ele>71.4</ele>
        <time>2019-01-27T09:36:52Z</time>
      </trkpt>
      <trkpt lat="43.4978" lon="6.59971">
        <ele>71.5</ele>
        <time>2019-01-27T09:36:59Z</time>
      </trkpt>
      <trkpt lat="43.49789" lon="6.59977">
        <ele>71.1</ele>
        <time>2019-01-27T09:37:07Z</time>
      </trkpt>
      <trkpt lat="43.49796" lon="6.59987">
        <ele>71.7</ele>
        <time>2019-01-27T09:37:15Z</time>
      </trkpt>
      <trkpt lat="43.49803" lon="6.59994">
        <ele>71.3</ele>
        <time>2019-01-27T09:37:22Z</time>
      </trkpt>
      <trkpt lat="43.49808" lon="6.60005">
        <ele>71.9</ele>
        <time>2019-01-27T09:37:30Z</time>
      </trkpt>
      <trkpt lat="43.49814" lon="6.60015">
        <ele>72.4</ele>
        <time>2019-01-27T09:37:38Z</time>
      </trkpt>
      <trkpt lat="43.49819" lon="6.60026">
        <ele>72.4</ele>
        <time>2019-01-27T09:37:47Z</time>
      </trkpt>
      <trkpt lat="43.49829" lon="6.60025">
        <ele>72.5</ele>
        <time>2019-01-27T09:38:07Z</time>
      </trkpt>
      <trkpt lat="43.49826" lon="6.60037">
        <ele>72.5</ele>
        <time>2019-01-27T09:46:25Z</time>
      </trkpt>
      <trkpt lat="43.49824" lon="6.6005">
        <ele>71.8</ele>
        <time>2019-01-27T09:46:33Z</time>
      </trkpt>
      <trkpt lat="43.49825" lon="6.60064">
        <ele>72.8</ele>
        <time>2019-01-27T09:46:42Z</time>
      </trkpt>
      <trkpt lat="43.49827" lon="6.60077">
        <ele>72.7</ele>
        <time>2019-01-27T09:46:52Z</time>
      </trkpt>
      <trkpt lat="43.49829" lon="6.6009">
        <ele>73</ele>
        <time>2019-01-27T09:47:00Z</time>
      </trkpt>
      <trkpt lat="43.49828" lon="6.60104">
        <ele>72.9</ele>
        <time>2019-01-27T09:47:07Z</time>
      </trkpt>
      <trkpt lat="43.49832" lon="6.60116">
        <ele>73.8</ele>
        <time>2019-01-27T09:47:15Z</time>
      </trkpt>
      <trkpt lat="43.49838" lon="6.60127">
        <ele>74.3</ele>
        <time>2019-01-27T09:47:23Z</time>
      </trkpt>
      <trkpt lat="43.49843" lon="6.60138">
        <ele>74.6</ele>
        <time>2019-01-27T09:47:32Z</time>
      </trkpt>
      <trkpt lat="43.49836" lon="6.60147">
        <ele>74</ele>
        <time>2019-01-27T09:47:40Z</time>
      </trkpt>
      <trkpt lat="43.4983" lon="6.60158">
        <ele>74.2</ele>
        <time>2019-01-27T09:47:49Z</time>
      </trkpt>
      <trkpt lat="43.49823" lon="6.60167">
        <ele>74</ele>
        <time>2019-01-27T09:47:57Z</time>
      </trkpt>
      <trkpt lat="43.49814" lon="6.60175">
        <ele>73.8</ele>
        <time>2019-01-27T09:48:05Z</time>
      </trkpt>
      <trkpt lat="43.49805" lon="6.60179">
        <ele>74</ele>
        <time>2019-01-27T09:48:13Z</time>
      </trkpt>
      <trkpt lat="43.49796" lon="6.60185">
        <ele>73.7</ele>
        <time>2019-01-27T09:48:19Z</time>
      </trkpt>
      <trkpt lat="43.49787" lon="6.6019">
        <ele>73.2</ele>
        <time>2019-01-27T09:48:27Z</time>
      </trkpt>
      <trkpt lat="43.49778" lon="6.60195">
        <ele>73.3</ele>
        <time>2019-01-27T09:48:34Z</time>
      </trkpt>
      <trkpt lat="43.49773" lon="6.60206">
        <ele>73.1</ele>
        <time>2019-01-27T09:48:41Z</time>
      </trkpt>
      <trkpt lat="43.49767" lon="6.60217">
        <ele>72.7</ele>
        <time>2019-01-27T09:48:49Z</time>
      </trkpt>
      <trkpt lat="43.49762" lon="6.6023">
        <ele>73.2</ele>
        <time>2019-01-27T09:48:56Z</time>
      </trkpt>
      <trkpt lat="43.49759" lon="6.60243">
        <ele>73.5</ele>
        <time>2019-01-27T09:49:03Z</time>
      </trkpt>
      <trkpt lat="43.49757" lon="6.60255">
        <ele>73.4</ele>
        <time>2019-01-27T09:49:09Z</time>
      </trkpt>
      <trkpt lat="43.49755" lon="6.60269">
        <ele>73.4</ele>
        <time>2019-01-27T09:49:16Z</time>
      </trkpt>
      <trkpt lat="43.49755" lon="6.60282">
        <ele>73.6</ele>
        <time>2019-01-27T09:49:23Z</time>
      </trkpt>
      <trkpt lat="43.49754" lon="6.60296">
        <ele>73.5</ele>
        <time>2019-01-27T09:49:30Z</time>
      </trkpt>
      <trkpt lat="43.49752" lon="6.60309">
        <ele>73.7</ele>
        <time>2019-01-27T09:49:37Z</time>
      </trkpt>
      <trkpt lat="43.4975" lon="6.60323">
        <ele>74.2</ele>
        <time>2019-01-27T09:49:45Z</time>
      </trkpt>
      <trkpt lat="43.49751" lon="6.60336">
        <ele>74.5</ele>
        <time>2019-01-27T09:49:52Z</time>
      </trkpt>
      <trkpt lat="43.49751" lon="6.60349">
        <ele>74.9</ele>
        <time>2019-01-27T09:50:00Z</time>
      </trkpt>
      <trkpt lat="43.49754" lon="6.60361">
        <ele>75</ele>
        <time>2019-01-27T09:50:12Z</time>
      </trkpt>
      <trkpt lat="43.49756" lon="6.60374">
        <ele>75.5</ele>
        <time>2019-01-27T09:50:21Z</time>
      </trkpt>
      <trkpt lat="43.49764" lon="6.60383">
        <ele>75.7</ele>
        <time>2019-01-27T09:50:33Z</time>
      </trkpt>
      <trkpt lat="43.49773" lon="6.6039">
        <ele>75.4</ele>
        <time>2019-01-27T09:50:41Z</time>
      </trkpt>
      <trkpt lat="43.49781" lon="6.60396">
        <ele>75.8</ele>
        <time>2019-01-27T09:50:49Z</time>
      </trkpt>
      <trkpt lat="43.49787" lon="6.60407">
        <ele>75.9</ele>
        <time>2019-01-27T09:50:57Z</time>
      </trkpt>
      <trkpt lat="43.49793" lon="6.60417">
        <ele>76</ele>
        <time>2019-01-27T09:51:05Z</time>
      </trkpt>
      <trkpt lat="43.49797" lon="6.60429">
        <ele>76</ele>
        <time>2019-01-27T09:51:13Z</time>
      </trkpt>
      <trkpt lat="43.49804" lon="6.60438">
        <ele>76.1</ele>
        <time>2019-01-27T09:51:19Z</time>
      </trkpt>
      <trkpt lat="43.4981" lon="6.60449">
        <ele>76.5</ele>
        <time>2019-01-27T09:51:27Z</time>
      </trkpt>
      <trkpt lat="43.49815" lon="6.60462">
        <ele>76.7</ele>
        <time>2019-01-27T09:51:34Z</time>
      </trkpt>
      <trkpt lat="43.49821" lon="6.60471">
        <ele>76.7</ele>
        <time>2019-01-27T09:51:41Z</time>
      </trkpt>
      <trkpt lat="43.49827" lon="6.60481">
        <ele>77</ele>
        <time>2019-01-27T09:51:48Z</time>
      </trkpt>
      <trkpt lat="43.49834" lon="6.60492">
        <ele>76.5</ele>
        <time>2019-01-27T09:51:55Z</time>
      </trkpt>
      <trkpt lat="43.4984" lon="6.60503">
        <ele>75.6</ele>
        <time>2019-01-27T09:52:03Z</time>
      </trkpt>
      <trkpt lat="43.49846" lon="6.60513">
        <ele>75.7</ele>
        <time>2019-01-27T09:52:10Z</time>
      </trkpt>
      <trkpt lat="43.4985" lon="6.60524">
        <ele>75.3</ele>
        <time>2019-01-27T09:52:18Z</time>
      </trkpt>
      <trkpt lat="43.49854" lon="6.60536">
        <ele>75.4</ele>
        <time>2019-01-27T09:52:26Z</time>
      </trkpt>
      <trkpt lat="43.49857" lon="6.60549">
        <ele>75.8</ele>
        <time>2019-01-27T09:52:34Z</time>
      </trkpt>
      <trkpt lat="43.49858" lon="6.60562">
        <ele>76.1</ele>
        <time>2019-01-27T09:52:42Z</time>
      </trkpt>
      <trkpt lat="43.4986" lon="6.60575">
        <ele>75.5</ele>
        <time>2019-01-27T09:52:51Z</time>
      </trkpt>
      <trkpt lat="43.49863" lon="6.60587">
        <ele>75.4</ele>
        <time>2019-01-27T09:52:57Z</time>
      </trkpt>
      <trkpt lat="43.49867" lon="6.60599">
        <ele>75.7</ele>
        <time>2019-01-27T09:53:06Z</time>
      </trkpt>
      <trkpt lat="43.49869" lon="6.60613">
        <ele>75.7</ele>
        <time>2019-01-27T09:53:15Z</time>
      </trkpt>
      <trkpt lat="43.49873" lon="6.60625">
        <ele>75.9</ele>
        <time>2019-01-27T09:53:22Z</time>
      </trkpt>
      <trkpt lat="43.49878" lon="6.60636">
        <ele>75.6</ele>
        <time>2019-01-27T09:53:31Z</time>
      </trkpt>
      <trkpt lat="43.49884" lon="6.60648">
        <ele>75.6</ele>
        <time>2019-01-27T09:53:39Z</time>
      </trkpt>
      <trkpt lat="43.49891" lon="6.60657">
        <ele>75.4</ele>
        <time>2019-01-27T09:53:47Z</time>
      </trkpt>
      <trkpt lat="43.49899" lon="6.60662">
        <ele>75</ele>
        <time>2019-01-27T09:53:54Z</time>
      </trkpt>
      <trkpt lat="43.49909" lon="6.60668">
        <ele>74</ele>
        <time>2019-01-27T09:54:02Z</time>
      </trkpt>
      <trkpt lat="43.49916" lon="6.60675">
        <ele>73.5</ele>
        <time>2019-01-27T09:54:09Z</time>
      </trkpt>
      <trkpt lat="43.49925" lon="6.60683">
        <ele>72.8</ele>
        <time>2019-01-27T09:54:17Z</time>
      </trkpt>
      <trkpt lat="43.49932" lon="6.60692">
        <ele>72.1</ele>
        <time>2019-01-27T09:54:57Z</time>
      </trkpt>
      <trkpt lat="43.4994" lon="6.60697">
        <ele>71.6</ele>
        <time>2019-01-27T09:55:05Z</time>
      </trkpt>
      <trkpt lat="43.49949" lon="6.60705">
        <ele>71.1</ele>
        <time>2019-01-27T09:55:14Z</time>
      </trkpt>
      <trkpt lat="43.49957" lon="6.60713">
        <ele>70.9</ele>
        <time>2019-01-27T09:55:21Z</time>
      </trkpt>
      <trkpt lat="43.49964" lon="6.6072">
        <ele>70</ele>
        <time>2019-01-27T09:55:27Z</time>
      </trkpt>
      <trkpt lat="43.49971" lon="6.6073">
        <ele>69.3</ele>
        <time>2019-01-27T09:55:34Z</time>
      </trkpt>
      <trkpt lat="43.49979" lon="6.60738">
        <ele>68.5</ele>
        <time>2019-01-27T09:55:42Z</time>
      </trkpt>
      <trkpt lat="43.49985" lon="6.60747">
        <ele>67.8</ele>
        <time>2019-01-27T09:55:49Z</time>
      </trkpt>
      <trkpt lat="43.49992" lon="6.60757">
        <ele>67.6</ele>
        <time>2019-01-27T09:55:58Z</time>
      </trkpt>
      <trkpt lat="43.49999" lon="6.60767">
        <ele>67.4</ele>
        <time>2019-01-27T09:56:07Z</time>
      </trkpt>
      <trkpt lat="43.50008" lon="6.60775">
        <ele>66.5</ele>
        <time>2019-01-27T09:56:15Z</time>
      </trkpt>
      <trkpt lat="43.50016" lon="6.60783">
        <ele>65.9</ele>
        <time>2019-01-27T09:56:23Z</time>
      </trkpt>
      <trkpt lat="43.50023" lon="6.60793">
        <ele>65.5</ele>
        <time>2019-01-27T09:56:31Z</time>
      </trkpt>
      <trkpt lat="43.50031" lon="6.60799">
        <ele>65.2</ele>
        <time>2019-01-27T09:56:38Z</time>
      </trkpt>
      <trkpt lat="43.50037" lon="6.60809">
        <ele>65.2</ele>
        <time>2019-01-27T09:56:47Z</time>
      </trkpt>
      <trkpt lat="43.50043" lon="6.6082">
        <ele>65</ele>
        <time>2019-01-27T09:56:56Z</time>
      </trkpt>
      <trkpt lat="43.5005" lon="6.60828">
        <ele>64.5</ele>
        <time>2019-01-27T09:57:03Z</time>
      </trkpt>
      <trkpt lat="43.50058" lon="6.60835">
        <ele>64.4</ele>
        <time>2019-01-27T09:57:11Z</time>
      </trkpt>
      <trkpt lat="43.50065" lon="6.60843">
        <ele>64.4</ele>
        <time>2019-01-27T09:57:20Z</time>
      </trkpt>
      <trkpt lat="43.50072" lon="6.6085">
        <ele>64.8</ele>
        <time>2019-01-27T09:58:20Z</time>
      </trkpt>
      <trkpt lat="43.50079" lon="6.60859">
        <ele>64.8</ele>
        <time>2019-01-27T09:58:29Z</time>
      </trkpt>
      <trkpt lat="43.50086" lon="6.60867">
        <ele>64.6</ele>
        <time>2019-01-27T09:58:37Z</time>
      </trkpt>
      <trkpt lat="43.50095" lon="6.60875">
        <ele>64.3</ele>
        <time>2019-01-27T09:58:45Z</time>
      </trkpt>
      <trkpt lat="43.50102" lon="6.60884">
        <ele>63.7</ele>
        <time>2019-01-27T09:58:52Z</time>
      </trkpt>
      <trkpt lat="43.50106" lon="6.60897">
        <ele>63.2</ele>
        <time>2019-01-27T09:59:00Z</time>
      </trkpt>
      <trkpt lat="43.5011" lon="6.60908">
        <ele>62.6</ele>
        <time>2019-01-27T09:59:08Z</time>
      </trkpt>
      <trkpt lat="43.50115" lon="6.6092">
        <ele>62.3</ele>
        <time>2019-01-27T09:59:17Z</time>
      </trkpt>
      <trkpt lat="43.50121" lon="6.60931">
        <ele>62</ele>
        <time>2019-01-27T09:59:26Z</time>
      </trkpt>
      <trkpt lat="43.50128" lon="6.6094">
        <ele>62.2</ele>
        <time>2019-01-27T09:59:34Z</time>
      </trkpt>
      <trkpt lat="43.50137" lon="6.60947">
        <ele>62.4</ele>
        <time>2019-01-27T09:59:42Z</time>
      </trkpt>
      <trkpt lat="43.50145" lon="6.60952">
        <ele>62.2</ele>
        <time>2019-01-27T09:59:49Z</time>
      </trkpt>
      <trkpt lat="43.50153" lon="6.6096">
        <ele>62.2</ele>
        <time>2019-01-27T09:59:56Z</time>
      </trkpt>
      <trkpt lat="43.50161" lon="6.60967">
        <ele>62.6</ele>
        <time>2019-01-27T10:00:03Z</time>
      </trkpt>
      <trkpt lat="43.50169" lon="6.60976">
        <ele>62.7</ele>
        <time>2019-01-27T10:00:11Z</time>
      </trkpt>
      <trkpt lat="43.50177" lon="6.60981">
        <ele>62.7</ele>
        <time>2019-01-27T10:00:18Z</time>
      </trkpt>
      <trkpt lat="43.50185" lon="6.60988">
        <ele>63.1</ele>
        <time>2019-01-27T10:00:25Z</time>
      </trkpt>
      <trkpt lat="43.50193" lon="6.60996">
        <ele>63.7</ele>
        <time>2019-01-27T10:00:32Z</time>
      </trkpt>
      <trkpt lat="43.50201" lon="6.61004">
        <ele>63.7</ele>
        <time>2019-01-27T10:00:39Z</time>
      </trkpt>
      <trkpt lat="43.50208" lon="6.61012">
        <ele>64.2</ele>
        <time>2019-01-27T10:00:46Z</time>
      </trkpt>
      <trkpt lat="43.50216" lon="6.61021">
        <ele>64.8</ele>
        <time>2019-01-27T10:00:53Z</time>
      </trkpt>
      <trkpt lat="43.50224" lon="6.61027">
        <ele>65.4</ele>
        <time>2019-01-27T10:01:01Z</time>
      </trkpt>
      <trkpt lat="43.50232" lon="6.61036">
        <ele>66.1</ele>
        <time>2019-01-27T10:01:09Z</time>
      </trkpt>
      <trkpt lat="43.5024" lon="6.61043">
        <ele>66.8</ele>
        <time>2019-01-27T10:01:16Z</time>
      </trkpt>
      <trkpt lat="43.50246" lon="6.61053">
        <ele>67.2</ele>
        <time>2019-01-27T10:01:23Z</time>
      </trkpt>
      <trkpt lat="43.50254" lon="6.61062">
        <ele>67.7</ele>
        <time>2019-01-27T10:01:30Z</time>
      </trkpt>
      <trkpt lat="43.50261" lon="6.6107">
        <ele>68.3</ele>
        <time>2019-01-27T10:01:38Z</time>
      </trkpt>
      <trkpt lat="43.5027" lon="6.61077">
        <ele>69.4</ele>
        <time>2019-01-27T10:01:46Z</time>
      </trkpt>
      <trkpt lat="43.50277" lon="6.61085">
        <ele>70.3</ele>
        <time>2019-01-27T10:01:54Z</time>
      </trkpt>
      <trkpt lat="43.50286" lon="6.6108">
        <ele>71.4</ele>
        <time>2019-01-27T10:02:28Z</time>
      </trkpt>
      <trkpt lat="43.50293" lon="6.61072">
        <ele>71.9</ele>
        <time>2019-01-27T10:02:39Z</time>
      </trkpt>
      <trkpt lat="43.50298" lon="6.6106">
        <ele>72.2</ele>
        <time>2019-01-27T10:02:48Z</time>
      </trkpt>
      <trkpt lat="43.50304" lon="6.61051">
        <ele>72.1</ele>
        <time>2019-01-27T10:02:55Z</time>
      </trkpt>
      <trkpt lat="43.50309" lon="6.61039">
        <ele>72</ele>
        <time>2019-01-27T10:03:02Z</time>
      </trkpt>
      <trkpt lat="43.50313" lon="6.61026">
        <ele>71.8</ele>
        <time>2019-01-27T10:03:10Z</time>
      </trkpt>
      <trkpt lat="43.50316" lon="6.61014">
        <ele>71.3</ele>
        <time>2019-01-27T10:03:17Z</time>
      </trkpt>
      <trkpt lat="43.5032" lon="6.61002">
        <ele>70.4</ele>
        <time>2019-01-27T10:03:24Z</time>
      </trkpt>
      <trkpt lat="43.50324" lon="6.6099">
        <ele>69.9</ele>
        <time>2019-01-27T10:03:32Z</time>
      </trkpt>
      <trkpt lat="43.50329" lon="6.60977">
        <ele>69.6</ele>
        <time>2019-01-27T10:03:41Z</time>
      </trkpt>
      <trkpt lat="43.50336" lon="6.60967">
        <ele>69.4</ele>
        <time>2019-01-27T10:03:49Z</time>
      </trkpt>
      <trkpt lat="43.50343" lon="6.60959">
        <ele>69</ele>
        <time>2019-01-27T10:03:55Z</time>
      </trkpt>
      <trkpt lat="43.50349" lon="6.60948">
        <ele>69.3</ele>
        <time>2019-01-27T10:04:03Z</time>
      </trkpt>
      <trkpt lat="43.50352" lon="6.60936">
        <ele>69</ele>
        <time>2019-01-27T10:04:10Z</time>
      </trkpt>
      <trkpt lat="43.50355" lon="6.60924">
        <ele>68.8</ele>
        <time>2019-01-27T10:04:30Z</time>
      </trkpt>
      <trkpt lat="43.50363" lon="6.60931">
        <ele>68</ele>
        <time>2019-01-27T10:05:04Z</time>
      </trkpt>
      <trkpt lat="43.5037" lon="6.60941">
        <ele>67</ele>
        <time>2019-01-27T10:05:13Z</time>
      </trkpt>
      <trkpt lat="43.50375" lon="6.60951">
        <ele>66.4</ele>
        <time>2019-01-27T10:05:21Z</time>
      </trkpt>
      <trkpt lat="43.50382" lon="6.6096">
        <ele>66.2</ele>
        <time>2019-01-27T10:05:28Z</time>
      </trkpt>
      <trkpt lat="43.50388" lon="6.6097">
        <ele>65.6</ele>
        <time>2019-01-27T10:05:36Z</time>
      </trkpt>
      <trkpt lat="43.50393" lon="6.60981">
        <ele>65.7</ele>
        <time>2019-01-27T10:05:44Z</time>
      </trkpt>
      <trkpt lat="43.504" lon="6.60991">
        <ele>65</ele>
        <time>2019-01-27T10:05:53Z</time>
      </trkpt>
      <trkpt lat="43.50406" lon="6.61002">
        <ele>64.7</ele>
        <time>2019-01-27T10:06:02Z</time>
      </trkpt>
      <trkpt lat="43.50413" lon="6.6101">
        <ele>64.3</ele>
        <time>2019-01-27T10:06:08Z</time>
      </trkpt>
      <trkpt lat="43.50419" lon="6.6102">
        <ele>64.1</ele>
        <time>2019-01-27T10:06:15Z</time>
      </trkpt>
      <trkpt lat="43.50426" lon="6.61029">
        <ele>63.6</ele>
        <time>2019-01-27T10:06:21Z</time>
      </trkpt>
      <trkpt lat="43.50434" lon="6.61036">
        <ele>63.2</ele>
        <time>2019-01-27T10:06:29Z</time>
      </trkpt>
      <trkpt lat="43.5044" lon="6.61048">
        <ele>63.2</ele>
        <time>2019-01-27T10:06:36Z</time>
      </trkpt>
      <trkpt lat="43.50447" lon="6.61058">
        <ele>62.9</ele>
        <time>2019-01-27T10:06:43Z</time>
      </trkpt>
      <trkpt lat="43.50452" lon="6.61069">
        <ele>63.3</ele>
        <time>2019-01-27T10:06:50Z</time>
      </trkpt>
      <trkpt lat="43.5046" lon="6.61078">
        <ele>63.3</ele>
        <time>2019-01-27T10:06:57Z</time>
      </trkpt>
      <trkpt lat="43.50467" lon="6.61087">
        <ele>63.2</ele>
        <time>2019-01-27T10:07:05Z</time>
      </trkpt>
      <trkpt lat="43.50475" lon="6.61095">
        <ele>63.2</ele>
        <time>2019-01-27T10:07:13Z</time>
      </trkpt>
      <trkpt lat="43.50482" lon="6.61103">
        <ele>63</ele>
        <time>2019-01-27T10:07:19Z</time>
      </trkpt>
      <trkpt lat="43.50489" lon="6.61111">
        <ele>62.8</ele>
        <time>2019-01-27T10:07:26Z</time>
      </trkpt>
      <trkpt lat="43.50497" lon="6.61119">
        <ele>62.7</ele>
        <time>2019-01-27T10:07:33Z</time>
      </trkpt>
      <trkpt lat="43.50506" lon="6.61124">
        <ele>62.6</ele>
        <time>2019-01-27T10:07:40Z</time>
      </trkpt>
      <trkpt lat="43.50515" lon="6.61123">
        <ele>62.7</ele>
        <time>2019-01-27T10:07:47Z</time>
      </trkpt>
      <trkpt lat="43.50524" lon="6.6112">
        <ele>63</ele>
        <time>2019-01-27T10:07:56Z</time>
      </trkpt>
      <trkpt lat="43.50534" lon="6.61117">
        <ele>63.3</ele>
        <time>2019-01-27T10:08:14Z</time>
      </trkpt>
      <trkpt lat="43.50543" lon="6.61114">
        <ele>62.8</ele>
        <time>2019-01-27T10:08:23Z</time>
      </trkpt>
      <trkpt lat="43.50553" lon="6.61109">
        <ele>62.5</ele>
        <time>2019-01-27T10:08:30Z</time>
      </trkpt>
      <trkpt lat="43.50562" lon="6.61105">
        <ele>62.8</ele>
        <time>2019-01-27T10:08:38Z</time>
      </trkpt>
      <trkpt lat="43.50572" lon="6.61106">
        <ele>63</ele>
        <time>2019-01-27T10:08:47Z</time>
      </trkpt>
      <trkpt lat="43.50581" lon="6.61106">
        <ele>63.4</ele>
        <time>2019-01-27T10:08:56Z</time>
      </trkpt>
      <trkpt lat="43.5059" lon="6.611">
        <ele>63.6</ele>
        <time>2019-01-27T10:09:05Z</time>
      </trkpt>
      <trkpt lat="43.506" lon="6.61095">
        <ele>63.9</ele>
        <time>2019-01-27T10:09:13Z</time>
      </trkpt>
      <trkpt lat="43.50609" lon="6.61089">
        <ele>64.4</ele>
        <time>2019-01-27T10:09:21Z</time>
      </trkpt>
      <trkpt lat="43.50617" lon="6.61084">
        <ele>64.7</ele>
        <time>2019-01-27T10:09:28Z</time>
      </trkpt>
      <trkpt lat="43.50625" lon="6.61074">
        <ele>65</ele>
        <time>2019-01-27T10:09:35Z</time>
      </trkpt>
      <trkpt lat="43.50631" lon="6.61064">
        <ele>65.3</ele>
        <time>2019-01-27T10:09:42Z</time>
      </trkpt>
      <trkpt lat="43.50638" lon="6.61057">
        <ele>65.4</ele>
        <time>2019-01-27T10:09:49Z</time>
      </trkpt>
      <trkpt lat="43.50647" lon="6.61051">
        <ele>65.6</ele>
        <time>2019-01-27T10:09:57Z</time>
      </trkpt>
      <trkpt lat="43.50654" lon="6.61043">
        <ele>66.2</ele>
        <time>2019-01-27T10:10:05Z</time>
      </trkpt>
      <trkpt lat="43.50661" lon="6.61034">
        <ele>66.5</ele>
        <time>2019-01-27T10:10:12Z</time>
      </trkpt>
      <trkpt lat="43.5067" lon="6.6103">
        <ele>67</ele>
        <time>2019-01-27T10:10:20Z</time>
      </trkpt>
      <trkpt lat="43.50678" lon="6.61024">
        <ele>67.6</ele>
        <time>2019-01-27T10:10:27Z</time>
      </trkpt>
      <trkpt lat="43.50687" lon="6.61016">
        <ele>67.9</ele>
        <time>2019-01-27T10:10:35Z</time>
      </trkpt>
      <trkpt lat="43.50695" lon="6.61009">
        <ele>68.2</ele>
        <time>2019-01-27T10:10:43Z</time>
      </trkpt>
      <trkpt lat="43.50703" lon="6.61002">
        <ele>68.5</ele>
        <time>2019-01-27T10:10:50Z</time>
      </trkpt>
      <trkpt lat="43.50712" lon="6.60996">
        <ele>68.5</ele>
        <time>2019-01-27T10:10:57Z</time>
      </trkpt>
      <trkpt lat="43.5072" lon="6.6099">
        <ele>68.3</ele>
        <time>2019-01-27T10:11:04Z</time>
      </trkpt>
      <trkpt lat="43.50729" lon="6.60984">
        <ele>68.2</ele>
        <time>2019-01-27T10:11:11Z</time>
      </trkpt>
      <trkpt lat="43.50737" lon="6.60978">
        <ele>68.7</ele>
        <time>2019-01-27T10:11:18Z</time>
      </trkpt>
      <trkpt lat="43.50746" lon="6.60972">
        <ele>69</ele>
        <time>2019-01-27T10:11:24Z</time>
      </trkpt>
      <trkpt lat="43.50754" lon="6.60965">
        <ele>69.1</ele>
        <time>2019-01-27T10:11:31Z</time>
      </trkpt>
      <trkpt lat="43.50762" lon="6.60958">
        <ele>69.5</ele>
        <time>2019-01-27T10:11:39Z</time>
      </trkpt>
      <trkpt lat="43.5077" lon="6.6095">
        <ele>69.7</ele>
        <time>2019-01-27T10:11:46Z</time>
      </trkpt>
      <trkpt lat="43.50779" lon="6.60943">
        <ele>69.8</ele>
        <time>2019-01-27T10:11:54Z</time>
      </trkpt>
      <trkpt lat="43.50787" lon="6.60936">
        <ele>70.3</ele>
        <time>2019-01-27T10:12:02Z</time>
      </trkpt>
      <trkpt lat="43.50794" lon="6.60928">
        <ele>70.5</ele>
        <time>2019-01-27T10:12:11Z</time>
      </trkpt>
      <trkpt lat="43.50803" lon="6.60922">
        <ele>70.2</ele>
        <time>2019-01-27T10:12:18Z</time>
      </trkpt>
      <trkpt lat="43.50811" lon="6.60915">
        <ele>70.4</ele>
        <time>2019-01-27T10:12:25Z</time>
      </trkpt>
      <trkpt lat="43.50821" lon="6.6091">
        <ele>70.4</ele>
        <time>2019-01-27T10:12:34Z</time>
      </trkpt>
      <trkpt lat="43.50831" lon="6.60907">
        <ele>70.9</ele>
        <time>2019-01-27T10:12:42Z</time>
      </trkpt>
      <trkpt lat="43.50841" lon="6.60906">
        <ele>70.9</ele>
        <time>2019-01-27T10:12:50Z</time>
      </trkpt>
      <trkpt lat="43.5085" lon="6.60908">
        <ele>70.7</ele>
        <time>2019-01-27T10:12:57Z</time>
      </trkpt>
      <trkpt lat="43.5086" lon="6.60911">
        <ele>70.5</ele>
        <time>2019-01-27T10:13:05Z</time>
      </trkpt>
      <trkpt lat="43.50869" lon="6.60914">
        <ele>70.6</ele>
        <time>2019-01-27T10:13:12Z</time>
      </trkpt>
      <trkpt lat="43.50878" lon="6.60913">
        <ele>70.7</ele>
        <time>2019-01-27T10:13:19Z</time>
      </trkpt>
      <trkpt lat="43.50888" lon="6.60912">
        <ele>70.3</ele>
        <time>2019-01-27T10:13:26Z</time>
      </trkpt>
      <trkpt lat="43.50896" lon="6.60906">
        <ele>70</ele>
        <time>2019-01-27T10:13:32Z</time>
      </trkpt>
      <trkpt lat="43.50904" lon="6.60899">
        <ele>70.1</ele>
        <time>2019-01-27T10:13:40Z</time>
      </trkpt>
      <trkpt lat="43.50912" lon="6.6089">
        <ele>70.2</ele>
        <time>2019-01-27T10:13:47Z</time>
      </trkpt>
      <trkpt lat="43.50919" lon="6.60879">
        <ele>71.2</ele>
        <time>2019-01-27T10:13:55Z</time>
      </trkpt>
      <trkpt lat="43.50926" lon="6.60869">
        <ele>71.5</ele>
        <time>2019-01-27T10:14:02Z</time>
      </trkpt>
      <trkpt lat="43.50928" lon="6.60856">
        <ele>71.6</ele>
        <time>2019-01-27T10:14:09Z</time>
      </trkpt>
      <trkpt lat="43.50929" lon="6.60843">
        <ele>72.1</ele>
        <time>2019-01-27T10:14:16Z</time>
      </trkpt>
      <trkpt lat="43.50926" lon="6.6083">
        <ele>72.6</ele>
        <time>2019-01-27T10:14:23Z</time>
      </trkpt>
      <trkpt lat="43.50925" lon="6.60816">
        <ele>73</ele>
        <time>2019-01-27T10:14:31Z</time>
      </trkpt>
      <trkpt lat="43.50923" lon="6.60804">
        <ele>73.4</ele>
        <time>2019-01-27T10:14:38Z</time>
      </trkpt>
      <trkpt lat="43.50925" lon="6.6079">
        <ele>73.2</ele>
        <time>2019-01-27T10:14:46Z</time>
      </trkpt>
      <trkpt lat="43.50931" lon="6.60781">
        <ele>73.9</ele>
        <time>2019-01-27T10:15:03Z</time>
      </trkpt>
      <trkpt lat="43.50939" lon="6.60787">
        <ele>74</ele>
        <time>2019-01-27T10:15:37Z</time>
      </trkpt>
      <trkpt lat="43.50944" lon="6.60799">
        <ele>73.8</ele>
        <time>2019-01-27T10:15:45Z</time>
      </trkpt>
      <trkpt lat="43.50951" lon="6.60809">
        <ele>73.9</ele>
        <time>2019-01-27T10:15:53Z</time>
      </trkpt>
      <trkpt lat="43.50958" lon="6.60817">
        <ele>74.1</ele>
        <time>2019-01-27T10:16:00Z</time>
      </trkpt>
      <trkpt lat="43.50967" lon="6.60822">
        <ele>74.7</ele>
        <time>2019-01-27T10:16:09Z</time>
      </trkpt>
      <trkpt lat="43.50974" lon="6.60831">
        <ele>75.3</ele>
        <time>2019-01-27T10:16:18Z</time>
      </trkpt>
      <trkpt lat="43.50981" lon="6.6084">
        <ele>75.7</ele>
        <time>2019-01-27T10:16:26Z</time>
      </trkpt>
      <trkpt lat="43.5099" lon="6.60845">
        <ele>76.4</ele>
        <time>2019-01-27T10:16:33Z</time>
      </trkpt>
      <trkpt lat="43.51" lon="6.60844">
        <ele>76.9</ele>
        <time>2019-01-27T10:16:41Z</time>
      </trkpt>
      <trkpt lat="43.51008" lon="6.60839">
        <ele>77.8</ele>
        <time>2019-01-27T10:16:49Z</time>
      </trkpt>
      <trkpt lat="43.51016" lon="6.60833">
        <ele>79.4</ele>
        <time>2019-01-27T10:16:58Z</time>
      </trkpt>
      <trkpt lat="43.51025" lon="6.60828">
        <ele>81</ele>
        <time>2019-01-27T10:17:08Z</time>
      </trkpt>
      <trkpt lat="43.51035" lon="6.60826">
        <ele>83.2</ele>
        <time>2019-01-27T10:17:18Z</time>
      </trkpt>
      <trkpt lat="43.51044" lon="6.60826">
        <ele>84.2</ele>
        <time>2019-01-27T10:17:26Z</time>
      </trkpt>
      <trkpt lat="43.51052" lon="6.60819">
        <ele>85.4</ele>
        <time>2019-01-27T10:17:35Z</time>
      </trkpt>
      <trkpt lat="43.51059" lon="6.60808">
        <ele>86.4</ele>
        <time>2019-01-27T10:17:43Z</time>
      </trkpt>
      <trkpt lat="43.51065" lon="6.60797">
        <ele>87.7</ele>
        <time>2019-01-27T10:17:50Z</time>
      </trkpt>
      <trkpt lat="43.5107" lon="6.60787">
        <ele>88.5</ele>
        <time>2019-01-27T10:17:59Z</time>
      </trkpt>
      <trkpt lat="43.51074" lon="6.60776">
        <ele>89.6</ele>
        <time>2019-01-27T10:18:44Z</time>
      </trkpt>
      <trkpt lat="43.51084" lon="6.60773">
        <ele>89.8</ele>
        <time>2019-01-27T10:23:13Z</time>
      </trkpt>
      <trkpt lat="43.51094" lon="6.60769">
        <ele>90</ele>
        <time>2019-01-27T10:23:21Z</time>
      </trkpt>
      <trkpt lat="43.51102" lon="6.60765">
        <ele>90.5</ele>
        <time>2019-01-27T10:23:30Z</time>
      </trkpt>
      <trkpt lat="43.51111" lon="6.6076">
        <ele>90.8</ele>
        <time>2019-01-27T10:23:38Z</time>
      </trkpt>
      <trkpt lat="43.51121" lon="6.60757">
        <ele>91.1</ele>
        <time>2019-01-27T10:23:46Z</time>
      </trkpt>
      <trkpt lat="43.51131" lon="6.60753">
        <ele>91.5</ele>
        <time>2019-01-27T10:23:54Z</time>
      </trkpt>
      <trkpt lat="43.5114" lon="6.60751">
        <ele>92.1</ele>
        <time>2019-01-27T10:24:01Z</time>
      </trkpt>
      <trkpt lat="43.51149" lon="6.60747">
        <ele>92.5</ele>
        <time>2019-01-27T10:24:09Z</time>
      </trkpt>
      <trkpt lat="43.51158" lon="6.60745">
        <ele>92.9</ele>
        <time>2019-01-27T10:24:16Z</time>
      </trkpt>
      <trkpt lat="43.51168" lon="6.60744">
        <ele>92.8</ele>
        <time>2019-01-27T10:24:23Z</time>
      </trkpt>
      <trkpt lat="43.51178" lon="6.60744">
        <ele>92.7</ele>
        <time>2019-01-27T10:24:30Z</time>
      </trkpt>
      <trkpt lat="43.51187" lon="6.60741">
        <ele>92.6</ele>
        <time>2019-01-27T10:24:39Z</time>
      </trkpt>
      <trkpt lat="43.51196" lon="6.60735">
        <ele>92.8</ele>
        <time>2019-01-27T10:24:48Z</time>
      </trkpt>
      <trkpt lat="43.51205" lon="6.60733">
        <ele>92.9</ele>
        <time>2019-01-27T10:24:55Z</time>
      </trkpt>
      <trkpt lat="43.51214" lon="6.60731">
        <ele>93</ele>
        <time>2019-01-27T10:25:02Z</time>
      </trkpt>
      <trkpt lat="43.51224" lon="6.60731">
        <ele>93.2</ele>
        <time>2019-01-27T10:25:10Z</time>
      </trkpt>
      <trkpt lat="43.51234" lon="6.60732">
        <ele>94.1</ele>
        <time>2019-01-27T10:25:18Z</time>
      </trkpt>
      <trkpt lat="43.51243" lon="6.60732">
        <ele>94.4</ele>
        <time>2019-01-27T10:25:26Z</time>
      </trkpt>
      <trkpt lat="43.51253" lon="6.60733">
        <ele>94.5</ele>
        <time>2019-01-27T10:25:33Z</time>
      </trkpt>
      <trkpt lat="43.51264" lon="6.60736">
        <ele>94.5</ele>
        <time>2019-01-27T10:25:41Z</time>
      </trkpt>
      <trkpt lat="43.51273" lon="6.60739">
        <ele>94.9</ele>
        <time>2019-01-27T10:25:48Z</time>
      </trkpt>
      <trkpt lat="43.51282" lon="6.60739">
        <ele>95.4</ele>
        <time>2019-01-27T10:25:55Z</time>
      </trkpt>
      <trkpt lat="43.51292" lon="6.6074">
        <ele>95.3</ele>
        <time>2019-01-27T10:26:03Z</time>
      </trkpt>
      <trkpt lat="43.51301" lon="6.60739">
        <ele>95.5</ele>
        <time>2019-01-27T10:26:11Z</time>
      </trkpt>
      <trkpt lat="43.5131" lon="6.60737">
        <ele>96.1</ele>
        <time>2019-01-27T10:26:19Z</time>
      </trkpt>
      <trkpt lat="43.5132" lon="6.60733">
        <ele>97.2</ele>
        <time>2019-01-27T10:26:36Z</time>
      </trkpt>
      <trkpt lat="43.51329" lon="6.60733">
        <ele>97.8</ele>
        <time>2019-01-27T10:26:45Z</time>
      </trkpt>
      <trkpt lat="43.51339" lon="6.60736">
        <ele>98</ele>
        <time>2019-01-27T10:26:53Z</time>
      </trkpt>
      <trkpt lat="43.51349" lon="6.60734">
        <ele>98.2</ele>
        <time>2019-01-27T10:27:02Z</time>
      </trkpt>
      <trkpt lat="43.51357" lon="6.60727">
        <ele>98.4</ele>
        <time>2019-01-27T10:27:10Z</time>
      </trkpt>
      <trkpt lat="43.51366" lon="6.60724">
        <ele>99</ele>
        <time>2019-01-27T10:27:18Z</time>
      </trkpt>
      <trkpt lat="43.51376" lon="6.60722">
        <ele>99.2</ele>
        <time>2019-01-27T10:27:24Z</time>
      </trkpt>
      <trkpt lat="43.51385" lon="6.60719">
        <ele>99</ele>
        <time>2019-01-27T10:27:30Z</time>
      </trkpt>
      <trkpt lat="43.51395" lon="6.60719">
        <ele>99.4</ele>
        <time>2019-01-27T10:27:38Z</time>
      </trkpt>
      <trkpt lat="43.51405" lon="6.60719">
        <ele>99.5</ele>
        <time>2019-01-27T10:27:45Z</time>
      </trkpt>
      <trkpt lat="43.51415" lon="6.60722">
        <ele>99.5</ele>
        <time>2019-01-27T10:27:53Z</time>
      </trkpt>
      <trkpt lat="43.51424" lon="6.60725">
        <ele>99.9</ele>
        <time>2019-01-27T10:28:00Z</time>
      </trkpt>
      <trkpt lat="43.51434" lon="6.60729">
        <ele>100.1</ele>
        <time>2019-01-27T10:28:09Z</time>
      </trkpt>
      <trkpt lat="43.51443" lon="6.6073">
        <ele>100.4</ele>
        <time>2019-01-27T10:28:15Z</time>
      </trkpt>
      <trkpt lat="43.51452" lon="6.60736">
        <ele>101</ele>
        <time>2019-01-27T10:28:24Z</time>
      </trkpt>
      <trkpt lat="43.51461" lon="6.60738">
        <ele>100.9</ele>
        <time>2019-01-27T10:28:30Z</time>
      </trkpt>
      <trkpt lat="43.51471" lon="6.60738">
        <ele>100.9</ele>
        <time>2019-01-27T10:28:37Z</time>
      </trkpt>
      <trkpt lat="43.5148" lon="6.6074">
        <ele>101.4</ele>
        <time>2019-01-27T10:28:44Z</time>
      </trkpt>
      <trkpt lat="43.51489" lon="6.60739">
        <ele>101.7</ele>
        <time>2019-01-27T10:28:50Z</time>
      </trkpt>
      <trkpt lat="43.51499" lon="6.6074">
        <ele>101.5</ele>
        <time>2019-01-27T10:28:57Z</time>
      </trkpt>
      <trkpt lat="43.51508" lon="6.60739">
        <ele>102</ele>
        <time>2019-01-27T10:29:03Z</time>
      </trkpt>
      <trkpt lat="43.51518" lon="6.60739">
        <ele>102.3</ele>
        <time>2019-01-27T10:29:11Z</time>
      </trkpt>
      <trkpt lat="43.51527" lon="6.60739">
        <ele>102.5</ele>
        <time>2019-01-27T10:29:18Z</time>
      </trkpt>
      <trkpt lat="43.51536" lon="6.60742">
        <ele>102.5</ele>
        <time>2019-01-27T10:29:25Z</time>
      </trkpt>
      <trkpt lat="43.51546" lon="6.60743">
        <ele>102.7</ele>
        <time>2019-01-27T10:29:33Z</time>
      </trkpt>
      <trkpt lat="43.51556" lon="6.60743">
        <ele>103.3</ele>
        <time>2019-01-27T10:29:42Z</time>
      </trkpt>
      <trkpt lat="43.51565" lon="6.60745">
        <ele>103.7</ele>
        <time>2019-01-27T10:29:49Z</time>
      </trkpt>
      <trkpt lat="43.51575" lon="6.60744">
        <ele>104.2</ele>
        <time>2019-01-27T10:29:55Z</time>
      </trkpt>
      <trkpt lat="43.51584" lon="6.60742">
        <ele>104.5</ele>
        <time>2019-01-27T10:30:03Z</time>
      </trkpt>
      <trkpt lat="43.51594" lon="6.60741">
        <ele>105.4</ele>
        <time>2019-01-27T10:30:12Z</time>
      </trkpt>
      <trkpt lat="43.51604" lon="6.60741">
        <ele>105.7</ele>
        <time>2019-01-27T10:30:20Z</time>
      </trkpt>
      <trkpt lat="43.51613" lon="6.60744">
        <ele>106.2</ele>
        <time>2019-01-27T10:30:27Z</time>
      </trkpt>
      <trkpt lat="43.51623" lon="6.60744">
        <ele>106.5</ele>
        <time>2019-01-27T10:30:35Z</time>
      </trkpt>
      <trkpt lat="43.51633" lon="6.60747">
        <ele>106.5</ele>
        <time>2019-01-27T10:30:43Z</time>
      </trkpt>
      <trkpt lat="43.51642" lon="6.60751">
        <ele>106.6</ele>
        <time>2019-01-27T10:30:51Z</time>
      </trkpt>
      <trkpt lat="43.51651" lon="6.60757">
        <ele>106.6</ele>
        <time>2019-01-27T10:30:59Z</time>
      </trkpt>
      <trkpt lat="43.51659" lon="6.60764">
        <ele>106.7</ele>
        <time>2019-01-27T10:31:05Z</time>
      </trkpt>
      <trkpt lat="43.51668" lon="6.60772">
        <ele>106.9</ele>
        <time>2019-01-27T10:31:13Z</time>
      </trkpt>
      <trkpt lat="43.51676" lon="6.60775">
        <ele>107</ele>
        <time>2019-01-27T10:31:21Z</time>
      </trkpt>
      <trkpt lat="43.51686" lon="6.60778">
        <ele>107.1</ele>
        <time>2019-01-27T10:31:28Z</time>
      </trkpt>
      <trkpt lat="43.51696" lon="6.60779">
        <ele>107.2</ele>
        <time>2019-01-27T10:31:35Z</time>
      </trkpt>
      <trkpt lat="43.51706" lon="6.60779">
        <ele>107.6</ele>
        <time>2019-01-27T10:31:42Z</time>
      </trkpt>
      <trkpt lat="43.51716" lon="6.60777">
        <ele>107.9</ele>
        <time>2019-01-27T10:31:49Z</time>
      </trkpt>
      <trkpt lat="43.51726" lon="6.60774">
        <ele>108.4</ele>
        <time>2019-01-27T10:31:57Z</time>
      </trkpt>
      <trkpt lat="43.51735" lon="6.60772">
        <ele>108.4</ele>
        <time>2019-01-27T10:32:04Z</time>
      </trkpt>
      <trkpt lat="43.51744" lon="6.60772">
        <ele>108.5</ele>
        <time>2019-01-27T10:32:11Z</time>
      </trkpt>
      <trkpt lat="43.51754" lon="6.60772">
        <ele>108.4</ele>
        <time>2019-01-27T10:32:18Z</time>
      </trkpt>
      <trkpt lat="43.51764" lon="6.60773">
        <ele>108.7</ele>
        <time>2019-01-27T10:32:25Z</time>
      </trkpt>
      <trkpt lat="43.51773" lon="6.60776">
        <ele>109</ele>
        <time>2019-01-27T10:32:33Z</time>
      </trkpt>
      <trkpt lat="43.51782" lon="6.60779">
        <ele>109.4</ele>
        <time>2019-01-27T10:32:41Z</time>
      </trkpt>
      <trkpt lat="43.51791" lon="6.60782">
        <ele>110.2</ele>
        <time>2019-01-27T10:32:49Z</time>
      </trkpt>
      <trkpt lat="43.518" lon="6.60785">
        <ele>110.6</ele>
        <time>2019-01-27T10:32:56Z</time>
      </trkpt>
      <trkpt lat="43.51809" lon="6.60791">
        <ele>111.1</ele>
        <time>2019-01-27T10:33:04Z</time>
      </trkpt>
      <trkpt lat="43.51817" lon="6.60798">
        <ele>111.8</ele>
        <time>2019-01-27T10:33:12Z</time>
      </trkpt>
      <trkpt lat="43.51824" lon="6.60808">
        <ele>112.2</ele>
        <time>2019-01-27T10:33:20Z</time>
      </trkpt>
      <trkpt lat="43.51831" lon="6.60815">
        <ele>112.6</ele>
        <time>2019-01-27T10:33:27Z</time>
      </trkpt>
      <trkpt lat="43.5184" lon="6.60822">
        <ele>112.4</ele>
        <time>2019-01-27T10:33:35Z</time>
      </trkpt>
      <trkpt lat="43.51848" lon="6.60829">
        <ele>113.1</ele>
        <time>2019-01-27T10:33:42Z</time>
      </trkpt>
      <trkpt lat="43.51856" lon="6.60835">
        <ele>113.4</ele>
        <time>2019-01-27T10:33:48Z</time>
      </trkpt>
      <trkpt lat="43.51864" lon="6.60842">
        <ele>113.7</ele>
        <time>2019-01-27T10:33:56Z</time>
      </trkpt>
      <trkpt lat="43.51872" lon="6.60849">
        <ele>114.2</ele>
        <time>2019-01-27T10:34:04Z</time>
      </trkpt>
      <trkpt lat="43.51881" lon="6.60853">
        <ele>114.5</ele>
        <time>2019-01-27T10:34:10Z</time>
      </trkpt>
      <trkpt lat="43.51891" lon="6.60854">
        <ele>115</ele>
        <time>2019-01-27T10:34:18Z</time>
      </trkpt>
      <trkpt lat="43.51901" lon="6.60854">
        <ele>115.5</ele>
        <time>2019-01-27T10:34:25Z</time>
      </trkpt>
      <trkpt lat="43.51911" lon="6.60854">
        <ele>115.8</ele>
        <time>2019-01-27T10:34:33Z</time>
      </trkpt>
      <trkpt lat="43.51921" lon="6.60854">
        <ele>115.7</ele>
        <time>2019-01-27T10:34:40Z</time>
      </trkpt>
      <trkpt lat="43.51931" lon="6.60856">
        <ele>116.2</ele>
        <time>2019-01-27T10:34:47Z</time>
      </trkpt>
      <trkpt lat="43.5194" lon="6.60857">
        <ele>116.6</ele>
        <time>2019-01-27T10:34:54Z</time>
      </trkpt>
      <trkpt lat="43.51949" lon="6.60859">
        <ele>116.7</ele>
        <time>2019-01-27T10:35:01Z</time>
      </trkpt>
      <trkpt lat="43.51959" lon="6.60861">
        <ele>117</ele>
        <time>2019-01-27T10:35:08Z</time>
      </trkpt>
      <trkpt lat="43.51968" lon="6.60866">
        <ele>117.4</ele>
        <time>2019-01-27T10:35:16Z</time>
      </trkpt>
      <trkpt lat="43.51977" lon="6.60871">
        <ele>118</ele>
        <time>2019-01-27T10:35:24Z</time>
      </trkpt>
      <trkpt lat="43.51986" lon="6.60876">
        <ele>118.4</ele>
        <time>2019-01-27T10:35:32Z</time>
      </trkpt>
      <trkpt lat="43.51996" lon="6.60877">
        <ele>118.9</ele>
        <time>2019-01-27T10:35:40Z</time>
      </trkpt>
      <trkpt lat="43.52005" lon="6.60881">
        <ele>119.5</ele>
        <time>2019-01-27T10:35:49Z</time>
      </trkpt>
      <trkpt lat="43.52014" lon="6.60886">
        <ele>119.4</ele>
        <time>2019-01-27T10:35:56Z</time>
      </trkpt>
      <trkpt lat="43.52023" lon="6.60891">
        <ele>120</ele>
        <time>2019-01-27T10:36:04Z</time>
      </trkpt>
      <trkpt lat="43.52033" lon="6.60895">
        <ele>120.8</ele>
        <time>2019-01-27T10:36:12Z</time>
      </trkpt>
      <trkpt lat="43.52042" lon="6.60899">
        <ele>120.5</ele>
        <time>2019-01-27T10:36:20Z</time>
      </trkpt>
      <trkpt lat="43.52052" lon="6.60901">
        <ele>121</ele>
        <time>2019-01-27T10:36:27Z</time>
      </trkpt>
      <trkpt lat="43.52061" lon="6.60903">
        <ele>120.9</ele>
        <time>2019-01-27T10:36:35Z</time>
      </trkpt>
      <trkpt lat="43.52071" lon="6.60903">
        <ele>121.5</ele>
        <time>2019-01-27T10:36:42Z</time>
      </trkpt>
      <trkpt lat="43.52081" lon="6.60903">
        <ele>121.9</ele>
        <time>2019-01-27T10:36:50Z</time>
      </trkpt>
      <trkpt lat="43.5209" lon="6.60901">
        <ele>122.2</ele>
        <time>2019-01-27T10:36:57Z</time>
      </trkpt>
      <trkpt lat="43.521" lon="6.60903">
        <ele>122.6</ele>
        <time>2019-01-27T10:37:05Z</time>
      </trkpt>
      <trkpt lat="43.52109" lon="6.6091">
        <ele>122.9</ele>
        <time>2019-01-27T10:37:15Z</time>
      </trkpt>
      <trkpt lat="43.52117" lon="6.60917">
        <ele>123.1</ele>
        <time>2019-01-27T10:37:22Z</time>
      </trkpt>
      <trkpt lat="43.52125" lon="6.60922">
        <ele>123.3</ele>
        <time>2019-01-27T10:37:30Z</time>
      </trkpt>
      <trkpt lat="43.52134" lon="6.60928">
        <ele>123.1</ele>
        <time>2019-01-27T10:37:37Z</time>
      </trkpt>
      <trkpt lat="43.52143" lon="6.60934">
        <ele>122.7</ele>
        <time>2019-01-27T10:37:44Z</time>
      </trkpt>
      <trkpt lat="43.52151" lon="6.6094">
        <ele>122.5</ele>
        <time>2019-01-27T10:37:51Z</time>
      </trkpt>
      <trkpt lat="43.52159" lon="6.60946">
        <ele>122.1</ele>
        <time>2019-01-27T10:37:58Z</time>
      </trkpt>
      <trkpt lat="43.52167" lon="6.60954">
        <ele>121.8</ele>
        <time>2019-01-27T10:38:07Z</time>
      </trkpt>
      <trkpt lat="43.52177" lon="6.60957">
        <ele>121.6</ele>
        <time>2019-01-27T10:38:13Z</time>
      </trkpt>
      <trkpt lat="43.52186" lon="6.60959">
        <ele>121.7</ele>
        <time>2019-01-27T10:38:22Z</time>
      </trkpt>
      <trkpt lat="43.52194" lon="6.60964">
        <ele>121.8</ele>
        <time>2019-01-27T10:38:30Z</time>
      </trkpt>
      <trkpt lat="43.52204" lon="6.60967">
        <ele>121.6</ele>
        <time>2019-01-27T10:38:40Z</time>
      </trkpt>
      <trkpt lat="43.52212" lon="6.60972">
        <ele>121.3</ele>
        <time>2019-01-27T10:38:49Z</time>
      </trkpt>
      <trkpt lat="43.52221" lon="6.60977">
        <ele>121.3</ele>
        <time>2019-01-27T10:39:07Z</time>
      </trkpt>
      <trkpt lat="43.52215" lon="6.60988">
        <ele>122.2</ele>
        <time>2019-01-27T10:41:56Z</time>
      </trkpt>
      <trkpt lat="43.52208" lon="6.60996">
        <ele>122.8</ele>
        <time>2019-01-27T10:42:04Z</time>
      </trkpt>
      <trkpt lat="43.522" lon="6.61004">
        <ele>124.3</ele>
        <time>2019-01-27T10:42:12Z</time>
      </trkpt>
      <trkpt lat="43.52193" lon="6.61015">
        <ele>126.4</ele>
        <time>2019-01-27T10:42:21Z</time>
      </trkpt>
      <trkpt lat="43.52187" lon="6.61026">
        <ele>127.7</ele>
        <time>2019-01-27T10:42:29Z</time>
      </trkpt>
      <trkpt lat="43.52182" lon="6.61038">
        <ele>128.3</ele>
        <time>2019-01-27T10:42:37Z</time>
      </trkpt>
      <trkpt lat="43.52176" lon="6.61048">
        <ele>128.2</ele>
        <time>2019-01-27T10:42:44Z</time>
      </trkpt>
      <trkpt lat="43.52172" lon="6.6106">
        <ele>128.3</ele>
        <time>2019-01-27T10:42:51Z</time>
      </trkpt>
      <trkpt lat="43.52166" lon="6.6107">
        <ele>128.3</ele>
        <time>2019-01-27T10:42:58Z</time>
      </trkpt>
      <trkpt lat="43.52162" lon="6.61081">
        <ele>128.1</ele>
        <time>2019-01-27T10:43:05Z</time>
      </trkpt>
      <trkpt lat="43.52158" lon="6.61093">
        <ele>128.1</ele>
        <time>2019-01-27T10:43:11Z</time>
      </trkpt>
      <trkpt lat="43.52155" lon="6.61105">
        <ele>127.8</ele>
        <time>2019-01-27T10:43:17Z</time>
      </trkpt>
      <trkpt lat="43.52152" lon="6.61117">
        <ele>126.9</ele>
        <time>2019-01-27T10:43:24Z</time>
      </trkpt>
      <trkpt lat="43.52148" lon="6.6113">
        <ele>126.5</ele>
        <time>2019-01-27T10:43:31Z</time>
      </trkpt>
      <trkpt lat="43.52144" lon="6.61142">
        <ele>126.2</ele>
        <time>2019-01-27T10:43:38Z</time>
      </trkpt>
      <trkpt lat="43.52138" lon="6.61153">
        <ele>125.8</ele>
        <time>2019-01-27T10:43:45Z</time>
      </trkpt>
      <trkpt lat="43.52134" lon="6.61165">
        <ele>125.2</ele>
        <time>2019-01-27T10:43:52Z</time>
      </trkpt>
      <trkpt lat="43.52132" lon="6.61178">
        <ele>125.2</ele>
        <time>2019-01-27T10:43:59Z</time>
      </trkpt>
      <trkpt lat="43.5213" lon="6.6119">
        <ele>125</ele>
        <time>2019-01-27T10:44:06Z</time>
      </trkpt>
      <trkpt lat="43.52126" lon="6.61203">
        <ele>124.7</ele>
        <time>2019-01-27T10:44:14Z</time>
      </trkpt>
      <trkpt lat="43.52121" lon="6.61213">
        <ele>124.7</ele>
        <time>2019-01-27T10:44:21Z</time>
      </trkpt>
      <trkpt lat="43.52119" lon="6.61225">
        <ele>125</ele>
        <time>2019-01-27T10:44:28Z</time>
      </trkpt>
      <trkpt lat="43.52118" lon="6.6124">
        <ele>124.9</ele>
        <time>2019-01-27T10:44:36Z</time>
      </trkpt>
      <trkpt lat="43.52114" lon="6.61251">
        <ele>125</ele>
        <time>2019-01-27T10:44:43Z</time>
      </trkpt>
      <trkpt lat="43.5211" lon="6.61263">
        <ele>125</ele>
        <time>2019-01-27T10:44:50Z</time>
      </trkpt>
      <trkpt lat="43.52106" lon="6.61276">
        <ele>125</ele>
        <time>2019-01-27T10:44:57Z</time>
      </trkpt>
      <trkpt lat="43.52103" lon="6.61288">
        <ele>124.6</ele>
        <time>2019-01-27T10:45:04Z</time>
      </trkpt>
      <trkpt lat="43.52099" lon="6.613">
        <ele>124.3</ele>
        <time>2019-01-27T10:45:11Z</time>
      </trkpt>
      <trkpt lat="43.52095" lon="6.61313">
        <ele>123.8</ele>
        <time>2019-01-27T10:45:18Z</time>
      </trkpt>
      <trkpt lat="43.52092" lon="6.61325">
        <ele>123.7</ele>
        <time>2019-01-27T10:45:25Z</time>
      </trkpt>
      <trkpt lat="43.52088" lon="6.61337">
        <ele>123.5</ele>
        <time>2019-01-27T10:45:32Z</time>
      </trkpt>
      <trkpt lat="43.52085" lon="6.61349">
        <ele>123</ele>
        <time>2019-01-27T10:45:39Z</time>
      </trkpt>
      <trkpt lat="43.52081" lon="6.61361">
        <ele>122.4</ele>
        <time>2019-01-27T10:45:46Z</time>
      </trkpt>
      <trkpt lat="43.52077" lon="6.61374">
        <ele>122.1</ele>
        <time>2019-01-27T10:45:53Z</time>
      </trkpt>
      <trkpt lat="43.52072" lon="6.61384">
        <ele>122.6</ele>
        <time>2019-01-27T10:46:00Z</time>
      </trkpt>
      <trkpt lat="43.52068" lon="6.61395">
        <ele>122.6</ele>
        <time>2019-01-27T10:46:07Z</time>
      </trkpt>
      <trkpt lat="43.52064" lon="6.61406">
        <ele>122.3</ele>
        <time>2019-01-27T10:46:15Z</time>
      </trkpt>
      <trkpt lat="43.5206" lon="6.61418">
        <ele>122.1</ele>
        <time>2019-01-27T10:46:23Z</time>
      </trkpt>
      <trkpt lat="43.52058" lon="6.61431">
        <ele>122.2</ele>
        <time>2019-01-27T10:46:31Z</time>
      </trkpt>
      <trkpt lat="43.52066" lon="6.61437">
        <ele>122.7</ele>
        <time>2019-01-27T10:48:20Z</time>
      </trkpt>
      <trkpt lat="43.52076" lon="6.61439">
        <ele>123.1</ele>
        <time>2019-01-27T10:48:28Z</time>
      </trkpt>
      <trkpt lat="43.52085" lon="6.61439">
        <ele>123.6</ele>
        <time>2019-01-27T10:48:36Z</time>
      </trkpt>
      <trkpt lat="43.52095" lon="6.61437">
        <ele>123.9</ele>
        <time>2019-01-27T10:48:44Z</time>
      </trkpt>
      <trkpt lat="43.52104" lon="6.61434">
        <ele>124.5</ele>
        <time>2019-01-27T10:48:52Z</time>
      </trkpt>
      <trkpt lat="43.52113" lon="6.6143">
        <ele>125.3</ele>
        <time>2019-01-27T10:49:01Z</time>
      </trkpt>
      <trkpt lat="43.52122" lon="6.61429">
        <ele>125.9</ele>
        <time>2019-01-27T10:49:08Z</time>
      </trkpt>
      <trkpt lat="43.52131" lon="6.61425">
        <ele>126.6</ele>
        <time>2019-01-27T10:49:15Z</time>
      </trkpt>
      <trkpt lat="43.5214" lon="6.61423">
        <ele>127</ele>
        <time>2019-01-27T10:49:22Z</time>
      </trkpt>
      <trkpt lat="43.52149" lon="6.61417">
        <ele>127.5</ele>
        <time>2019-01-27T10:49:29Z</time>
      </trkpt>
      <trkpt lat="43.52158" lon="6.6141">
        <ele>128.4</ele>
        <time>2019-01-27T10:49:37Z</time>
      </trkpt>
      <trkpt lat="43.52168" lon="6.61405">
        <ele>128.7</ele>
        <time>2019-01-27T10:49:45Z</time>
      </trkpt>
      <trkpt lat="43.52177" lon="6.614">
        <ele>128.9</ele>
        <time>2019-01-27T10:49:53Z</time>
      </trkpt>
      <trkpt lat="43.52186" lon="6.61395">
        <ele>129.2</ele>
        <time>2019-01-27T10:50:00Z</time>
      </trkpt>
      <trkpt lat="43.52195" lon="6.61391">
        <ele>129.6</ele>
        <time>2019-01-27T10:50:08Z</time>
      </trkpt>
      <trkpt lat="43.52204" lon="6.61388">
        <ele>130.3</ele>
        <time>2019-01-27T10:50:17Z</time>
      </trkpt>
      <trkpt lat="43.52212" lon="6.61382">
        <ele>130.5</ele>
        <time>2019-01-27T10:50:24Z</time>
      </trkpt>
      <trkpt lat="43.52221" lon="6.61375">
        <ele>131</ele>
        <time>2019-01-27T10:50:31Z</time>
      </trkpt>
      <trkpt lat="43.5223" lon="6.61371">
        <ele>131.3</ele>
        <time>2019-01-27T10:50:37Z</time>
      </trkpt>
      <trkpt lat="43.52241" lon="6.61369">
        <ele>131.4</ele>
        <time>2019-01-27T10:50:45Z</time>
      </trkpt>
      <trkpt lat="43.5225" lon="6.61365">
        <ele>132.2</ele>
        <time>2019-01-27T10:50:53Z</time>
      </trkpt>
      <trkpt lat="43.5226" lon="6.61362">
        <ele>133.6</ele>
        <time>2019-01-27T10:51:02Z</time>
      </trkpt>
      <trkpt lat="43.5227" lon="6.61359">
        <ele>134.4</ele>
        <time>2019-01-27T10:51:10Z</time>
      </trkpt>
      <trkpt lat="43.5228" lon="6.61358">
        <ele>135.5</ele>
        <time>2019-01-27T10:51:20Z</time>
      </trkpt>
      <trkpt lat="43.52289" lon="6.61358">
        <ele>135.8</ele>
        <time>2019-01-27T10:51:28Z</time>
      </trkpt>
      <trkpt lat="43.52298" lon="6.6136">
        <ele>136.2</ele>
        <time>2019-01-27T10:51:35Z</time>
      </trkpt>
      <trkpt lat="43.52307" lon="6.61365">
        <ele>136.3</ele>
        <time>2019-01-27T10:51:44Z</time>
      </trkpt>
      <trkpt lat="43.52317" lon="6.61369">
        <ele>137</ele>
        <time>2019-01-27T10:51:52Z</time>
      </trkpt>
      <trkpt lat="43.52326" lon="6.61369">
        <ele>137.7</ele>
        <time>2019-01-27T10:52:00Z</time>
      </trkpt>
      <trkpt lat="43.52335" lon="6.61367">
        <ele>138.6</ele>
        <time>2019-01-27T10:52:08Z</time>
      </trkpt>
      <trkpt lat="43.52345" lon="6.61369">
        <ele>139</ele>
        <time>2019-01-27T10:52:16Z</time>
      </trkpt>
      <trkpt lat="43.52354" lon="6.61371">
        <ele>139.9</ele>
        <time>2019-01-27T10:52:24Z</time>
      </trkpt>
      <trkpt lat="43.52364" lon="6.61371">
        <ele>140.2</ele>
        <time>2019-01-27T10:52:32Z</time>
      </trkpt>
      <trkpt lat="43.52374" lon="6.61372">
        <ele>141.3</ele>
        <time>2019-01-27T10:52:41Z</time>
      </trkpt>
      <trkpt lat="43.52383" lon="6.61372">
        <ele>141.7</ele>
        <time>2019-01-27T10:52:50Z</time>
      </trkpt>
      <trkpt lat="43.52393" lon="6.61372">
        <ele>142.3</ele>
        <time>2019-01-27T10:52:58Z</time>
      </trkpt>
      <trkpt lat="43.52402" lon="6.61373">
        <ele>143.1</ele>
        <time>2019-01-27T10:53:07Z</time>
      </trkpt>
      <trkpt lat="43.52411" lon="6.61377">
        <ele>144.1</ele>
        <time>2019-01-27T10:53:15Z</time>
      </trkpt>
      <trkpt lat="43.52421" lon="6.61379">
        <ele>145</ele>
        <time>2019-01-27T10:53:24Z</time>
      </trkpt>
      <trkpt lat="43.52431" lon="6.6138">
        <ele>145.6</ele>
        <time>2019-01-27T10:53:32Z</time>
      </trkpt>
      <trkpt lat="43.5244" lon="6.61381">
        <ele>146.4</ele>
        <time>2019-01-27T10:53:40Z</time>
      </trkpt>
      <trkpt lat="43.52449" lon="6.61384">
        <ele>146.8</ele>
        <time>2019-01-27T10:53:48Z</time>
      </trkpt>
      <trkpt lat="43.52458" lon="6.6139">
        <ele>147.6</ele>
        <time>2019-01-27T10:53:56Z</time>
      </trkpt>
      <trkpt lat="43.52466" lon="6.61394">
        <ele>148.1</ele>
        <time>2019-01-27T10:54:07Z</time>
      </trkpt>
      <trkpt lat="43.52476" lon="6.61395">
        <ele>149</ele>
        <time>2019-01-27T10:54:17Z</time>
      </trkpt>
      <trkpt lat="43.52485" lon="6.61398">
        <ele>149.8</ele>
        <time>2019-01-27T10:54:26Z</time>
      </trkpt>
      <trkpt lat="43.52494" lon="6.61404">
        <ele>150.4</ele>
        <time>2019-01-27T10:54:35Z</time>
      </trkpt>
      <trkpt lat="43.52502" lon="6.61409">
        <ele>151.3</ele>
        <time>2019-01-27T10:54:45Z</time>
      </trkpt>
      <trkpt lat="43.52512" lon="6.61412">
        <ele>152.5</ele>
        <time>2019-01-27T10:54:57Z</time>
      </trkpt>
      <trkpt lat="43.52522" lon="6.61414">
        <ele>154.3</ele>
        <time>2019-01-27T10:55:07Z</time>
      </trkpt>
      <trkpt lat="43.52532" lon="6.61418">
        <ele>155.7</ele>
        <time>2019-01-27T10:55:16Z</time>
      </trkpt>
      <trkpt lat="43.52541" lon="6.61425">
        <ele>156.4</ele>
        <time>2019-01-27T10:55:26Z</time>
      </trkpt>
      <trkpt lat="43.5255" lon="6.61429">
        <ele>157</ele>
        <time>2019-01-27T10:55:34Z</time>
      </trkpt>
      <trkpt lat="43.52557" lon="6.61439">
        <ele>157.7</ele>
        <time>2019-01-27T10:55:44Z</time>
      </trkpt>
      <trkpt lat="43.52564" lon="6.61447">
        <ele>158.1</ele>
        <time>2019-01-27T10:56:01Z</time>
      </trkpt>
      <trkpt lat="43.52572" lon="6.61453">
        <ele>158.6</ele>
        <time>2019-01-27T10:57:22Z</time>
      </trkpt>
      <trkpt lat="43.52579" lon="6.61462">
        <ele>156.4</ele>
        <time>2019-01-27T10:57:36Z</time>
      </trkpt>
      <trkpt lat="43.52573" lon="6.61473">
        <ele>156.9</ele>
        <time>2019-01-27T10:57:51Z</time>
      </trkpt>
      <trkpt lat="43.52574" lon="6.61486">
        <ele>158</ele>
        <time>2019-01-27T10:58:03Z</time>
      </trkpt>
      <trkpt lat="43.52582" lon="6.61493">
        <ele>159.4</ele>
        <time>2019-01-27T10:58:15Z</time>
      </trkpt>
      <trkpt lat="43.5259" lon="6.61498">
        <ele>160.2</ele>
        <time>2019-01-27T10:58:22Z</time>
      </trkpt>
      <trkpt lat="43.52599" lon="6.615">
        <ele>161.4</ele>
        <time>2019-01-27T10:58:32Z</time>
      </trkpt>
      <trkpt lat="43.52608" lon="6.61506">
        <ele>162.1</ele>
        <time>2019-01-27T10:58:41Z</time>
      </trkpt>
      <trkpt lat="43.52618" lon="6.61503">
        <ele>162.6</ele>
        <time>2019-01-27T10:58:54Z</time>
      </trkpt>
      <trkpt lat="43.52627" lon="6.61501">
        <ele>162.5</ele>
        <time>2019-01-27T10:59:02Z</time>
      </trkpt>
      <trkpt lat="43.52637" lon="6.61502">
        <ele>164.1</ele>
        <time>2019-01-27T10:59:18Z</time>
      </trkpt>
      <trkpt lat="43.52645" lon="6.61507">
        <ele>167.4</ele>
        <time>2019-01-27T10:59:37Z</time>
      </trkpt>
      <trkpt lat="43.52655" lon="6.61506">
        <ele>170</ele>
        <time>2019-01-27T10:59:51Z</time>
      </trkpt>
      <trkpt lat="43.52664" lon="6.61511">
        <ele>172.9</ele>
        <time>2019-01-27T11:00:06Z</time>
      </trkpt>
      <trkpt lat="43.52672" lon="6.61517">
        <ele>176.5</ele>
        <time>2019-01-27T11:00:23Z</time>
      </trkpt>
      <trkpt lat="43.52682" lon="6.61521">
        <ele>180.8</ele>
        <time>2019-01-27T11:00:39Z</time>
      </trkpt>
      <trkpt lat="43.52691" lon="6.61525">
        <ele>184.7</ele>
        <time>2019-01-27T11:00:54Z</time>
      </trkpt>
      <trkpt lat="43.527" lon="6.61526">
        <ele>188.4</ele>
        <time>2019-01-27T11:01:17Z</time>
      </trkpt>
      <trkpt lat="43.5271" lon="6.61526">
        <ele>191</ele>
        <time>2019-01-27T11:01:31Z</time>
      </trkpt>
      <trkpt lat="43.52719" lon="6.61524">
        <ele>193.3</ele>
        <time>2019-01-27T11:01:44Z</time>
      </trkpt>
      <trkpt lat="43.52728" lon="6.61525">
        <ele>197.9</ele>
        <time>2019-01-27T11:01:59Z</time>
      </trkpt>
      <trkpt lat="43.52738" lon="6.61526">
        <ele>198.7</ele>
        <time>2019-01-27T11:02:14Z</time>
      </trkpt>
      <trkpt lat="43.52747" lon="6.61524">
        <ele>199.1</ele>
        <time>2019-01-27T11:02:25Z</time>
      </trkpt>
      <trkpt lat="43.52757" lon="6.61525">
        <ele>199.8</ele>
        <time>2019-01-27T11:02:37Z</time>
      </trkpt>
      <trkpt lat="43.52765" lon="6.61527">
        <ele>201.2</ele>
        <time>2019-01-27T11:02:48Z</time>
      </trkpt>
      <trkpt lat="43.52775" lon="6.61529">
        <ele>203.7</ele>
        <time>2019-01-27T11:03:02Z</time>
      </trkpt>
      <trkpt lat="43.52784" lon="6.6153">
        <ele>207</ele>
        <time>2019-01-27T11:03:18Z</time>
      </trkpt>
      <trkpt lat="43.52793" lon="6.61527">
        <ele>209.2</ele>
        <time>2019-01-27T11:03:30Z</time>
      </trkpt>
      <trkpt lat="43.52803" lon="6.61525">
        <ele>210.9</ele>
        <time>2019-01-27T11:03:43Z</time>
      </trkpt>
      <trkpt lat="43.52811" lon="6.6152">
        <ele>213.1</ele>
        <time>2019-01-27T11:03:57Z</time>
      </trkpt>
      <trkpt lat="43.52819" lon="6.61514">
        <ele>214.6</ele>
        <time>2019-01-27T11:04:23Z</time>
      </trkpt>
      <trkpt lat="43.52827" lon="6.61508">
        <ele>216.2</ele>
        <time>2019-01-27T11:04:34Z</time>
      </trkpt>
      <trkpt lat="43.52835" lon="6.61502">
        <ele>217.5</ele>
        <time>2019-01-27T11:04:45Z</time>
      </trkpt>
      <trkpt lat="43.52843" lon="6.61496">
        <ele>219.6</ele>
        <time>2019-01-27T11:05:01Z</time>
      </trkpt>
      <trkpt lat="43.52852" lon="6.61492">
        <ele>221.8</ele>
        <time>2019-01-27T11:05:28Z</time>
      </trkpt>
      <trkpt lat="43.52861" lon="6.61489">
        <ele>224.7</ele>
        <time>2019-01-27T11:05:42Z</time>
      </trkpt>
      <trkpt lat="43.52868" lon="6.61481">
        <ele>226.6</ele>
        <time>2019-01-27T11:05:53Z</time>
      </trkpt>
      <trkpt lat="43.52876" lon="6.61474">
        <ele>228.5</ele>
        <time>2019-01-27T11:06:03Z</time>
      </trkpt>
      <trkpt lat="43.52884" lon="6.61467">
        <ele>231</ele>
        <time>2019-01-27T11:06:17Z</time>
      </trkpt>
      <trkpt lat="43.5289" lon="6.61458">
        <ele>233.2</ele>
        <time>2019-01-27T11:06:28Z</time>
      </trkpt>
      <trkpt lat="43.52897" lon="6.61449">
        <ele>236.4</ele>
        <time>2019-01-27T11:06:40Z</time>
      </trkpt>
      <trkpt lat="43.52902" lon="6.61439">
        <ele>238.3</ele>
        <time>2019-01-27T11:06:53Z</time>
      </trkpt>
      <trkpt lat="43.52909" lon="6.6143">
        <ele>241.7</ele>
        <time>2019-01-27T11:07:06Z</time>
      </trkpt>
      <trkpt lat="43.52914" lon="6.6142">
        <ele>244.5</ele>
        <time>2019-01-27T11:07:20Z</time>
      </trkpt>
      <trkpt lat="43.52922" lon="6.61411">
        <ele>246.6</ele>
        <time>2019-01-27T11:07:33Z</time>
      </trkpt>
      <trkpt lat="43.52929" lon="6.61403">
        <ele>250.8</ele>
        <time>2019-01-27T11:07:50Z</time>
      </trkpt>
      <trkpt lat="43.52929" lon="6.61391">
        <ele>251.6</ele>
        <time>2019-01-27T11:10:44Z</time>
      </trkpt>
      <trkpt lat="43.52938" lon="6.6139">
        <ele>253.6</ele>
        <time>2019-01-27T11:23:26Z</time>
      </trkpt>
      <trkpt lat="43.52947" lon="6.61387">
        <ele>254</ele>
        <time>2019-01-27T11:23:37Z</time>
      </trkpt>
      <trkpt lat="43.52958" lon="6.61387">
        <ele>255.7</ele>
        <time>2019-01-27T11:23:49Z</time>
      </trkpt>
      <trkpt lat="43.52967" lon="6.61383">
        <ele>257.1</ele>
        <time>2019-01-27T11:24:09Z</time>
      </trkpt>
      <trkpt lat="43.52975" lon="6.61377">
        <ele>259</ele>
        <time>2019-01-27T11:24:34Z</time>
      </trkpt>
      <trkpt lat="43.52985" lon="6.61375">
        <ele>263.3</ele>
        <time>2019-01-27T11:24:56Z</time>
      </trkpt>
      <trkpt lat="43.52995" lon="6.61372">
        <ele>266.7</ele>
        <time>2019-01-27T11:25:14Z</time>
      </trkpt>
      <trkpt lat="43.53004" lon="6.6137">
        <ele>270.3</ele>
        <time>2019-01-27T11:25:43Z</time>
      </trkpt>
      <trkpt lat="43.53013" lon="6.61368">
        <ele>276.2</ele>
        <time>2019-01-27T11:26:19Z</time>
      </trkpt>
      <trkpt lat="43.53022" lon="6.61371">
        <ele>279.5</ele>
        <time>2019-01-27T11:26:47Z</time>
      </trkpt>
      <trkpt lat="43.53031" lon="6.61374">
        <ele>281.3</ele>
        <time>2019-01-27T11:27:04Z</time>
      </trkpt>
      <trkpt lat="43.5304" lon="6.61373">
        <ele>283.2</ele>
        <time>2019-01-27T11:27:18Z</time>
      </trkpt>
      <trkpt lat="43.53049" lon="6.61369">
        <ele>285.2</ele>
        <time>2019-01-27T11:27:34Z</time>
      </trkpt>
      <trkpt lat="43.53058" lon="6.61366">
        <ele>287.4</ele>
        <time>2019-01-27T11:27:48Z</time>
      </trkpt>
      <trkpt lat="43.53067" lon="6.6136">
        <ele>289.5</ele>
        <time>2019-01-27T11:28:02Z</time>
      </trkpt>
      <trkpt lat="43.53074" lon="6.61353">
        <ele>290</ele>
        <time>2019-01-27T11:28:16Z</time>
      </trkpt>
      <trkpt lat="43.53083" lon="6.61351">
        <ele>290.4</ele>
        <time>2019-01-27T11:28:31Z</time>
      </trkpt>
      <trkpt lat="43.53093" lon="6.61347">
        <ele>290.5</ele>
        <time>2019-01-27T11:28:41Z</time>
      </trkpt>
      <trkpt lat="43.53101" lon="6.61345">
        <ele>291.1</ele>
        <time>2019-01-27T11:28:55Z</time>
      </trkpt>
      <trkpt lat="43.53111" lon="6.6134">
        <ele>292.3</ele>
        <time>2019-01-27T11:29:08Z</time>
      </trkpt>
      <trkpt lat="43.5312" lon="6.61338">
        <ele>293.4</ele>
        <time>2019-01-27T11:29:21Z</time>
      </trkpt>
      <trkpt lat="43.53127" lon="6.61331">
        <ele>296.3</ele>
        <time>2019-01-27T11:29:43Z</time>
      </trkpt>
      <trkpt lat="43.53135" lon="6.61322">
        <ele>299</ele>
        <time>2019-01-27T11:30:00Z</time>
      </trkpt>
      <trkpt lat="43.53143" lon="6.61314">
        <ele>301.1</ele>
        <time>2019-01-27T11:30:17Z</time>
      </trkpt>
      <trkpt lat="43.53151" lon="6.61308">
        <ele>304.6</ele>
        <time>2019-01-27T11:30:43Z</time>
      </trkpt>
      <trkpt lat="43.53161" lon="6.61307">
        <ele>308</ele>
        <time>2019-01-27T11:31:05Z</time>
      </trkpt>
      <trkpt lat="43.53168" lon="6.61298">
        <ele>309.6</ele>
        <time>2019-01-27T11:31:18Z</time>
      </trkpt>
      <trkpt lat="43.53177" lon="6.61294">
        <ele>311.7</ele>
        <time>2019-01-27T11:31:32Z</time>
      </trkpt>
      <trkpt lat="43.53186" lon="6.6129">
        <ele>314.3</ele>
        <time>2019-01-27T11:31:51Z</time>
      </trkpt>
      <trkpt lat="43.53195" lon="6.6129">
        <ele>316.2</ele>
        <time>2019-01-27T11:32:09Z</time>
      </trkpt>
      <trkpt lat="43.53203" lon="6.61285">
        <ele>318.3</ele>
        <time>2019-01-27T11:32:26Z</time>
      </trkpt>
      <trkpt lat="43.53212" lon="6.61281">
        <ele>320.6</ele>
        <time>2019-01-27T11:32:41Z</time>
      </trkpt>
      <trkpt lat="43.53222" lon="6.61278">
        <ele>322.4</ele>
        <time>2019-01-27T11:32:54Z</time>
      </trkpt>
      <trkpt lat="43.5323" lon="6.61273">
        <ele>324.3</ele>
        <time>2019-01-27T11:33:12Z</time>
      </trkpt>
      <trkpt lat="43.5324" lon="6.61271">
        <ele>325.5</ele>
        <time>2019-01-27T11:33:27Z</time>
      </trkpt>
      <trkpt lat="43.53248" lon="6.61266">
        <ele>327.8</ele>
        <time>2019-01-27T11:33:55Z</time>
      </trkpt>
      <trkpt lat="43.53257" lon="6.61261">
        <ele>329.3</ele>
        <time>2019-01-27T11:34:05Z</time>
      </trkpt>
      <trkpt lat="43.53264" lon="6.61253">
        <ele>331.9</ele>
        <time>2019-01-27T11:34:18Z</time>
      </trkpt>
      <trkpt lat="43.53272" lon="6.61247">
        <ele>334</ele>
        <time>2019-01-27T11:34:36Z</time>
      </trkpt>
      <trkpt lat="43.5328" lon="6.61241">
        <ele>337.1</ele>
        <time>2019-01-27T11:34:55Z</time>
      </trkpt>
      <trkpt lat="43.53287" lon="6.61233">
        <ele>339.5</ele>
        <time>2019-01-27T11:35:14Z</time>
      </trkpt>
      <trkpt lat="43.53294" lon="6.61225">
        <ele>342.3</ele>
        <time>2019-01-27T11:35:31Z</time>
      </trkpt>
      <trkpt lat="43.53302" lon="6.61217">
        <ele>344.7</ele>
        <time>2019-01-27T11:35:47Z</time>
      </trkpt>
      <trkpt lat="43.5331" lon="6.6121">
        <ele>347.1</ele>
        <time>2019-01-27T11:36:03Z</time>
      </trkpt>
      <trkpt lat="43.53317" lon="6.61203">
        <ele>348.9</ele>
        <time>2019-01-27T11:36:17Z</time>
      </trkpt>
      <trkpt lat="43.53325" lon="6.61195">
        <ele>350.1</ele>
        <time>2019-01-27T11:36:30Z</time>
      </trkpt>
      <trkpt lat="43.53331" lon="6.61185">
        <ele>351.3</ele>
        <time>2019-01-27T11:36:39Z</time>
      </trkpt>
      <trkpt lat="43.53337" lon="6.61175">
        <ele>351.8</ele>
        <time>2019-01-27T11:36:49Z</time>
      </trkpt>
      <trkpt lat="43.53343" lon="6.61164">
        <ele>351.7</ele>
        <time>2019-01-27T11:36:59Z</time>
      </trkpt>
      <trkpt lat="43.53352" lon="6.61158">
        <ele>351.3</ele>
        <time>2019-01-27T11:37:10Z</time>
      </trkpt>
      <trkpt lat="43.53359" lon="6.61149">
        <ele>351.2</ele>
        <time>2019-01-27T11:37:19Z</time>
      </trkpt>
      <trkpt lat="43.53366" lon="6.6114">
        <ele>350.3</ele>
        <time>2019-01-27T11:37:28Z</time>
      </trkpt>
      <trkpt lat="43.53375" lon="6.61139">
        <ele>349.8</ele>
        <time>2019-01-27T11:37:37Z</time>
      </trkpt>
      <trkpt lat="43.53382" lon="6.61131">
        <ele>349.8</ele>
        <time>2019-01-27T11:37:53Z</time>
      </trkpt>
      <trkpt lat="43.53385" lon="6.61118">
        <ele>350.3</ele>
        <time>2019-01-27T11:38:54Z</time>
      </trkpt>
      <trkpt lat="43.53391" lon="6.61108">
        <ele>349.1</ele>
        <time>2019-01-27T11:39:17Z</time>
      </trkpt>
      <trkpt lat="43.53393" lon="6.61096">
        <ele>348.8</ele>
        <time>2019-01-27T11:39:25Z</time>
      </trkpt>
      <trkpt lat="43.53395" lon="6.61084">
        <ele>348.9</ele>
        <time>2019-01-27T11:39:33Z</time>
      </trkpt>
      <trkpt lat="43.53392" lon="6.61072">
        <ele>349.8</ele>
        <time>2019-01-27T11:39:45Z</time>
      </trkpt>
      <trkpt lat="43.53388" lon="6.6106">
        <ele>350.5</ele>
        <time>2019-01-27T11:39:55Z</time>
      </trkpt>
      <trkpt lat="43.53384" lon="6.61047">
        <ele>351.1</ele>
        <time>2019-01-27T11:40:06Z</time>
      </trkpt>
      <trkpt lat="43.53382" lon="6.61034">
        <ele>352.1</ele>
        <time>2019-01-27T11:40:16Z</time>
      </trkpt>
      <trkpt lat="43.53379" lon="6.61021">
        <ele>353.2</ele>
        <time>2019-01-27T11:40:31Z</time>
      </trkpt>
      <trkpt lat="43.53379" lon="6.61008">
        <ele>354.4</ele>
        <time>2019-01-27T11:40:40Z</time>
      </trkpt>
      <trkpt lat="43.53377" lon="6.60995">
        <ele>355.7</ele>
        <time>2019-01-27T11:40:49Z</time>
      </trkpt>
      <trkpt lat="43.53379" lon="6.60982">
        <ele>355.7</ele>
        <time>2019-01-27T11:40:56Z</time>
      </trkpt>
      <trkpt lat="43.53379" lon="6.60969">
        <ele>356</ele>
        <time>2019-01-27T11:41:03Z</time>
      </trkpt>
      <trkpt lat="43.53379" lon="6.60956">
        <ele>355.9</ele>
        <time>2019-01-27T11:41:11Z</time>
      </trkpt>
      <trkpt lat="43.53379" lon="6.60944">
        <ele>355.6</ele>
        <time>2019-01-27T11:41:19Z</time>
      </trkpt>
      <trkpt lat="43.53378" lon="6.60931">
        <ele>355.3</ele>
        <time>2019-01-27T11:41:27Z</time>
      </trkpt>
      <trkpt lat="43.53376" lon="6.60919">
        <ele>355</ele>
        <time>2019-01-27T11:41:35Z</time>
      </trkpt>
      <trkpt lat="43.53372" lon="6.60908">
        <ele>354</ele>
        <time>2019-01-27T11:41:43Z</time>
      </trkpt>
      <trkpt lat="43.53369" lon="6.60896">
        <ele>353.5</ele>
        <time>2019-01-27T11:41:52Z</time>
      </trkpt>
      <trkpt lat="43.53367" lon="6.60882">
        <ele>353.5</ele>
        <time>2019-01-27T11:42:01Z</time>
      </trkpt>
      <trkpt lat="43.53362" lon="6.60871">
        <ele>352.6</ele>
        <time>2019-01-27T11:42:11Z</time>
      </trkpt>
      <trkpt lat="43.53362" lon="6.60858">
        <ele>351.9</ele>
        <time>2019-01-27T11:42:19Z</time>
      </trkpt>
      <trkpt lat="43.53361" lon="6.60845">
        <ele>352.1</ele>
        <time>2019-01-27T11:42:27Z</time>
      </trkpt>
      <trkpt lat="43.53359" lon="6.60832">
        <ele>352</ele>
        <time>2019-01-27T11:42:35Z</time>
      </trkpt>
      <trkpt lat="43.53357" lon="6.60818">
        <ele>351.6</ele>
        <time>2019-01-27T11:42:42Z</time>
      </trkpt>
      <trkpt lat="43.53356" lon="6.60806">
        <ele>350.1</ele>
        <time>2019-01-27T11:42:50Z</time>
      </trkpt>
      <trkpt lat="43.53352" lon="6.60794">
        <ele>349.1</ele>
        <time>2019-01-27T11:42:58Z</time>
      </trkpt>
      <trkpt lat="43.53347" lon="6.60782">
        <ele>348.6</ele>
        <time>2019-01-27T11:43:07Z</time>
      </trkpt>
      <trkpt lat="43.53342" lon="6.6077">
        <ele>347.9</ele>
        <time>2019-01-27T11:43:15Z</time>
      </trkpt>
      <trkpt lat="43.5334" lon="6.60756">
        <ele>347.5</ele>
        <time>2019-01-27T11:43:23Z</time>
      </trkpt>
      <trkpt lat="43.53339" lon="6.60743">
        <ele>347.1</ele>
        <time>2019-01-27T11:43:31Z</time>
      </trkpt>
      <trkpt lat="43.53342" lon="6.60731">
        <ele>346.8</ele>
        <time>2019-01-27T11:43:39Z</time>
      </trkpt>
      <trkpt lat="43.53347" lon="6.6072">
        <ele>346.6</ele>
        <time>2019-01-27T11:43:47Z</time>
      </trkpt>
      <trkpt lat="43.53351" lon="6.60708">
        <ele>346.1</ele>
        <time>2019-01-27T11:43:55Z</time>
      </trkpt>
      <trkpt lat="43.53357" lon="6.60697">
        <ele>345.3</ele>
        <time>2019-01-27T11:44:04Z</time>
      </trkpt>
      <trkpt lat="43.53365" lon="6.60692">
        <ele>344.8</ele>
        <time>2019-01-27T11:44:12Z</time>
      </trkpt>
      <trkpt lat="43.53375" lon="6.60689">
        <ele>344.3</ele>
        <time>2019-01-27T11:44:20Z</time>
      </trkpt>
      <trkpt lat="43.53384" lon="6.6069">
        <ele>343.4</ele>
        <time>2019-01-27T11:44:33Z</time>
      </trkpt>
      <trkpt lat="43.53392" lon="6.60685">
        <ele>343.1</ele>
        <time>2019-01-27T11:44:43Z</time>
      </trkpt>
      <trkpt lat="43.53402" lon="6.60687">
        <ele>342.4</ele>
        <time>2019-01-27T11:44:53Z</time>
      </trkpt>
      <trkpt lat="43.53411" lon="6.60691">
        <ele>341.8</ele>
        <time>2019-01-27T11:45:02Z</time>
      </trkpt>
      <trkpt lat="43.53419" lon="6.60697">
        <ele>341.3</ele>
        <time>2019-01-27T11:45:11Z</time>
      </trkpt>
      <trkpt lat="43.53428" lon="6.60702">
        <ele>341.7</ele>
        <time>2019-01-27T11:45:22Z</time>
      </trkpt>
      <trkpt lat="43.53436" lon="6.60709">
        <ele>343.1</ele>
        <time>2019-01-27T11:45:37Z</time>
      </trkpt>
      <trkpt lat="43.53443" lon="6.60716">
        <ele>344</ele>
        <time>2019-01-27T11:45:48Z</time>
      </trkpt>
      <trkpt lat="43.53451" lon="6.60722">
        <ele>344.5</ele>
        <time>2019-01-27T11:45:56Z</time>
      </trkpt>
      <trkpt lat="43.5346" lon="6.60727">
        <ele>344.5</ele>
        <time>2019-01-27T11:46:03Z</time>
      </trkpt>
      <trkpt lat="43.53469" lon="6.60731">
        <ele>345.1</ele>
        <time>2019-01-27T11:46:11Z</time>
      </trkpt>
      <trkpt lat="43.53477" lon="6.60737">
        <ele>345.8</ele>
        <time>2019-01-27T11:46:19Z</time>
      </trkpt>
      <trkpt lat="43.53486" lon="6.60742">
        <ele>346.5</ele>
        <time>2019-01-27T11:46:30Z</time>
      </trkpt>
      <trkpt lat="43.53495" lon="6.60747">
        <ele>347.4</ele>
        <time>2019-01-27T11:46:39Z</time>
      </trkpt>
      <trkpt lat="43.53504" lon="6.60752">
        <ele>347.9</ele>
        <time>2019-01-27T11:46:49Z</time>
      </trkpt>
      <trkpt lat="43.53512" lon="6.60758">
        <ele>349.3</ele>
        <time>2019-01-27T11:46:58Z</time>
      </trkpt>
      <trkpt lat="43.53521" lon="6.60761">
        <ele>350.3</ele>
        <time>2019-01-27T11:47:06Z</time>
      </trkpt>
      <trkpt lat="43.53528" lon="6.60768">
        <ele>351.6</ele>
        <time>2019-01-27T11:47:15Z</time>
      </trkpt>
      <trkpt lat="43.53537" lon="6.60771">
        <ele>353.2</ele>
        <time>2019-01-27T11:47:23Z</time>
      </trkpt>
      <trkpt lat="43.53539" lon="6.60758">
        <ele>354</ele>
        <time>2019-01-27T11:47:39Z</time>
      </trkpt>
      <trkpt lat="43.53539" lon="6.60745">
        <ele>353.5</ele>
        <time>2019-01-27T11:47:49Z</time>
      </trkpt>
      <trkpt lat="43.5354" lon="6.60732">
        <ele>353.6</ele>
        <time>2019-01-27T11:47:57Z</time>
      </trkpt>
      <trkpt lat="43.53542" lon="6.6072">
        <ele>354</ele>
        <time>2019-01-27T11:48:05Z</time>
      </trkpt>
      <trkpt lat="43.53542" lon="6.60707">
        <ele>353.8</ele>
        <time>2019-01-27T11:48:14Z</time>
      </trkpt>
      <trkpt lat="43.5355" lon="6.60699">
        <ele>353.9</ele>
        <time>2019-01-27T11:48:23Z</time>
      </trkpt>
      <trkpt lat="43.5356" lon="6.60695">
        <ele>355</ele>
        <time>2019-01-27T11:48:34Z</time>
      </trkpt>
      <trkpt lat="43.53569" lon="6.60695">
        <ele>357.4</ele>
        <time>2019-01-27T11:48:45Z</time>
      </trkpt>
      <trkpt lat="43.53577" lon="6.60703">
        <ele>360.1</ele>
        <time>2019-01-27T11:49:01Z</time>
      </trkpt>
      <trkpt lat="43.53578" lon="6.60716">
        <ele>360.6</ele>
        <time>2019-01-27T11:49:12Z</time>
      </trkpt>
      <trkpt lat="43.53581" lon="6.60729">
        <ele>359.9</ele>
        <time>2019-01-27T11:49:21Z</time>
      </trkpt>
      <trkpt lat="43.53585" lon="6.60741">
        <ele>360.5</ele>
        <time>2019-01-27T11:49:29Z</time>
      </trkpt>
      <trkpt lat="43.53594" lon="6.60745">
        <ele>361.6</ele>
        <time>2019-01-27T11:49:36Z</time>
      </trkpt>
      <trkpt lat="43.53603" lon="6.60746">
        <ele>363.7</ele>
        <time>2019-01-27T11:49:45Z</time>
      </trkpt>
      <trkpt lat="43.53612" lon="6.60741">
        <ele>365.2</ele>
        <time>2019-01-27T11:49:55Z</time>
      </trkpt>
      <trkpt lat="43.53621" lon="6.60737">
        <ele>367.4</ele>
        <time>2019-01-27T11:50:05Z</time>
      </trkpt>
      <trkpt lat="43.5363" lon="6.60734">
        <ele>369.1</ele>
        <time>2019-01-27T11:50:17Z</time>
      </trkpt>
      <trkpt lat="43.53639" lon="6.60732">
        <ele>371.8</ele>
        <time>2019-01-27T11:50:29Z</time>
      </trkpt>
      <trkpt lat="43.53645" lon="6.60742">
        <ele>373.9</ele>
        <time>2019-01-27T11:50:44Z</time>
      </trkpt>
      <trkpt lat="43.53651" lon="6.60753">
        <ele>375.9</ele>
        <time>2019-01-27T11:50:54Z</time>
      </trkpt>
      <trkpt lat="43.53655" lon="6.60764">
        <ele>377.1</ele>
        <time>2019-01-27T11:51:04Z</time>
      </trkpt>
      <trkpt lat="43.53657" lon="6.60777">
        <ele>378.8</ele>
        <time>2019-01-27T11:51:21Z</time>
      </trkpt>
      <trkpt lat="43.53657" lon="6.6079">
        <ele>379.7</ele>
        <time>2019-01-27T11:51:33Z</time>
      </trkpt>
      <trkpt lat="43.53662" lon="6.608">
        <ele>380.8</ele>
        <time>2019-01-27T11:51:43Z</time>
      </trkpt>
      <trkpt lat="43.53671" lon="6.60804">
        <ele>381.8</ele>
        <time>2019-01-27T11:51:50Z</time>
      </trkpt>
      <trkpt lat="43.5368" lon="6.608">
        <ele>382.9</ele>
        <time>2019-01-27T11:51:57Z</time>
      </trkpt>
      <trkpt lat="43.53686" lon="6.6079">
        <ele>384.3</ele>
        <time>2019-01-27T11:52:07Z</time>
      </trkpt>
      <trkpt lat="43.53693" lon="6.60781">
        <ele>385.1</ele>
        <time>2019-01-27T11:52:15Z</time>
      </trkpt>
      <trkpt lat="43.53699" lon="6.60772">
        <ele>385.9</ele>
        <time>2019-01-27T11:52:23Z</time>
      </trkpt>
      <trkpt lat="43.53704" lon="6.60762">
        <ele>387.2</ele>
        <time>2019-01-27T11:52:33Z</time>
      </trkpt>
      <trkpt lat="43.53714" lon="6.60756">
        <ele>388.5</ele>
        <time>2019-01-27T11:52:44Z</time>
      </trkpt>
      <trkpt lat="43.53723" lon="6.60753">
        <ele>389.8</ele>
        <time>2019-01-27T11:52:57Z</time>
      </trkpt>
      <trkpt lat="43.53732" lon="6.6076">
        <ele>391.2</ele>
        <time>2019-01-27T11:53:09Z</time>
      </trkpt>
      <trkpt lat="43.53738" lon="6.60769">
        <ele>392.7</ele>
        <time>2019-01-27T11:53:19Z</time>
      </trkpt>
      <trkpt lat="43.53746" lon="6.60778">
        <ele>394.1</ele>
        <time>2019-01-27T11:53:29Z</time>
      </trkpt>
      <trkpt lat="43.53755" lon="6.60781">
        <ele>395.4</ele>
        <time>2019-01-27T11:53:37Z</time>
      </trkpt>
      <trkpt lat="43.53762" lon="6.60789">
        <ele>396.7</ele>
        <time>2019-01-27T11:53:47Z</time>
      </trkpt>
      <trkpt lat="43.53772" lon="6.60794">
        <ele>398.6</ele>
        <time>2019-01-27T11:53:58Z</time>
      </trkpt>
      <trkpt lat="43.53782" lon="6.60797">
        <ele>399.9</ele>
        <time>2019-01-27T11:54:07Z</time>
      </trkpt>
      <trkpt lat="43.5379" lon="6.60803">
        <ele>401.5</ele>
        <time>2019-01-27T11:54:17Z</time>
      </trkpt>
      <trkpt lat="43.53798" lon="6.60808">
        <ele>402.5</ele>
        <time>2019-01-27T11:54:25Z</time>
      </trkpt>
      <trkpt lat="43.53807" lon="6.60814">
        <ele>403.9</ele>
        <time>2019-01-27T11:54:34Z</time>
      </trkpt>
      <trkpt lat="43.53815" lon="6.6082">
        <ele>405.7</ele>
        <time>2019-01-27T11:54:43Z</time>
      </trkpt>
      <trkpt lat="43.53825" lon="6.6082">
        <ele>406.6</ele>
        <time>2019-01-27T11:54:50Z</time>
      </trkpt>
      <trkpt lat="43.53834" lon="6.60815">
        <ele>407.5</ele>
        <time>2019-01-27T11:54:57Z</time>
      </trkpt>
      <trkpt lat="43.53842" lon="6.6081">
        <ele>408.4</ele>
        <time>2019-01-27T11:55:05Z</time>
      </trkpt>
      <trkpt lat="43.53852" lon="6.60804">
        <ele>410</ele>
        <time>2019-01-27T11:55:14Z</time>
      </trkpt>
      <trkpt lat="43.5386" lon="6.60797">
        <ele>411.3</ele>
        <time>2019-01-27T11:55:23Z</time>
      </trkpt>
      <trkpt lat="43.53867" lon="6.60788">
        <ele>412.2</ele>
        <time>2019-01-27T11:55:32Z</time>
      </trkpt>
      <trkpt lat="43.53874" lon="6.60779">
        <ele>412.9</ele>
        <time>2019-01-27T11:55:41Z</time>
      </trkpt>
      <trkpt lat="43.53883" lon="6.60774">
        <ele>413.8</ele>
        <time>2019-01-27T11:55:50Z</time>
      </trkpt>
      <trkpt lat="43.53893" lon="6.60773">
        <ele>415.3</ele>
        <time>2019-01-27T11:56:02Z</time>
      </trkpt>
      <trkpt lat="43.53901" lon="6.6078">
        <ele>416.1</ele>
        <time>2019-01-27T11:56:13Z</time>
      </trkpt>
      <trkpt lat="43.53911" lon="6.60785">
        <ele>417.2</ele>
        <time>2019-01-27T11:56:26Z</time>
      </trkpt>
      <trkpt lat="43.5392" lon="6.60789">
        <ele>417.7</ele>
        <time>2019-01-27T11:56:36Z</time>
      </trkpt>
      <trkpt lat="43.53929" lon="6.60795">
        <ele>418.5</ele>
        <time>2019-01-27T11:56:46Z</time>
      </trkpt>
      <trkpt lat="43.5394" lon="6.60796">
        <ele>418.8</ele>
        <time>2019-01-27T11:56:54Z</time>
      </trkpt>
      <trkpt lat="43.53949" lon="6.60798">
        <ele>419.6</ele>
        <time>2019-01-27T11:57:02Z</time>
      </trkpt>
      <trkpt lat="43.5396" lon="6.60798">
        <ele>420.2</ele>
        <time>2019-01-27T11:57:10Z</time>
      </trkpt>
      <trkpt lat="43.53969" lon="6.60795">
        <ele>420.7</ele>
        <time>2019-01-27T11:57:17Z</time>
      </trkpt>
      <trkpt lat="43.53978" lon="6.60795">
        <ele>421.4</ele>
        <time>2019-01-27T11:57:26Z</time>
      </trkpt>
      <trkpt lat="43.53988" lon="6.60796">
        <ele>422.1</ele>
        <time>2019-01-27T11:57:37Z</time>
      </trkpt>
      <trkpt lat="43.53996" lon="6.60789">
        <ele>422.8</ele>
        <time>2019-01-27T11:59:03Z</time>
      </trkpt>
      <trkpt lat="43.53996" lon="6.60776">
        <ele>423.1</ele>
        <time>2019-01-27T12:00:50Z</time>
      </trkpt>
      <trkpt lat="43.53995" lon="6.60762">
        <ele>423.8</ele>
        <time>2019-01-27T12:00:59Z</time>
      </trkpt>
      <trkpt lat="43.53989" lon="6.60751">
        <ele>424.7</ele>
        <time>2019-01-27T12:01:09Z</time>
      </trkpt>
      <trkpt lat="43.53984" lon="6.6074">
        <ele>425.9</ele>
        <time>2019-01-27T12:01:19Z</time>
      </trkpt>
      <trkpt lat="43.53978" lon="6.60729">
        <ele>427</ele>
        <time>2019-01-27T12:01:27Z</time>
      </trkpt>
      <trkpt lat="43.53974" lon="6.60717">
        <ele>427.9</ele>
        <time>2019-01-27T12:01:35Z</time>
      </trkpt>
      <trkpt lat="43.53967" lon="6.60706">
        <ele>428.9</ele>
        <time>2019-01-27T12:01:45Z</time>
      </trkpt>
      <trkpt lat="43.5396" lon="6.60697">
        <ele>430.7</ele>
        <time>2019-01-27T12:01:53Z</time>
      </trkpt>
      <trkpt lat="43.53968" lon="6.6069">
        <ele>432.8</ele>
        <time>2019-01-27T12:02:07Z</time>
      </trkpt>
      <trkpt lat="43.53977" lon="6.60688">
        <ele>433.8</ele>
        <time>2019-01-27T12:02:17Z</time>
      </trkpt>
      <trkpt lat="43.53985" lon="6.6068">
        <ele>434.6</ele>
        <time>2019-01-27T12:02:25Z</time>
      </trkpt>
      <trkpt lat="43.53989" lon="6.60669">
        <ele>436</ele>
        <time>2019-01-27T12:02:34Z</time>
      </trkpt>
      <trkpt lat="43.53988" lon="6.60655">
        <ele>438.4</ele>
        <time>2019-01-27T12:02:44Z</time>
      </trkpt>
      <trkpt lat="43.53982" lon="6.60645">
        <ele>439.8</ele>
        <time>2019-01-27T12:02:54Z</time>
      </trkpt>
      <trkpt lat="43.53975" lon="6.60638">
        <ele>441.4</ele>
        <time>2019-01-27T12:03:04Z</time>
      </trkpt>
      <trkpt lat="43.53966" lon="6.60633">
        <ele>442.7</ele>
        <time>2019-01-27T12:03:12Z</time>
      </trkpt>
      <trkpt lat="43.53957" lon="6.60627">
        <ele>444.4</ele>
        <time>2019-01-27T12:03:24Z</time>
      </trkpt>
      <trkpt lat="43.53948" lon="6.60626">
        <ele>445.6</ele>
        <time>2019-01-27T12:03:32Z</time>
      </trkpt>
      <trkpt lat="43.53939" lon="6.60622">
        <ele>446.5</ele>
        <time>2019-01-27T12:03:39Z</time>
      </trkpt>
      <trkpt lat="43.53929" lon="6.60621">
        <ele>447.8</ele>
        <time>2019-01-27T12:03:48Z</time>
      </trkpt>
      <trkpt lat="43.5392" lon="6.6062">
        <ele>449.4</ele>
        <time>2019-01-27T12:03:58Z</time>
      </trkpt>
      <trkpt lat="43.5391" lon="6.60619">
        <ele>450.6</ele>
        <time>2019-01-27T12:04:07Z</time>
      </trkpt>
      <trkpt lat="43.53901" lon="6.60618">
        <ele>451.5</ele>
        <time>2019-01-27T12:04:17Z</time>
      </trkpt>
      <trkpt lat="43.5389" lon="6.60617">
        <ele>452.5</ele>
        <time>2019-01-27T12:04:26Z</time>
      </trkpt>
      <trkpt lat="43.5388" lon="6.60614">
        <ele>453.6</ele>
        <time>2019-01-27T12:04:36Z</time>
      </trkpt>
      <trkpt lat="43.53871" lon="6.60613">
        <ele>454.5</ele>
        <time>2019-01-27T12:04:44Z</time>
      </trkpt>
      <trkpt lat="43.53861" lon="6.60613">
        <ele>455.9</ele>
        <time>2019-01-27T12:04:55Z</time>
      </trkpt>
      <trkpt lat="43.53852" lon="6.60611">
        <ele>457</ele>
        <time>2019-01-27T12:05:04Z</time>
      </trkpt>
      <trkpt lat="43.53844" lon="6.60606">
        <ele>457.2</ele>
        <time>2019-01-27T12:05:12Z</time>
      </trkpt>
      <trkpt lat="43.53835" lon="6.60604">
        <ele>456.4</ele>
        <time>2019-01-27T12:05:32Z</time>
      </trkpt>
      <trkpt lat="43.53841" lon="6.60593">
        <ele>456.2</ele>
        <time>2019-01-27T12:06:38Z</time>
      </trkpt>
      <trkpt lat="43.5385" lon="6.60592">
        <ele>457.2</ele>
        <time>2019-01-27T12:06:48Z</time>
      </trkpt>
      <trkpt lat="43.53859" lon="6.6059">
        <ele>457.5</ele>
        <time>2019-01-27T12:06:58Z</time>
      </trkpt>
      <trkpt lat="43.53867" lon="6.60583">
        <ele>457.6</ele>
        <time>2019-01-27T12:07:06Z</time>
      </trkpt>
      <trkpt lat="43.53874" lon="6.60575">
        <ele>458</ele>
        <time>2019-01-27T12:07:15Z</time>
      </trkpt>
      <trkpt lat="43.53882" lon="6.60567">
        <ele>458.6</ele>
        <time>2019-01-27T12:07:23Z</time>
      </trkpt>
      <trkpt lat="43.53891" lon="6.60561">
        <ele>459.3</ele>
        <time>2019-01-27T12:07:32Z</time>
      </trkpt>
      <trkpt lat="43.53895" lon="6.60549">
        <ele>459.6</ele>
        <time>2019-01-27T12:07:41Z</time>
      </trkpt>
      <trkpt lat="43.53899" lon="6.60537">
        <ele>459.5</ele>
        <time>2019-01-27T12:07:50Z</time>
      </trkpt>
      <trkpt lat="43.53908" lon="6.6053">
        <ele>460.1</ele>
        <time>2019-01-27T12:07:58Z</time>
      </trkpt>
      <trkpt lat="43.53917" lon="6.60528">
        <ele>460.5</ele>
        <time>2019-01-27T12:08:06Z</time>
      </trkpt>
      <trkpt lat="43.53926" lon="6.60525">
        <ele>461.2</ele>
        <time>2019-01-27T12:08:13Z</time>
      </trkpt>
      <trkpt lat="43.53935" lon="6.60518">
        <ele>462.6</ele>
        <time>2019-01-27T12:08:21Z</time>
      </trkpt>
      <trkpt lat="43.53943" lon="6.60513">
        <ele>463.8</ele>
        <time>2019-01-27T12:08:35Z</time>
      </trkpt>
      <trkpt lat="43.53952" lon="6.60514">
        <ele>466.7</ele>
        <time>2019-01-27T12:08:50Z</time>
      </trkpt>
      <trkpt lat="43.53961" lon="6.60513">
        <ele>470.1</ele>
        <time>2019-01-27T12:09:06Z</time>
      </trkpt>
      <trkpt lat="43.53969" lon="6.60521">
        <ele>472.3</ele>
        <time>2019-01-27T12:09:19Z</time>
      </trkpt>
      <trkpt lat="43.53978" lon="6.60526">
        <ele>473.2</ele>
        <time>2019-01-27T12:09:31Z</time>
      </trkpt>
      <trkpt lat="43.53987" lon="6.60524">
        <ele>474.8</ele>
        <time>2019-01-27T12:09:40Z</time>
      </trkpt>
      <trkpt lat="43.53996" lon="6.60519">
        <ele>477.2</ele>
        <time>2019-01-27T12:09:54Z</time>
      </trkpt>
      <trkpt lat="43.54" lon="6.60508">
        <ele>479.5</ele>
        <time>2019-01-27T12:10:08Z</time>
      </trkpt>
      <trkpt lat="43.54009" lon="6.60503">
        <ele>484.6</ele>
        <time>2019-01-27T12:10:43Z</time>
      </trkpt>
      <trkpt lat="43.54018" lon="6.605">
        <ele>488.3</ele>
        <time>2019-01-27T12:11:17Z</time>
      </trkpt>
      <trkpt lat="43.54027" lon="6.60494">
        <ele>489.7</ele>
        <time>2019-01-27T12:11:44Z</time>
      </trkpt>
      <trkpt lat="43.54038" lon="6.60494">
        <ele>490.7</ele>
        <time>2019-01-27T12:12:00Z</time>
      </trkpt>
      <trkpt lat="43.54028" lon="6.60494">
        <ele>490.2</ele>
        <time>2019-01-27T12:14:19Z</time>
      </trkpt>
      <trkpt lat="43.54027" lon="6.60498">
        <ele>492.3</ele>
        <time>2019-01-27T12:38:51Z</time>
      </trkpt>
      <trkpt lat="43.54034" lon="6.60489">
        <ele>496.2</ele>
        <time>2019-01-27T12:48:35Z</time>
      </trkpt>
      <trkpt lat="43.54035" lon="6.60476">
        <ele>496.3</ele>
        <time>2019-01-27T12:48:58Z</time>
      </trkpt>
      <trkpt lat="43.54032" lon="6.60488">
        <ele>496.4</ele>
        <time>2019-01-27T12:50:38Z</time>
      </trkpt>
      <trkpt lat="43.54024" lon="6.60494">
        <ele>496.4</ele>
        <time>2019-01-27T12:53:39Z</time>
      </trkpt>
      <trkpt lat="43.54016" lon="6.60499">
        <ele>494.9</ele>
        <time>2019-01-27T13:00:15Z</time>
      </trkpt>
      <trkpt lat="43.54007" lon="6.605">
        <ele>490.2</ele>
        <time>2019-01-27T13:00:52Z</time>
      </trkpt>
      <trkpt lat="43.53998" lon="6.60506">
        <ele>486.3</ele>
        <time>2019-01-27T13:01:27Z</time>
      </trkpt>
      <trkpt lat="43.53992" lon="6.60515">
        <ele>483.9</ele>
        <time>2019-01-27T13:02:09Z</time>
      </trkpt>
      <trkpt lat="43.53984" lon="6.6052">
        <ele>481.8</ele>
        <time>2019-01-27T13:02:22Z</time>
      </trkpt>
      <trkpt lat="43.53975" lon="6.60515">
        <ele>480.4</ele>
        <time>2019-01-27T13:02:34Z</time>
      </trkpt>
      <trkpt lat="43.53965" lon="6.6051">
        <ele>478.2</ele>
        <time>2019-01-27T13:02:47Z</time>
      </trkpt>
      <trkpt lat="43.53956" lon="6.60507">
        <ele>476.4</ele>
        <time>2019-01-27T13:03:17Z</time>
      </trkpt>
      <trkpt lat="43.53948" lon="6.60512">
        <ele>474.8</ele>
        <time>2019-01-27T13:03:32Z</time>
      </trkpt>
      <trkpt lat="43.53939" lon="6.6051">
        <ele>472.9</ele>
        <time>2019-01-27T13:03:41Z</time>
      </trkpt>
      <trkpt lat="43.53939" lon="6.60497">
        <ele>472.6</ele>
        <time>2019-01-27T13:07:06Z</time>
      </trkpt>
      <trkpt lat="43.53943" lon="6.60485">
        <ele>473</ele>
        <time>2019-01-27T13:07:17Z</time>
      </trkpt>
      <trkpt lat="43.53947" lon="6.60474">
        <ele>472.7</ele>
        <time>2019-01-27T13:07:25Z</time>
      </trkpt>
      <trkpt lat="43.5395" lon="6.60461">
        <ele>472.4</ele>
        <time>2019-01-27T13:07:34Z</time>
      </trkpt>
      <trkpt lat="43.53949" lon="6.60448">
        <ele>470.8</ele>
        <time>2019-01-27T13:07:43Z</time>
      </trkpt>
      <trkpt lat="43.53953" lon="6.60437">
        <ele>470.6</ele>
        <time>2019-01-27T13:07:50Z</time>
      </trkpt>
      <trkpt lat="43.53956" lon="6.60424">
        <ele>470</ele>
        <time>2019-01-27T13:07:59Z</time>
      </trkpt>
      <trkpt lat="43.53962" lon="6.60412">
        <ele>470.7</ele>
        <time>2019-01-27T13:08:07Z</time>
      </trkpt>
      <trkpt lat="43.53964" lon="6.60398">
        <ele>471.5</ele>
        <time>2019-01-27T13:08:17Z</time>
      </trkpt>
      <trkpt lat="43.53968" lon="6.60385">
        <ele>471.7</ele>
        <time>2019-01-27T13:08:27Z</time>
      </trkpt>
      <trkpt lat="43.53972" lon="6.60374">
        <ele>472.7</ele>
        <time>2019-01-27T13:08:36Z</time>
      </trkpt>
      <trkpt lat="43.53978" lon="6.60363">
        <ele>473.4</ele>
        <time>2019-01-27T13:08:46Z</time>
      </trkpt>
      <trkpt lat="43.53984" lon="6.60354">
        <ele>474.4</ele>
        <time>2019-01-27T13:08:53Z</time>
      </trkpt>
      <trkpt lat="43.53989" lon="6.60343">
        <ele>475.1</ele>
        <time>2019-01-27T13:09:01Z</time>
      </trkpt>
      <trkpt lat="43.53995" lon="6.60333">
        <ele>475.7</ele>
        <time>2019-01-27T13:09:09Z</time>
      </trkpt>
      <trkpt lat="43.54002" lon="6.60322">
        <ele>475.7</ele>
        <time>2019-01-27T13:09:17Z</time>
      </trkpt>
      <trkpt lat="43.54007" lon="6.60311">
        <ele>476</ele>
        <time>2019-01-27T13:09:26Z</time>
      </trkpt>
      <trkpt lat="43.54013" lon="6.60301">
        <ele>476.9</ele>
        <time>2019-01-27T13:09:35Z</time>
      </trkpt>
      <trkpt lat="43.54019" lon="6.60291">
        <ele>475.9</ele>
        <time>2019-01-27T13:09:42Z</time>
      </trkpt>
      <trkpt lat="43.54025" lon="6.6028">
        <ele>475.4</ele>
        <time>2019-01-27T13:09:51Z</time>
      </trkpt>
      <trkpt lat="43.54029" lon="6.60268">
        <ele>475.4</ele>
        <time>2019-01-27T13:10:00Z</time>
      </trkpt>
      <trkpt lat="43.54034" lon="6.60258">
        <ele>474.6</ele>
        <time>2019-01-27T13:10:08Z</time>
      </trkpt>
      <trkpt lat="43.54039" lon="6.60247">
        <ele>474.7</ele>
        <time>2019-01-27T13:10:16Z</time>
      </trkpt>
      <trkpt lat="43.54045" lon="6.60234">
        <ele>474.4</ele>
        <time>2019-01-27T13:10:23Z</time>
      </trkpt>
      <trkpt lat="43.54049" lon="6.60221">
        <ele>473.7</ele>
        <time>2019-01-27T13:10:30Z</time>
      </trkpt>
      <trkpt lat="43.54053" lon="6.60209">
        <ele>472.6</ele>
        <time>2019-01-27T13:10:38Z</time>
      </trkpt>
      <trkpt lat="43.54055" lon="6.60196">
        <ele>470.8</ele>
        <time>2019-01-27T13:10:46Z</time>
      </trkpt>
      <trkpt lat="43.54055" lon="6.60184">
        <ele>470.3</ele>
        <time>2019-01-27T13:10:56Z</time>
      </trkpt>
      <trkpt lat="43.54057" lon="6.60171">
        <ele>469.9</ele>
        <time>2019-01-27T13:11:04Z</time>
      </trkpt>
      <trkpt lat="43.54059" lon="6.60158">
        <ele>467.9</ele>
        <time>2019-01-27T13:11:12Z</time>
      </trkpt>
      <trkpt lat="43.54063" lon="6.60145">
        <ele>468</ele>
        <time>2019-01-27T13:11:19Z</time>
      </trkpt>
      <trkpt lat="43.54065" lon="6.60131">
        <ele>467.3</ele>
        <time>2019-01-27T13:11:27Z</time>
      </trkpt>
      <trkpt lat="43.54066" lon="6.60119">
        <ele>466.1</ele>
        <time>2019-01-27T13:11:34Z</time>
      </trkpt>
      <trkpt lat="43.54065" lon="6.60106">
        <ele>465.5</ele>
        <time>2019-01-27T13:11:42Z</time>
      </trkpt>
      <trkpt lat="43.54067" lon="6.60093">
        <ele>464.8</ele>
        <time>2019-01-27T13:11:54Z</time>
      </trkpt>
      <trkpt lat="43.5407" lon="6.60082">
        <ele>463.3</ele>
        <time>2019-01-27T13:12:02Z</time>
      </trkpt>
      <trkpt lat="43.54067" lon="6.6007">
        <ele>462.7</ele>
        <time>2019-01-27T13:12:15Z</time>
      </trkpt>
      <trkpt lat="43.5407" lon="6.60058">
        <ele>462.1</ele>
        <time>2019-01-27T13:12:22Z</time>
      </trkpt>
      <trkpt lat="43.54069" lon="6.60045">
        <ele>461.7</ele>
        <time>2019-01-27T13:12:31Z</time>
      </trkpt>
      <trkpt lat="43.5407" lon="6.60032">
        <ele>460.6</ele>
        <time>2019-01-27T13:12:41Z</time>
      </trkpt>
      <trkpt lat="43.54071" lon="6.60018">
        <ele>460.3</ele>
        <time>2019-01-27T13:12:48Z</time>
      </trkpt>
      <trkpt lat="43.54068" lon="6.60004">
        <ele>459.3</ele>
        <time>2019-01-27T13:12:57Z</time>
      </trkpt>
      <trkpt lat="43.54066" lon="6.59992">
        <ele>457.1</ele>
        <time>2019-01-27T13:13:05Z</time>
      </trkpt>
      <trkpt lat="43.54069" lon="6.5998">
        <ele>456.2</ele>
        <time>2019-01-27T13:13:14Z</time>
      </trkpt>
      <trkpt lat="43.54071" lon="6.59967">
        <ele>455.7</ele>
        <time>2019-01-27T13:13:23Z</time>
      </trkpt>
      <trkpt lat="43.54071" lon="6.59953">
        <ele>455.4</ele>
        <time>2019-01-27T13:13:30Z</time>
      </trkpt>
      <trkpt lat="43.54066" lon="6.59942">
        <ele>453.3</ele>
        <time>2019-01-27T13:13:39Z</time>
      </trkpt>
      <trkpt lat="43.54062" lon="6.59929">
        <ele>450.2</ele>
        <time>2019-01-27T13:13:48Z</time>
      </trkpt>
      <trkpt lat="43.54059" lon="6.59916">
        <ele>449.6</ele>
        <time>2019-01-27T13:13:57Z</time>
      </trkpt>
      <trkpt lat="43.54059" lon="6.59903">
        <ele>447.1</ele>
        <time>2019-01-27T13:14:07Z</time>
      </trkpt>
      <trkpt lat="43.54058" lon="6.5989">
        <ele>445.4</ele>
        <time>2019-01-27T13:14:15Z</time>
      </trkpt>
      <trkpt lat="43.54058" lon="6.59876">
        <ele>444.3</ele>
        <time>2019-01-27T13:14:24Z</time>
      </trkpt>
      <trkpt lat="43.54058" lon="6.59863">
        <ele>442.7</ele>
        <time>2019-01-27T13:14:31Z</time>
      </trkpt>
      <trkpt lat="43.54055" lon="6.5985">
        <ele>440.6</ele>
        <time>2019-01-27T13:14:39Z</time>
      </trkpt>
      <trkpt lat="43.54049" lon="6.59841">
        <ele>439.2</ele>
        <time>2019-01-27T13:14:45Z</time>
      </trkpt>
      <trkpt lat="43.54046" lon="6.59829">
        <ele>437.4</ele>
        <time>2019-01-27T13:14:53Z</time>
      </trkpt>
      <trkpt lat="43.54041" lon="6.59818">
        <ele>436.8</ele>
        <time>2019-01-27T13:15:01Z</time>
      </trkpt>
      <trkpt lat="43.54035" lon="6.59806">
        <ele>435.9</ele>
        <time>2019-01-27T13:15:07Z</time>
      </trkpt>
      <trkpt lat="43.5403" lon="6.59796">
        <ele>434.7</ele>
        <time>2019-01-27T13:15:16Z</time>
      </trkpt>
      <trkpt lat="43.5402" lon="6.59795">
        <ele>434.3</ele>
        <time>2019-01-27T13:16:06Z</time>
      </trkpt>
      <trkpt lat="43.54011" lon="6.598">
        <ele>433.1</ele>
        <time>2019-01-27T13:16:16Z</time>
      </trkpt>
      <trkpt lat="43.54002" lon="6.59802">
        <ele>430</ele>
        <time>2019-01-27T13:16:29Z</time>
      </trkpt>
      <trkpt lat="43.53992" lon="6.59802">
        <ele>428.3</ele>
        <time>2019-01-27T13:16:38Z</time>
      </trkpt>
      <trkpt lat="43.53983" lon="6.59798">
        <ele>426.7</ele>
        <time>2019-01-27T13:16:46Z</time>
      </trkpt>
      <trkpt lat="43.53975" lon="6.59792">
        <ele>425.1</ele>
        <time>2019-01-27T13:16:54Z</time>
      </trkpt>
      <trkpt lat="43.53965" lon="6.5979">
        <ele>422.9</ele>
        <time>2019-01-27T13:17:04Z</time>
      </trkpt>
      <trkpt lat="43.53955" lon="6.59792">
        <ele>421.3</ele>
        <time>2019-01-27T13:17:11Z</time>
      </trkpt>
      <trkpt lat="43.53946" lon="6.59793">
        <ele>418.8</ele>
        <time>2019-01-27T13:17:20Z</time>
      </trkpt>
      <trkpt lat="43.53937" lon="6.59792">
        <ele>417</ele>
        <time>2019-01-27T13:17:27Z</time>
      </trkpt>
      <trkpt lat="43.53927" lon="6.59793">
        <ele>416.1</ele>
        <time>2019-01-27T13:17:35Z</time>
      </trkpt>
      <trkpt lat="43.53918" lon="6.59796">
        <ele>413.7</ele>
        <time>2019-01-27T13:17:47Z</time>
      </trkpt>
      <trkpt lat="43.53909" lon="6.598">
        <ele>412.3</ele>
        <time>2019-01-27T13:17:54Z</time>
      </trkpt>
      <trkpt lat="43.539" lon="6.59803">
        <ele>408.4</ele>
        <time>2019-01-27T13:18:07Z</time>
      </trkpt>
      <trkpt lat="43.53891" lon="6.598">
        <ele>406</ele>
        <time>2019-01-27T13:18:16Z</time>
      </trkpt>
      <trkpt lat="43.53881" lon="6.59799">
        <ele>405</ele>
        <time>2019-01-27T13:18:24Z</time>
      </trkpt>
      <trkpt lat="43.53873" lon="6.59793">
        <ele>403.3</ele>
        <time>2019-01-27T13:18:34Z</time>
      </trkpt>
      <trkpt lat="43.53864" lon="6.59786">
        <ele>403.1</ele>
        <time>2019-01-27T13:18:41Z</time>
      </trkpt>
      <trkpt lat="43.53857" lon="6.59778">
        <ele>402.3</ele>
        <time>2019-01-27T13:18:50Z</time>
      </trkpt>
      <trkpt lat="43.53849" lon="6.59771">
        <ele>401.4</ele>
        <time>2019-01-27T13:18:59Z</time>
      </trkpt>
      <trkpt lat="43.53842" lon="6.59761">
        <ele>401.2</ele>
        <time>2019-01-27T13:19:09Z</time>
      </trkpt>
      <trkpt lat="43.53837" lon="6.59751">
        <ele>400.3</ele>
        <time>2019-01-27T13:19:19Z</time>
      </trkpt>
      <trkpt lat="43.53833" lon="6.5974">
        <ele>400.2</ele>
        <time>2019-01-27T13:19:27Z</time>
      </trkpt>
      <trkpt lat="43.53832" lon="6.59727">
        <ele>400.1</ele>
        <time>2019-01-27T13:19:34Z</time>
      </trkpt>
      <trkpt lat="43.53831" lon="6.59714">
        <ele>400.1</ele>
        <time>2019-01-27T13:19:44Z</time>
      </trkpt>
      <trkpt lat="43.53831" lon="6.59701">
        <ele>400.3</ele>
        <time>2019-01-27T13:19:53Z</time>
      </trkpt>
      <trkpt lat="43.53832" lon="6.59688">
        <ele>399.7</ele>
        <time>2019-01-27T13:20:01Z</time>
      </trkpt>
      <trkpt lat="43.53834" lon="6.59675">
        <ele>399.3</ele>
        <time>2019-01-27T13:20:10Z</time>
      </trkpt>
      <trkpt lat="43.53838" lon="6.59662">
        <ele>398.6</ele>
        <time>2019-01-27T13:20:17Z</time>
      </trkpt>
      <trkpt lat="43.5384" lon="6.5965">
        <ele>398.3</ele>
        <time>2019-01-27T13:20:25Z</time>
      </trkpt>
      <trkpt lat="43.53843" lon="6.59638">
        <ele>398.2</ele>
        <time>2019-01-27T13:20:33Z</time>
      </trkpt>
      <trkpt lat="43.53843" lon="6.59625">
        <ele>398.1</ele>
        <time>2019-01-27T13:20:43Z</time>
      </trkpt>
      <trkpt lat="43.53838" lon="6.59614">
        <ele>397.2</ele>
        <time>2019-01-27T13:20:50Z</time>
      </trkpt>
      <trkpt lat="43.53833" lon="6.59603">
        <ele>396.3</ele>
        <time>2019-01-27T13:21:00Z</time>
      </trkpt>
      <trkpt lat="43.53826" lon="6.59593">
        <ele>393.9</ele>
        <time>2019-01-27T13:21:10Z</time>
      </trkpt>
      <trkpt lat="43.53821" lon="6.59583">
        <ele>390.9</ele>
        <time>2019-01-27T13:21:19Z</time>
      </trkpt>
      <trkpt lat="43.53814" lon="6.59571">
        <ele>389.3</ele>
        <time>2019-01-27T13:21:30Z</time>
      </trkpt>
      <trkpt lat="43.53809" lon="6.5956">
        <ele>388.1</ele>
        <time>2019-01-27T13:21:36Z</time>
      </trkpt>
      <trkpt lat="43.53801" lon="6.59555">
        <ele>385.7</ele>
        <time>2019-01-27T13:21:44Z</time>
      </trkpt>
      <trkpt lat="43.53792" lon="6.59553">
        <ele>384.5</ele>
        <time>2019-01-27T13:21:55Z</time>
      </trkpt>
      <trkpt lat="43.53783" lon="6.59557">
        <ele>383.2</ele>
        <time>2019-01-27T13:22:06Z</time>
      </trkpt>
      <trkpt lat="43.53773" lon="6.5956">
        <ele>382.1</ele>
        <time>2019-01-27T13:22:16Z</time>
      </trkpt>
      <trkpt lat="43.53765" lon="6.59565">
        <ele>380.9</ele>
        <time>2019-01-27T13:22:27Z</time>
      </trkpt>
      <trkpt lat="43.53756" lon="6.59567">
        <ele>379.1</ele>
        <time>2019-01-27T13:22:40Z</time>
      </trkpt>
      <trkpt lat="43.53747" lon="6.59565">
        <ele>376</ele>
        <time>2019-01-27T13:22:54Z</time>
      </trkpt>
      <trkpt lat="43.53738" lon="6.59562">
        <ele>373.4</ele>
        <time>2019-01-27T13:23:07Z</time>
      </trkpt>
      <trkpt lat="43.53729" lon="6.59561">
        <ele>370.5</ele>
        <time>2019-01-27T13:23:28Z</time>
      </trkpt>
      <trkpt lat="43.5372" lon="6.59557">
        <ele>368.5</ele>
        <time>2019-01-27T13:23:43Z</time>
      </trkpt>
      <trkpt lat="43.5371" lon="6.59557">
        <ele>366.5</ele>
        <time>2019-01-27T13:23:53Z</time>
      </trkpt>
      <trkpt lat="43.53701" lon="6.59558">
        <ele>364.5</ele>
        <time>2019-01-27T13:24:03Z</time>
      </trkpt>
      <trkpt lat="43.53693" lon="6.59564">
        <ele>363.3</ele>
        <time>2019-01-27T13:24:12Z</time>
      </trkpt>
      <trkpt lat="43.53685" lon="6.59572">
        <ele>361.9</ele>
        <time>2019-01-27T13:24:23Z</time>
      </trkpt>
      <trkpt lat="43.53679" lon="6.59581">
        <ele>360.6</ele>
        <time>2019-01-27T13:24:36Z</time>
      </trkpt>
      <trkpt lat="43.53676" lon="6.59593">
        <ele>359.7</ele>
        <time>2019-01-27T13:24:46Z</time>
      </trkpt>
      <trkpt lat="43.53672" lon="6.59606">
        <ele>359.1</ele>
        <time>2019-01-27T13:24:55Z</time>
      </trkpt>
      <trkpt lat="43.53665" lon="6.59615">
        <ele>358.7</ele>
        <time>2019-01-27T13:25:01Z</time>
      </trkpt>
      <trkpt lat="43.53659" lon="6.59626">
        <ele>357.3</ele>
        <time>2019-01-27T13:25:11Z</time>
      </trkpt>
      <trkpt lat="43.53653" lon="6.59635">
        <ele>355.6</ele>
        <time>2019-01-27T13:25:22Z</time>
      </trkpt>
      <trkpt lat="43.53647" lon="6.59645">
        <ele>354.5</ele>
        <time>2019-01-27T13:25:30Z</time>
      </trkpt>
      <trkpt lat="43.53642" lon="6.59656">
        <ele>352.1</ele>
        <time>2019-01-27T13:25:43Z</time>
      </trkpt>
      <trkpt lat="43.53636" lon="6.59665">
        <ele>350.6</ele>
        <time>2019-01-27T13:25:50Z</time>
      </trkpt>
      <trkpt lat="43.5363" lon="6.59674">
        <ele>349.9</ele>
        <time>2019-01-27T13:26:00Z</time>
      </trkpt>
      <trkpt lat="43.53623" lon="6.59683">
        <ele>348.3</ele>
        <time>2019-01-27T13:26:12Z</time>
      </trkpt>
      <trkpt lat="43.53615" lon="6.59689">
        <ele>348</ele>
        <time>2019-01-27T13:26:21Z</time>
      </trkpt>
      <trkpt lat="43.5361" lon="6.597">
        <ele>346.9</ele>
        <time>2019-01-27T13:26:35Z</time>
      </trkpt>
      <trkpt lat="43.53603" lon="6.59707">
        <ele>346</ele>
        <time>2019-01-27T13:26:49Z</time>
      </trkpt>
      <trkpt lat="43.536" lon="6.59719">
        <ele>345.3</ele>
        <time>2019-01-27T13:27:11Z</time>
      </trkpt>
      <trkpt lat="43.53591" lon="6.59724">
        <ele>342.7</ele>
        <time>2019-01-27T13:30:47Z</time>
      </trkpt>
      <trkpt lat="43.53581" lon="6.59723">
        <ele>341.3</ele>
        <time>2019-01-27T13:30:57Z</time>
      </trkpt>
      <trkpt lat="43.53573" lon="6.59716">
        <ele>340.8</ele>
        <time>2019-01-27T13:31:06Z</time>
      </trkpt>
      <trkpt lat="43.53565" lon="6.59706">
        <ele>340</ele>
        <time>2019-01-27T13:31:16Z</time>
      </trkpt>
      <trkpt lat="43.53562" lon="6.59695">
        <ele>339.6</ele>
        <time>2019-01-27T13:31:26Z</time>
      </trkpt>
      <trkpt lat="43.53561" lon="6.59681">
        <ele>339.1</ele>
        <time>2019-01-27T13:31:36Z</time>
      </trkpt>
      <trkpt lat="43.53559" lon="6.59668">
        <ele>338.8</ele>
        <time>2019-01-27T13:31:44Z</time>
      </trkpt>
      <trkpt lat="43.53558" lon="6.59655">
        <ele>338.2</ele>
        <time>2019-01-27T13:31:52Z</time>
      </trkpt>
      <trkpt lat="43.53556" lon="6.59642">
        <ele>337.7</ele>
        <time>2019-01-27T13:32:01Z</time>
      </trkpt>
      <trkpt lat="43.53554" lon="6.5963">
        <ele>336.8</ele>
        <time>2019-01-27T13:32:08Z</time>
      </trkpt>
      <trkpt lat="43.53551" lon="6.59618">
        <ele>337.1</ele>
        <time>2019-01-27T13:32:16Z</time>
      </trkpt>
      <trkpt lat="43.53548" lon="6.59605">
        <ele>336.2</ele>
        <time>2019-01-27T13:32:23Z</time>
      </trkpt>
      <trkpt lat="43.53546" lon="6.59592">
        <ele>335.8</ele>
        <time>2019-01-27T13:32:30Z</time>
      </trkpt>
      <trkpt lat="43.53544" lon="6.5958">
        <ele>335.5</ele>
        <time>2019-01-27T13:32:37Z</time>
      </trkpt>
      <trkpt lat="43.53541" lon="6.59567">
        <ele>335.7</ele>
        <time>2019-01-27T13:32:44Z</time>
      </trkpt>
      <trkpt lat="43.53539" lon="6.59554">
        <ele>335.8</ele>
        <time>2019-01-27T13:32:50Z</time>
      </trkpt>
      <trkpt lat="43.53536" lon="6.59541">
        <ele>336</ele>
        <time>2019-01-27T13:32:57Z</time>
      </trkpt>
      <trkpt lat="43.53536" lon="6.59528">
        <ele>335.2</ele>
        <time>2019-01-27T13:33:06Z</time>
      </trkpt>
      <trkpt lat="43.5353" lon="6.59518">
        <ele>335</ele>
        <time>2019-01-27T13:33:13Z</time>
      </trkpt>
      <trkpt lat="43.53525" lon="6.59506">
        <ele>334.4</ele>
        <time>2019-01-27T13:33:21Z</time>
      </trkpt>
      <trkpt lat="43.53521" lon="6.59494">
        <ele>334.9</ele>
        <time>2019-01-27T13:33:28Z</time>
      </trkpt>
      <trkpt lat="43.53515" lon="6.59485">
        <ele>334.9</ele>
        <time>2019-01-27T13:33:34Z</time>
      </trkpt>
      <trkpt lat="43.53509" lon="6.59474">
        <ele>335</ele>
        <time>2019-01-27T13:33:41Z</time>
      </trkpt>
      <trkpt lat="43.53502" lon="6.59466">
        <ele>335.6</ele>
        <time>2019-01-27T13:33:49Z</time>
      </trkpt>
      <trkpt lat="43.53493" lon="6.59459">
        <ele>335</ele>
        <time>2019-01-27T13:33:55Z</time>
      </trkpt>
      <trkpt lat="43.53485" lon="6.59451">
        <ele>334.5</ele>
        <time>2019-01-27T13:34:01Z</time>
      </trkpt>
      <trkpt lat="43.53476" lon="6.59446">
        <ele>333.4</ele>
        <time>2019-01-27T13:34:10Z</time>
      </trkpt>
      <trkpt lat="43.53468" lon="6.5944">
        <ele>333.3</ele>
        <time>2019-01-27T13:34:18Z</time>
      </trkpt>
      <trkpt lat="43.53463" lon="6.5943">
        <ele>333.3</ele>
        <time>2019-01-27T13:34:26Z</time>
      </trkpt>
      <trkpt lat="43.53462" lon="6.59417">
        <ele>333.7</ele>
        <time>2019-01-27T13:34:34Z</time>
      </trkpt>
      <trkpt lat="43.53462" lon="6.59403">
        <ele>334.3</ele>
        <time>2019-01-27T13:34:43Z</time>
      </trkpt>
      <trkpt lat="43.53462" lon="6.5939">
        <ele>334.5</ele>
        <time>2019-01-27T13:34:51Z</time>
      </trkpt>
      <trkpt lat="43.53462" lon="6.59378">
        <ele>335.6</ele>
        <time>2019-01-27T13:34:58Z</time>
      </trkpt>
      <trkpt lat="43.53465" lon="6.59366">
        <ele>336.6</ele>
        <time>2019-01-27T13:35:07Z</time>
      </trkpt>
      <trkpt lat="43.5347" lon="6.59355">
        <ele>337.1</ele>
        <time>2019-01-27T13:35:16Z</time>
      </trkpt>
      <trkpt lat="43.53475" lon="6.59344">
        <ele>338.2</ele>
        <time>2019-01-27T13:35:23Z</time>
      </trkpt>
      <trkpt lat="43.5348" lon="6.59331">
        <ele>338.5</ele>
        <time>2019-01-27T13:35:30Z</time>
      </trkpt>
      <trkpt lat="43.53482" lon="6.59318">
        <ele>338.4</ele>
        <time>2019-01-27T13:35:37Z</time>
      </trkpt>
      <trkpt lat="43.53479" lon="6.59306">
        <ele>338.1</ele>
        <time>2019-01-27T13:35:45Z</time>
      </trkpt>
      <trkpt lat="43.53484" lon="6.59295">
        <ele>338.6</ele>
        <time>2019-01-27T13:36:09Z</time>
      </trkpt>
      <trkpt lat="43.53476" lon="6.59289">
        <ele>338.7</ele>
        <time>2019-01-27T13:37:45Z</time>
      </trkpt>
      <trkpt lat="43.53467" lon="6.59293">
        <ele>338.6</ele>
        <time>2019-01-27T13:37:55Z</time>
      </trkpt>
      <trkpt lat="43.53461" lon="6.59283">
        <ele>338.1</ele>
        <time>2019-01-27T13:38:13Z</time>
      </trkpt>
      <trkpt lat="43.53453" lon="6.59275">
        <ele>337</ele>
        <time>2019-01-27T13:38:24Z</time>
      </trkpt>
      <trkpt lat="43.53445" lon="6.59266">
        <ele>334.6</ele>
        <time>2019-01-27T13:38:35Z</time>
      </trkpt>
      <trkpt lat="43.53437" lon="6.59261">
        <ele>332.9</ele>
        <time>2019-01-27T13:38:44Z</time>
      </trkpt>
      <trkpt lat="43.53429" lon="6.59253">
        <ele>329.5</ele>
        <time>2019-01-27T13:38:56Z</time>
      </trkpt>
      <trkpt lat="43.5342" lon="6.59252">
        <ele>327.2</ele>
        <time>2019-01-27T13:39:40Z</time>
      </trkpt>
      <trkpt lat="43.53418" lon="6.5924">
        <ele>325.6</ele>
        <time>2019-01-27T13:40:12Z</time>
      </trkpt>
      <trkpt lat="43.53408" lon="6.59238">
        <ele>323.9</ele>
        <time>2019-01-27T13:40:22Z</time>
      </trkpt>
      <trkpt lat="43.53399" lon="6.59243">
        <ele>320.5</ele>
        <time>2019-01-27T13:40:37Z</time>
      </trkpt>
      <trkpt lat="43.5339" lon="6.59247">
        <ele>318.3</ele>
        <time>2019-01-27T13:40:47Z</time>
      </trkpt>
      <trkpt lat="43.53381" lon="6.59251">
        <ele>316.1</ele>
        <time>2019-01-27T13:40:59Z</time>
      </trkpt>
      <trkpt lat="43.53372" lon="6.59254">
        <ele>314.3</ele>
        <time>2019-01-27T13:41:09Z</time>
      </trkpt>
      <trkpt lat="43.53364" lon="6.5926">
        <ele>311.5</ele>
        <time>2019-01-27T13:41:17Z</time>
      </trkpt>
      <trkpt lat="43.53354" lon="6.59256">
        <ele>307</ele>
        <time>2019-01-27T13:41:38Z</time>
      </trkpt>
      <trkpt lat="43.5335" lon="6.59244">
        <ele>305</ele>
        <time>2019-01-27T13:41:55Z</time>
      </trkpt>
      <trkpt lat="43.53342" lon="6.59236">
        <ele>302</ele>
        <time>2019-01-27T13:42:10Z</time>
      </trkpt>
      <trkpt lat="43.53333" lon="6.59231">
        <ele>300</ele>
        <time>2019-01-27T13:42:20Z</time>
      </trkpt>
      <trkpt lat="43.53324" lon="6.59221">
        <ele>298.2</ele>
        <time>2019-01-27T13:42:29Z</time>
      </trkpt>
      <trkpt lat="43.53318" lon="6.59212">
        <ele>298.1</ele>
        <time>2019-01-27T13:42:39Z</time>
      </trkpt>
      <trkpt lat="43.53312" lon="6.59203">
        <ele>299.8</ele>
        <time>2019-01-27T13:42:50Z</time>
      </trkpt>
      <trkpt lat="43.53303" lon="6.59196">
        <ele>301.3</ele>
        <time>2019-01-27T13:43:00Z</time>
      </trkpt>
      <trkpt lat="43.53294" lon="6.59194">
        <ele>301</ele>
        <time>2019-01-27T13:43:19Z</time>
      </trkpt>
      <trkpt lat="43.53293" lon="6.59181">
        <ele>303.2</ele>
        <time>2019-01-27T13:44:25Z</time>
      </trkpt>
      <trkpt lat="43.53287" lon="6.59172">
        <ele>308.3</ele>
        <time>2019-01-27T13:44:42Z</time>
      </trkpt>
      <trkpt lat="43.53283" lon="6.59161">
        <ele>312.9</ele>
        <time>2019-01-27T13:45:01Z</time>
      </trkpt>
      <trkpt lat="43.53274" lon="6.59156">
        <ele>316.2</ele>
        <time>2019-01-27T13:45:19Z</time>
      </trkpt>
      <trkpt lat="43.53266" lon="6.59152">
        <ele>319.6</ele>
        <time>2019-01-27T13:45:40Z</time>
      </trkpt>
      <trkpt lat="43.53257" lon="6.59147">
        <ele>324.6</ele>
        <time>2019-01-27T13:46:01Z</time>
      </trkpt>
      <trkpt lat="43.53248" lon="6.59148">
        <ele>326.7</ele>
        <time>2019-01-27T13:46:12Z</time>
      </trkpt>
      <trkpt lat="43.53242" lon="6.59138">
        <ele>328.3</ele>
        <time>2019-01-27T13:46:28Z</time>
      </trkpt>
      <trkpt lat="43.53235" lon="6.5913">
        <ele>329.1</ele>
        <time>2019-01-27T13:46:42Z</time>
      </trkpt>
      <trkpt lat="43.53225" lon="6.59127">
        <ele>330.8</ele>
        <time>2019-01-27T13:46:51Z</time>
      </trkpt>
      <trkpt lat="43.53217" lon="6.5913">
        <ele>331.9</ele>
        <time>2019-01-27T13:46:58Z</time>
      </trkpt>
      <trkpt lat="43.53207" lon="6.59132">
        <ele>331.8</ele>
        <time>2019-01-27T13:47:08Z</time>
      </trkpt>
      <trkpt lat="43.53198" lon="6.59133">
        <ele>331.3</ele>
        <time>2019-01-27T13:47:19Z</time>
      </trkpt>
      <trkpt lat="43.53193" lon="6.59122">
        <ele>335.5</ele>
        <time>2019-01-27T13:48:25Z</time>
      </trkpt>
      <trkpt lat="43.53191" lon="6.59135">
        <ele>333.2</ele>
        <time>2019-01-27T13:50:16Z</time>
      </trkpt>
      <trkpt lat="43.53182" lon="6.5914">
        <ele>331.3</ele>
        <time>2019-01-27T13:50:37Z</time>
      </trkpt>
      <trkpt lat="43.53173" lon="6.59138">
        <ele>331.2</ele>
        <time>2019-01-27T13:51:00Z</time>
      </trkpt>
      <trkpt lat="43.53164" lon="6.5914">
        <ele>330.1</ele>
        <time>2019-01-27T13:51:11Z</time>
      </trkpt>
      <trkpt lat="43.53154" lon="6.5914">
        <ele>329.2</ele>
        <time>2019-01-27T13:51:34Z</time>
      </trkpt>
      <trkpt lat="43.53145" lon="6.59142">
        <ele>326.6</ele>
        <time>2019-01-27T13:51:47Z</time>
      </trkpt>
      <trkpt lat="43.53136" lon="6.59142">
        <ele>325.1</ele>
        <time>2019-01-27T13:51:58Z</time>
      </trkpt>
      <trkpt lat="43.53126" lon="6.59139">
        <ele>324.6</ele>
        <time>2019-01-27T13:52:10Z</time>
      </trkpt>
      <trkpt lat="43.5312" lon="6.59128">
        <ele>323.8</ele>
        <time>2019-01-27T13:52:23Z</time>
      </trkpt>
      <trkpt lat="43.53112" lon="6.5912">
        <ele>324.2</ele>
        <time>2019-01-27T13:52:31Z</time>
      </trkpt>
      <trkpt lat="43.53102" lon="6.59116">
        <ele>324.5</ele>
        <time>2019-01-27T13:52:39Z</time>
      </trkpt>
      <trkpt lat="43.53094" lon="6.59109">
        <ele>323.7</ele>
        <time>2019-01-27T13:52:48Z</time>
      </trkpt>
      <trkpt lat="43.53085" lon="6.59102">
        <ele>323.9</ele>
        <time>2019-01-27T13:52:57Z</time>
      </trkpt>
      <trkpt lat="43.53076" lon="6.59095">
        <ele>323.7</ele>
        <time>2019-01-27T13:53:06Z</time>
      </trkpt>
      <trkpt lat="43.53068" lon="6.59089">
        <ele>324.1</ele>
        <time>2019-01-27T13:53:15Z</time>
      </trkpt>
      <trkpt lat="43.5306" lon="6.59081">
        <ele>324.1</ele>
        <time>2019-01-27T13:53:25Z</time>
      </trkpt>
      <trkpt lat="43.53051" lon="6.59074">
        <ele>322.1</ele>
        <time>2019-01-27T13:53:36Z</time>
      </trkpt>
      <trkpt lat="43.53042" lon="6.59072">
        <ele>320</ele>
        <time>2019-01-27T13:53:49Z</time>
      </trkpt>
      <trkpt lat="43.53032" lon="6.59067">
        <ele>317.4</ele>
        <time>2019-01-27T13:54:08Z</time>
      </trkpt>
      <trkpt lat="43.53022" lon="6.59067">
        <ele>316.5</ele>
        <time>2019-01-27T13:54:16Z</time>
      </trkpt>
      <trkpt lat="43.53013" lon="6.59062">
        <ele>315.5</ele>
        <time>2019-01-27T13:54:25Z</time>
      </trkpt>
      <trkpt lat="43.53005" lon="6.59054">
        <ele>315.1</ele>
        <time>2019-01-27T13:54:35Z</time>
      </trkpt>
      <trkpt lat="43.52996" lon="6.59053">
        <ele>313</ele>
        <time>2019-01-27T13:54:50Z</time>
      </trkpt>
      <trkpt lat="43.52988" lon="6.59061">
        <ele>310.3</ele>
        <time>2019-01-27T13:55:00Z</time>
      </trkpt>
      <trkpt lat="43.52979" lon="6.59059">
        <ele>306.8</ele>
        <time>2019-01-27T13:55:15Z</time>
      </trkpt>
      <trkpt lat="43.52976" lon="6.59047">
        <ele>305.4</ele>
        <time>2019-01-27T13:55:28Z</time>
      </trkpt>
      <trkpt lat="43.52968" lon="6.59039">
        <ele>302.9</ele>
        <time>2019-01-27T13:55:47Z</time>
      </trkpt>
      <trkpt lat="43.52959" lon="6.59037">
        <ele>302.3</ele>
        <time>2019-01-27T13:55:57Z</time>
      </trkpt>
      <trkpt lat="43.52951" lon="6.5903">
        <ele>301.9</ele>
        <time>2019-01-27T13:56:06Z</time>
      </trkpt>
      <trkpt lat="43.52942" lon="6.59026">
        <ele>301.4</ele>
        <time>2019-01-27T13:56:15Z</time>
      </trkpt>
      <trkpt lat="43.52935" lon="6.59018">
        <ele>299.6</ele>
        <time>2019-01-27T13:56:27Z</time>
      </trkpt>
      <trkpt lat="43.52927" lon="6.59011">
        <ele>300.8</ele>
        <time>2019-01-27T13:56:38Z</time>
      </trkpt>
      <trkpt lat="43.52919" lon="6.59004">
        <ele>299.4</ele>
        <time>2019-01-27T13:56:51Z</time>
      </trkpt>
      <trkpt lat="43.52911" lon="6.58998">
        <ele>298.7</ele>
        <time>2019-01-27T13:57:02Z</time>
      </trkpt>
      <trkpt lat="43.52905" lon="6.58989">
        <ele>299.5</ele>
        <time>2019-01-27T13:57:21Z</time>
      </trkpt>
      <trkpt lat="43.52914" lon="6.58989">
        <ele>303.1</ele>
        <time>2019-01-27T13:58:44Z</time>
      </trkpt>
      <trkpt lat="43.52906" lon="6.58984">
        <ele>299</ele>
        <time>2019-01-27T14:00:33Z</time>
      </trkpt>
      <trkpt lat="43.52897" lon="6.58979">
        <ele>298.1</ele>
        <time>2019-01-27T14:03:19Z</time>
      </trkpt>
      <trkpt lat="43.52892" lon="6.58967">
        <ele>295.8</ele>
        <time>2019-01-27T14:03:36Z</time>
      </trkpt>
      <trkpt lat="43.52886" lon="6.58957">
        <ele>296.3</ele>
        <time>2019-01-27T14:03:47Z</time>
      </trkpt>
      <trkpt lat="43.52878" lon="6.58952">
        <ele>293.7</ele>
        <time>2019-01-27T14:04:00Z</time>
      </trkpt>
      <trkpt lat="43.52881" lon="6.5894">
        <ele>294.2</ele>
        <time>2019-01-27T14:04:18Z</time>
      </trkpt>
      <trkpt lat="43.52889" lon="6.58933">
        <ele>295.3</ele>
        <time>2019-01-27T14:04:30Z</time>
      </trkpt>
      <trkpt lat="43.52895" lon="6.58924">
        <ele>298.2</ele>
        <time>2019-01-27T14:04:45Z</time>
      </trkpt>
      <trkpt lat="43.52898" lon="6.58912">
        <ele>299.9</ele>
        <time>2019-01-27T14:04:55Z</time>
      </trkpt>
      <trkpt lat="43.52898" lon="6.58899">
        <ele>299.4</ele>
        <time>2019-01-27T14:05:05Z</time>
      </trkpt>
      <trkpt lat="43.52902" lon="6.58887">
        <ele>299.1</ele>
        <time>2019-01-27T14:05:13Z</time>
      </trkpt>
      <trkpt lat="43.52901" lon="6.58875">
        <ele>300.1</ele>
        <time>2019-01-27T14:05:21Z</time>
      </trkpt>
      <trkpt lat="43.52897" lon="6.58863">
        <ele>299.4</ele>
        <time>2019-01-27T14:05:30Z</time>
      </trkpt>
      <trkpt lat="43.52891" lon="6.58851">
        <ele>297.2</ele>
        <time>2019-01-27T14:05:39Z</time>
      </trkpt>
      <trkpt lat="43.52884" lon="6.58843">
        <ele>296.8</ele>
        <time>2019-01-27T14:05:47Z</time>
      </trkpt>
      <trkpt lat="43.52878" lon="6.58832">
        <ele>295.2</ele>
        <time>2019-01-27T14:05:56Z</time>
      </trkpt>
      <trkpt lat="43.5287" lon="6.58824">
        <ele>293.7</ele>
        <time>2019-01-27T14:06:04Z</time>
      </trkpt>
      <trkpt lat="43.52861" lon="6.58818">
        <ele>291.8</ele>
        <time>2019-01-27T14:06:12Z</time>
      </trkpt>
      <trkpt lat="43.52853" lon="6.58811">
        <ele>291</ele>
        <time>2019-01-27T14:06:22Z</time>
      </trkpt>
      <trkpt lat="43.52844" lon="6.58805">
        <ele>290.3</ele>
        <time>2019-01-27T14:06:30Z</time>
      </trkpt>
      <trkpt lat="43.52836" lon="6.58799">
        <ele>289.1</ele>
        <time>2019-01-27T14:06:40Z</time>
      </trkpt>
      <trkpt lat="43.5283" lon="6.58788">
        <ele>288.4</ele>
        <time>2019-01-27T14:06:51Z</time>
      </trkpt>
      <trkpt lat="43.52823" lon="6.58779">
        <ele>287.8</ele>
        <time>2019-01-27T14:07:00Z</time>
      </trkpt>
      <trkpt lat="43.52814" lon="6.58773">
        <ele>287.6</ele>
        <time>2019-01-27T14:07:10Z</time>
      </trkpt>
      <trkpt lat="43.52804" lon="6.58775">
        <ele>285.1</ele>
        <time>2019-01-27T14:07:25Z</time>
      </trkpt>
      <trkpt lat="43.52797" lon="6.58768">
        <ele>282.3</ele>
        <time>2019-01-27T14:07:38Z</time>
      </trkpt>
      <trkpt lat="43.52788" lon="6.58764">
        <ele>279.3</ele>
        <time>2019-01-27T14:07:48Z</time>
      </trkpt>
      <trkpt lat="43.52782" lon="6.58754">
        <ele>276.5</ele>
        <time>2019-01-27T14:08:02Z</time>
      </trkpt>
      <trkpt lat="43.52774" lon="6.58746">
        <ele>275.3</ele>
        <time>2019-01-27T14:08:36Z</time>
      </trkpt>
      <trkpt lat="43.52767" lon="6.58738">
        <ele>273.1</ele>
        <time>2019-01-27T14:08:53Z</time>
      </trkpt>
      <trkpt lat="43.52759" lon="6.58731">
        <ele>269.4</ele>
        <time>2019-01-27T14:09:12Z</time>
      </trkpt>
      <trkpt lat="43.52753" lon="6.58721">
        <ele>267.1</ele>
        <time>2019-01-27T14:09:23Z</time>
      </trkpt>
      <trkpt lat="43.52744" lon="6.58718">
        <ele>264.3</ele>
        <time>2019-01-27T14:09:39Z</time>
      </trkpt>
      <trkpt lat="43.52735" lon="6.58716">
        <ele>257.1</ele>
        <time>2019-01-27T14:10:24Z</time>
      </trkpt>
      <trkpt lat="43.52731" lon="6.58705">
        <ele>251.6</ele>
        <time>2019-01-27T14:10:47Z</time>
      </trkpt>
      <trkpt lat="43.52731" lon="6.58692">
        <ele>246.9</ele>
        <time>2019-01-27T14:11:03Z</time>
      </trkpt>
      <trkpt lat="43.52723" lon="6.58685">
        <ele>245.1</ele>
        <time>2019-01-27T14:11:19Z</time>
      </trkpt>
      <trkpt lat="43.52715" lon="6.58679">
        <ele>243.4</ele>
        <time>2019-01-27T14:12:28Z</time>
      </trkpt>
      <trkpt lat="43.52708" lon="6.58671">
        <ele>242</ele>
        <time>2019-01-27T14:13:39Z</time>
      </trkpt>
      <trkpt lat="43.52708" lon="6.58684">
        <ele>242.3</ele>
        <time>2019-01-27T14:13:49Z</time>
      </trkpt>
      <trkpt lat="43.52705" lon="6.58695">
        <ele>244</ele>
        <time>2019-01-27T14:14:34Z</time>
      </trkpt>
      <trkpt lat="43.52712" lon="6.58686">
        <ele>241.6</ele>
        <time>2019-01-27T14:16:13Z</time>
      </trkpt>
      <trkpt lat="43.5272" lon="6.58683">
        <ele>241.5</ele>
        <time>2019-01-27T14:16:42Z</time>
      </trkpt>
      <trkpt lat="43.5272" lon="6.5867">
        <ele>237.5</ele>
        <time>2019-01-27T14:17:09Z</time>
      </trkpt>
      <trkpt lat="43.52712" lon="6.58663">
        <ele>235.8</ele>
        <time>2019-01-27T14:17:20Z</time>
      </trkpt>
      <trkpt lat="43.52703" lon="6.58664">
        <ele>235.4</ele>
        <time>2019-01-27T14:17:32Z</time>
      </trkpt>
      <trkpt lat="43.52702" lon="6.58652">
        <ele>224.6</ele>
        <time>2019-01-27T14:18:32Z</time>
      </trkpt>
      <trkpt lat="43.52709" lon="6.58643">
        <ele>221.7</ele>
        <time>2019-01-27T14:18:50Z</time>
      </trkpt>
      <trkpt lat="43.5271" lon="6.5863">
        <ele>216.1</ele>
        <time>2019-01-27T14:19:13Z</time>
      </trkpt>
      <trkpt lat="43.5271" lon="6.58617">
        <ele>212.9</ele>
        <time>2019-01-27T14:19:27Z</time>
      </trkpt>
      <trkpt lat="43.52714" lon="6.58606">
        <ele>209</ele>
        <time>2019-01-27T14:19:49Z</time>
      </trkpt>
      <trkpt lat="43.52711" lon="6.58593">
        <ele>204.4</ele>
        <time>2019-01-27T14:20:06Z</time>
      </trkpt>
      <trkpt lat="43.52706" lon="6.58582">
        <ele>201.8</ele>
        <time>2019-01-27T14:20:17Z</time>
      </trkpt>
      <trkpt lat="43.527" lon="6.58572">
        <ele>196.9</ele>
        <time>2019-01-27T14:20:35Z</time>
      </trkpt>
      <trkpt lat="43.52694" lon="6.58561">
        <ele>193.6</ele>
        <time>2019-01-27T14:20:53Z</time>
      </trkpt>
      <trkpt lat="43.52686" lon="6.58553">
        <ele>191.3</ele>
        <time>2019-01-27T14:21:06Z</time>
      </trkpt>
      <trkpt lat="43.52677" lon="6.5855">
        <ele>187.9</ele>
        <time>2019-01-27T14:21:20Z</time>
      </trkpt>
      <trkpt lat="43.52668" lon="6.58543">
        <ele>183.9</ele>
        <time>2019-01-27T14:21:35Z</time>
      </trkpt>
      <trkpt lat="43.52667" lon="6.5853">
        <ele>176.5</ele>
        <time>2019-01-27T14:22:09Z</time>
      </trkpt>
      <trkpt lat="43.52667" lon="6.58518">
        <ele>173</ele>
        <time>2019-01-27T14:22:29Z</time>
      </trkpt>
      <trkpt lat="43.52665" lon="6.58504">
        <ele>170.2</ele>
        <time>2019-01-27T14:22:45Z</time>
      </trkpt>
      <trkpt lat="43.52663" lon="6.58491">
        <ele>167.9</ele>
        <time>2019-01-27T14:22:57Z</time>
      </trkpt>
      <trkpt lat="43.5266" lon="6.58479">
        <ele>165.2</ele>
        <time>2019-01-27T14:23:10Z</time>
      </trkpt>
      <trkpt lat="43.52657" lon="6.58467">
        <ele>162.1</ele>
        <time>2019-01-27T14:23:23Z</time>
      </trkpt>
      <trkpt lat="43.52653" lon="6.58455">
        <ele>158.8</ele>
        <time>2019-01-27T14:23:37Z</time>
      </trkpt>
      <trkpt lat="43.52647" lon="6.58445">
        <ele>156.9</ele>
        <time>2019-01-27T14:23:59Z</time>
      </trkpt>
      <trkpt lat="43.52643" lon="6.58432">
        <ele>154.9</ele>
        <time>2019-01-27T14:24:09Z</time>
      </trkpt>
      <trkpt lat="43.52643" lon="6.58419">
        <ele>152.5</ele>
        <time>2019-01-27T14:24:22Z</time>
      </trkpt>
      <trkpt lat="43.52639" lon="6.58408">
        <ele>152.2</ele>
        <time>2019-01-27T14:24:57Z</time>
      </trkpt>
      <trkpt lat="43.52645" lon="6.58399">
        <ele>151.3</ele>
        <time>2019-01-27T14:26:38Z</time>
      </trkpt>
      <trkpt lat="43.52654" lon="6.58396">
        <ele>148.3</ele>
        <time>2019-01-27T14:26:54Z</time>
      </trkpt>
      <trkpt lat="43.52664" lon="6.58397">
        <ele>146</ele>
        <time>2019-01-27T14:27:05Z</time>
      </trkpt>
      <trkpt lat="43.52673" lon="6.58395">
        <ele>143.5</ele>
        <time>2019-01-27T14:27:15Z</time>
      </trkpt>
      <trkpt lat="43.52682" lon="6.58393">
        <ele>142.8</ele>
        <time>2019-01-27T14:27:26Z</time>
      </trkpt>
      <trkpt lat="43.52692" lon="6.58389">
        <ele>142</ele>
        <time>2019-01-27T14:27:36Z</time>
      </trkpt>
      <trkpt lat="43.527" lon="6.58383">
        <ele>140.1</ele>
        <time>2019-01-27T14:27:45Z</time>
      </trkpt>
      <trkpt lat="43.52708" lon="6.58375">
        <ele>138.3</ele>
        <time>2019-01-27T14:27:54Z</time>
      </trkpt>
      <trkpt lat="43.52717" lon="6.58369">
        <ele>136.4</ele>
        <time>2019-01-27T14:28:04Z</time>
      </trkpt>
      <trkpt lat="43.52726" lon="6.58365">
        <ele>133.9</ele>
        <time>2019-01-27T14:28:15Z</time>
      </trkpt>
      <trkpt lat="43.52735" lon="6.58363">
        <ele>131.1</ele>
        <time>2019-01-27T14:28:30Z</time>
      </trkpt>
      <trkpt lat="43.52744" lon="6.58359">
        <ele>129.8</ele>
        <time>2019-01-27T14:28:49Z</time>
      </trkpt>
      <trkpt lat="43.52752" lon="6.58352">
        <ele>128.9</ele>
        <time>2019-01-27T14:29:00Z</time>
      </trkpt>
      <trkpt lat="43.52758" lon="6.58343">
        <ele>128.1</ele>
        <time>2019-01-27T14:29:09Z</time>
      </trkpt>
      <trkpt lat="43.52768" lon="6.58345">
        <ele>126.4</ele>
        <time>2019-01-27T14:31:03Z</time>
      </trkpt>
      <trkpt lat="43.52777" lon="6.5835">
        <ele>126.8</ele>
        <time>2019-01-27T14:31:11Z</time>
      </trkpt>
      <trkpt lat="43.52785" lon="6.58356">
        <ele>127.8</ele>
        <time>2019-01-27T14:31:20Z</time>
      </trkpt>
      <trkpt lat="43.52795" lon="6.58355">
        <ele>128</ele>
        <time>2019-01-27T14:31:28Z</time>
      </trkpt>
      <trkpt lat="43.52803" lon="6.58348">
        <ele>127.6</ele>
        <time>2019-01-27T14:31:38Z</time>
      </trkpt>
      <trkpt lat="43.52806" lon="6.58335">
        <ele>127.2</ele>
        <time>2019-01-27T14:31:46Z</time>
      </trkpt>
      <trkpt lat="43.52803" lon="6.58323">
        <ele>126.5</ele>
        <time>2019-01-27T14:31:54Z</time>
      </trkpt>
      <trkpt lat="43.52801" lon="6.5831">
        <ele>125.6</ele>
        <time>2019-01-27T14:32:03Z</time>
      </trkpt>
      <trkpt lat="43.52802" lon="6.58297">
        <ele>125.1</ele>
        <time>2019-01-27T14:32:14Z</time>
      </trkpt>
      <trkpt lat="43.52801" lon="6.58284">
        <ele>123.6</ele>
        <time>2019-01-27T14:32:24Z</time>
      </trkpt>
      <trkpt lat="43.52803" lon="6.58272">
        <ele>124.2</ele>
        <time>2019-01-27T14:32:35Z</time>
      </trkpt>
      <trkpt lat="43.52807" lon="6.58259">
        <ele>125.3</ele>
        <time>2019-01-27T14:32:47Z</time>
      </trkpt>
      <trkpt lat="43.52807" lon="6.58246">
        <ele>124.2</ele>
        <time>2019-01-27T14:32:58Z</time>
      </trkpt>
      <trkpt lat="43.52803" lon="6.58234">
        <ele>121.7</ele>
        <time>2019-01-27T14:33:08Z</time>
      </trkpt>
      <trkpt lat="43.52801" lon="6.58221">
        <ele>119.8</ele>
        <time>2019-01-27T14:33:23Z</time>
      </trkpt>
      <trkpt lat="43.52797" lon="6.5821">
        <ele>117.9</ele>
        <time>2019-01-27T14:33:33Z</time>
      </trkpt>
      <trkpt lat="43.52788" lon="6.58205">
        <ele>115.1</ele>
        <time>2019-01-27T14:33:44Z</time>
      </trkpt>
      <trkpt lat="43.52779" lon="6.58203">
        <ele>113</ele>
        <time>2019-01-27T14:33:53Z</time>
      </trkpt>
      <trkpt lat="43.5277" lon="6.58198">
        <ele>111.2</ele>
        <time>2019-01-27T14:34:08Z</time>
      </trkpt>
      <trkpt lat="43.52762" lon="6.58193">
        <ele>107.8</ele>
        <time>2019-01-27T14:34:26Z</time>
      </trkpt>
      <trkpt lat="43.52757" lon="6.58183">
        <ele>105.3</ele>
        <time>2019-01-27T14:34:40Z</time>
      </trkpt>
      <trkpt lat="43.5275" lon="6.58174">
        <ele>102.8</ele>
        <time>2019-01-27T14:34:51Z</time>
      </trkpt>
      <trkpt lat="43.52743" lon="6.58164">
        <ele>101</ele>
        <time>2019-01-27T14:35:05Z</time>
      </trkpt>
      <trkpt lat="43.52737" lon="6.58155">
        <ele>99.2</ele>
        <time>2019-01-27T14:35:18Z</time>
      </trkpt>
      <trkpt lat="43.52732" lon="6.58144">
        <ele>96.2</ele>
        <time>2019-01-27T14:35:32Z</time>
      </trkpt>
      <trkpt lat="43.52725" lon="6.58133">
        <ele>92.4</ele>
        <time>2019-01-27T14:35:46Z</time>
      </trkpt>
      <trkpt lat="43.52718" lon="6.58126">
        <ele>89.1</ele>
        <time>2019-01-27T14:36:07Z</time>
      </trkpt>
      <trkpt lat="43.52728" lon="6.58125">
        <ele>89.8</ele>
        <time>2019-01-27T14:39:55Z</time>
      </trkpt>
      <trkpt lat="43.52733" lon="6.58114">
        <ele>89.2</ele>
        <time>2019-01-27T14:40:05Z</time>
      </trkpt>
      <trkpt lat="43.52738" lon="6.58103">
        <ele>88.2</ele>
        <time>2019-01-27T14:40:14Z</time>
      </trkpt>
      <trkpt lat="43.52742" lon="6.58092">
        <ele>87.3</ele>
        <time>2019-01-27T14:40:23Z</time>
      </trkpt>
      <trkpt lat="43.52739" lon="6.58079">
        <ele>86.1</ele>
        <time>2019-01-27T14:40:32Z</time>
      </trkpt>
      <trkpt lat="43.52741" lon="6.58067">
        <ele>85.4</ele>
        <time>2019-01-27T14:40:40Z</time>
      </trkpt>
      <trkpt lat="43.52744" lon="6.58055">
        <ele>82.7</ele>
        <time>2019-01-27T14:40:51Z</time>
      </trkpt>
      <trkpt lat="43.52745" lon="6.58041">
        <ele>79.9</ele>
        <time>2019-01-27T14:41:01Z</time>
      </trkpt>
      <trkpt lat="43.52739" lon="6.58033">
        <ele>78</ele>
        <time>2019-01-27T14:41:13Z</time>
      </trkpt>
      <trkpt lat="43.52747" lon="6.58025">
        <ele>75.3</ele>
        <time>2019-01-27T14:41:55Z</time>
      </trkpt>
      <trkpt lat="43.52747" lon="6.58013">
        <ele>74</ele>
        <time>2019-01-27T14:42:05Z</time>
      </trkpt>
      <trkpt lat="43.52747" lon="6.58">
        <ele>73</ele>
        <time>2019-01-27T14:42:19Z</time>
      </trkpt>
      <trkpt lat="43.52745" lon="6.57988">
        <ele>74.3</ele>
        <time>2019-01-27T14:42:30Z</time>
      </trkpt>
      <trkpt lat="43.52743" lon="6.57975">
        <ele>74.2</ele>
        <time>2019-01-27T14:42:41Z</time>
      </trkpt>
      <trkpt lat="43.52744" lon="6.57962">
        <ele>70.5</ele>
        <time>2019-01-27T14:43:03Z</time>
      </trkpt>
      <trkpt lat="43.52737" lon="6.57952">
        <ele>67.6</ele>
        <time>2019-01-27T14:43:40Z</time>
      </trkpt>
      <trkpt lat="43.52733" lon="6.5794">
        <ele>64.3</ele>
        <time>2019-01-27T14:43:52Z</time>
      </trkpt>
      <trkpt lat="43.52725" lon="6.57933">
        <ele>62.5</ele>
        <time>2019-01-27T14:44:07Z</time>
      </trkpt>
      <trkpt lat="43.52718" lon="6.57925">
        <ele>59.6</ele>
        <time>2019-01-27T14:44:19Z</time>
      </trkpt>
      <trkpt lat="43.52713" lon="6.57914">
        <ele>57.9</ele>
        <time>2019-01-27T14:44:31Z</time>
      </trkpt>
      <trkpt lat="43.52708" lon="6.57903">
        <ele>53.4</ele>
        <time>2019-01-27T14:44:45Z</time>
      </trkpt>
      <trkpt lat="43.52704" lon="6.57891">
        <ele>51.5</ele>
        <time>2019-01-27T14:45:05Z</time>
      </trkpt>
      <trkpt lat="43.52697" lon="6.57881">
        <ele>49.6</ele>
        <time>2019-01-27T14:45:18Z</time>
      </trkpt>
      <trkpt lat="43.5269" lon="6.57874">
        <ele>46.4</ele>
        <time>2019-01-27T14:45:57Z</time>
      </trkpt>
      <trkpt lat="43.52681" lon="6.57871">
        <ele>48</ele>
        <time>2019-01-27T14:49:24Z</time>
      </trkpt>
      <trkpt lat="43.52672" lon="6.57868">
        <ele>47.8</ele>
        <time>2019-01-27T14:49:38Z</time>
      </trkpt>
      <trkpt lat="43.52663" lon="6.57864">
        <ele>47.2</ele>
        <time>2019-01-27T14:49:47Z</time>
      </trkpt>
      <trkpt lat="43.52657" lon="6.57855">
        <ele>45.8</ele>
        <time>2019-01-27T14:50:00Z</time>
      </trkpt>
      <trkpt lat="43.52653" lon="6.57843">
        <ele>46</ele>
        <time>2019-01-27T14:50:13Z</time>
      </trkpt>
      <trkpt lat="43.52646" lon="6.57833">
        <ele>46</ele>
        <time>2019-01-27T14:50:22Z</time>
      </trkpt>
      <trkpt lat="43.52638" lon="6.57826">
        <ele>45.5</ele>
        <time>2019-01-27T14:50:29Z</time>
      </trkpt>
      <trkpt lat="43.5263" lon="6.57818">
        <ele>44.9</ele>
        <time>2019-01-27T14:50:39Z</time>
      </trkpt>
      <trkpt lat="43.52621" lon="6.5781">
        <ele>44.9</ele>
        <time>2019-01-27T14:50:47Z</time>
      </trkpt>
      <trkpt lat="43.52615" lon="6.57801">
        <ele>45.8</ele>
        <time>2019-01-27T14:50:55Z</time>
      </trkpt>
      <trkpt lat="43.52607" lon="6.57793">
        <ele>46.2</ele>
        <time>2019-01-27T14:51:03Z</time>
      </trkpt>
      <trkpt lat="43.526" lon="6.57784">
        <ele>45.9</ele>
        <time>2019-01-27T14:51:11Z</time>
      </trkpt>
      <trkpt lat="43.52592" lon="6.57776">
        <ele>45.6</ele>
        <time>2019-01-27T14:51:19Z</time>
      </trkpt>
      <trkpt lat="43.52583" lon="6.57771">
        <ele>44.9</ele>
        <time>2019-01-27T14:51:27Z</time>
      </trkpt>
      <trkpt lat="43.52574" lon="6.57766">
        <ele>44.5</ele>
        <time>2019-01-27T14:51:39Z</time>
      </trkpt>
      <trkpt lat="43.52565" lon="6.57766">
        <ele>44.6</ele>
        <time>2019-01-27T14:51:47Z</time>
      </trkpt>
      <trkpt lat="43.52557" lon="6.57757">
        <ele>45.3</ele>
        <time>2019-01-27T14:51:56Z</time>
      </trkpt>
      <trkpt lat="43.52549" lon="6.57753">
        <ele>45</ele>
        <time>2019-01-27T14:52:05Z</time>
      </trkpt>
      <trkpt lat="43.5254" lon="6.57749">
        <ele>45.5</ele>
        <time>2019-01-27T14:52:13Z</time>
      </trkpt>
      <trkpt lat="43.52532" lon="6.57742">
        <ele>45.4</ele>
        <time>2019-01-27T14:52:22Z</time>
      </trkpt>
      <trkpt lat="43.52523" lon="6.57739">
        <ele>45.6</ele>
        <time>2019-01-27T14:52:29Z</time>
      </trkpt>
      <trkpt lat="43.52515" lon="6.57734">
        <ele>44.8</ele>
        <time>2019-01-27T14:52:36Z</time>
      </trkpt>
      <trkpt lat="43.52506" lon="6.57732">
        <ele>43.7</ele>
        <time>2019-01-27T14:52:44Z</time>
      </trkpt>
      <trkpt lat="43.52497" lon="6.57728">
        <ele>44</ele>
        <time>2019-01-27T14:52:53Z</time>
      </trkpt>
      <trkpt lat="43.52487" lon="6.57727">
        <ele>45</ele>
        <time>2019-01-27T14:53:01Z</time>
      </trkpt>
      <trkpt lat="43.52478" lon="6.57725">
        <ele>45</ele>
        <time>2019-01-27T14:53:07Z</time>
      </trkpt>
      <trkpt lat="43.5247" lon="6.57722">
        <ele>45</ele>
        <time>2019-01-27T14:53:14Z</time>
      </trkpt>
      <trkpt lat="43.5246" lon="6.5772">
        <ele>44.6</ele>
        <time>2019-01-27T14:53:26Z</time>
      </trkpt>
      <trkpt lat="43.52451" lon="6.57715">
        <ele>44.4</ele>
        <time>2019-01-27T14:53:33Z</time>
      </trkpt>
      <trkpt lat="43.52441" lon="6.57714">
        <ele>44.6</ele>
        <time>2019-01-27T14:53:40Z</time>
      </trkpt>
      <trkpt lat="43.52431" lon="6.57709">
        <ele>44.7</ele>
        <time>2019-01-27T14:53:47Z</time>
      </trkpt>
      <trkpt lat="43.52422" lon="6.57706">
        <ele>45.2</ele>
        <time>2019-01-27T14:53:52Z</time>
      </trkpt>
      <trkpt lat="43.52413" lon="6.57707">
        <ele>45.3</ele>
        <time>2019-01-27T14:53:57Z</time>
      </trkpt>
      <trkpt lat="43.52404" lon="6.57708">
        <ele>45.2</ele>
        <time>2019-01-27T14:54:03Z</time>
      </trkpt>
      <trkpt lat="43.52394" lon="6.5771">
        <ele>44.9</ele>
        <time>2019-01-27T14:54:10Z</time>
      </trkpt>
      <trkpt lat="43.52384" lon="6.57712">
        <ele>44.9</ele>
        <time>2019-01-27T14:54:15Z</time>
      </trkpt>
      <trkpt lat="43.52374" lon="6.57714">
        <ele>43.9</ele>
        <time>2019-01-27T14:54:22Z</time>
      </trkpt>
      <trkpt lat="43.52365" lon="6.57716">
        <ele>43.4</ele>
        <time>2019-01-27T14:54:29Z</time>
      </trkpt>
      <trkpt lat="43.52355" lon="6.57718">
        <ele>43.8</ele>
        <time>2019-01-27T14:54:36Z</time>
      </trkpt>
      <trkpt lat="43.52343" lon="6.57721">
        <ele>44.3</ele>
        <time>2019-01-27T14:54:43Z</time>
      </trkpt>
      <trkpt lat="43.52333" lon="6.57723">
        <ele>44.4</ele>
        <time>2019-01-27T14:54:51Z</time>
      </trkpt>
      <trkpt lat="43.52323" lon="6.57722">
        <ele>43.7</ele>
        <time>2019-01-27T14:54:58Z</time>
      </trkpt>
      <trkpt lat="43.52314" lon="6.57724">
        <ele>43.6</ele>
        <time>2019-01-27T14:55:05Z</time>
      </trkpt>
      <trkpt lat="43.52305" lon="6.57731">
        <ele>43.6</ele>
        <time>2019-01-27T14:55:11Z</time>
      </trkpt>
      <trkpt lat="43.52296" lon="6.57738">
        <ele>43.7</ele>
        <time>2019-01-27T14:55:19Z</time>
      </trkpt>
      <trkpt lat="43.52288" lon="6.57743">
        <ele>44.5</ele>
        <time>2019-01-27T14:55:27Z</time>
      </trkpt>
      <trkpt lat="43.5228" lon="6.5775">
        <ele>45.5</ele>
        <time>2019-01-27T14:55:34Z</time>
      </trkpt>
      <trkpt lat="43.52272" lon="6.57756">
        <ele>45.8</ele>
        <time>2019-01-27T14:55:41Z</time>
      </trkpt>
      <trkpt lat="43.52263" lon="6.57763">
        <ele>45.8</ele>
        <time>2019-01-27T14:55:49Z</time>
      </trkpt>
      <trkpt lat="43.52256" lon="6.57771">
        <ele>45.9</ele>
        <time>2019-01-27T14:55:57Z</time>
      </trkpt>
      <trkpt lat="43.52247" lon="6.57776">
        <ele>45.9</ele>
        <time>2019-01-27T14:56:08Z</time>
      </trkpt>
      <trkpt lat="43.52238" lon="6.57779">
        <ele>45.8</ele>
        <time>2019-01-27T14:56:16Z</time>
      </trkpt>
      <trkpt lat="43.52227" lon="6.57779">
        <ele>45.8</ele>
        <time>2019-01-27T14:56:25Z</time>
      </trkpt>
      <trkpt lat="43.52218" lon="6.57784">
        <ele>45.6</ele>
        <time>2019-01-27T14:56:30Z</time>
      </trkpt>
      <trkpt lat="43.52207" lon="6.57787">
        <ele>46</ele>
        <time>2019-01-27T14:56:36Z</time>
      </trkpt>
      <trkpt lat="43.52198" lon="6.5779">
        <ele>46.2</ele>
        <time>2019-01-27T14:56:43Z</time>
      </trkpt>
      <trkpt lat="43.52189" lon="6.57792">
        <ele>46.2</ele>
        <time>2019-01-27T14:56:53Z</time>
      </trkpt>
      <trkpt lat="43.52179" lon="6.57797">
        <ele>45.8</ele>
        <time>2019-01-27T14:57:02Z</time>
      </trkpt>
      <trkpt lat="43.5217" lon="6.57801">
        <ele>45.8</ele>
        <time>2019-01-27T14:57:06Z</time>
      </trkpt>
      <trkpt lat="43.52163" lon="6.5781">
        <ele>45.8</ele>
        <time>2019-01-27T14:57:12Z</time>
      </trkpt>
      <trkpt lat="43.52155" lon="6.57818">
        <ele>46.1</ele>
        <time>2019-01-27T14:57:21Z</time>
      </trkpt>
      <trkpt lat="43.52146" lon="6.57826">
        <ele>45.6</ele>
        <time>2019-01-27T14:57:28Z</time>
      </trkpt>
      <trkpt lat="43.52138" lon="6.57833">
        <ele>46</ele>
        <time>2019-01-27T14:57:35Z</time>
      </trkpt>
      <trkpt lat="43.52133" lon="6.57844">
        <ele>45.7</ele>
        <time>2019-01-27T14:57:42Z</time>
      </trkpt>
      <trkpt lat="43.52129" lon="6.57855">
        <ele>45.3</ele>
        <time>2019-01-27T14:57:50Z</time>
      </trkpt>
      <trkpt lat="43.52123" lon="6.57865">
        <ele>45.4</ele>
        <time>2019-01-27T14:57:57Z</time>
      </trkpt>
      <trkpt lat="43.52116" lon="6.57876">
        <ele>45.1</ele>
        <time>2019-01-27T14:58:05Z</time>
      </trkpt>
      <trkpt lat="43.52108" lon="6.57883">
        <ele>44.9</ele>
        <time>2019-01-27T14:58:12Z</time>
      </trkpt>
      <trkpt lat="43.52101" lon="6.57892">
        <ele>44.7</ele>
        <time>2019-01-27T14:58:19Z</time>
      </trkpt>
      <trkpt lat="43.52094" lon="6.579">
        <ele>44.1</ele>
        <time>2019-01-27T14:58:25Z</time>
      </trkpt>
      <trkpt lat="43.52087" lon="6.57909">
        <ele>43.6</ele>
        <time>2019-01-27T14:58:33Z</time>
      </trkpt>
      <trkpt lat="43.5208" lon="6.57916">
        <ele>43.1</ele>
        <time>2019-01-27T14:58:43Z</time>
      </trkpt>
      <trkpt lat="43.52073" lon="6.57924">
        <ele>43.2</ele>
        <time>2019-01-27T14:58:50Z</time>
      </trkpt>
      <trkpt lat="43.52064" lon="6.57931">
        <ele>43.3</ele>
        <time>2019-01-27T14:59:00Z</time>
      </trkpt>
      <trkpt lat="43.52054" lon="6.57944">
        <ele>43.3</ele>
        <time>2019-01-27T14:59:08Z</time>
      </trkpt>
      <trkpt lat="43.52048" lon="6.57953">
        <ele>43.3</ele>
        <time>2019-01-27T14:59:17Z</time>
      </trkpt>
      <trkpt lat="43.5204" lon="6.57958">
        <ele>43.1</ele>
        <time>2019-01-27T14:59:25Z</time>
      </trkpt>
      <trkpt lat="43.52035" lon="6.57969">
        <ele>42.8</ele>
        <time>2019-01-27T14:59:33Z</time>
      </trkpt>
      <trkpt lat="43.52029" lon="6.57978">
        <ele>42.7</ele>
        <time>2019-01-27T14:59:39Z</time>
      </trkpt>
      <trkpt lat="43.52021" lon="6.57988">
        <ele>42.9</ele>
        <time>2019-01-27T14:59:44Z</time>
      </trkpt>
      <trkpt lat="43.52015" lon="6.57999">
        <ele>42.9</ele>
        <time>2019-01-27T14:59:49Z</time>
      </trkpt>
      <trkpt lat="43.52008" lon="6.5801">
        <ele>42.6</ele>
        <time>2019-01-27T14:59:57Z</time>
      </trkpt>
      <trkpt lat="43.52003" lon="6.58021">
        <ele>42.6</ele>
        <time>2019-01-27T15:00:06Z</time>
      </trkpt>
      <trkpt lat="43.51999" lon="6.58033">
        <ele>42.3</ele>
        <time>2019-01-27T15:00:13Z</time>
      </trkpt>
      <trkpt lat="43.51993" lon="6.58043">
        <ele>42</ele>
        <time>2019-01-27T15:00:21Z</time>
      </trkpt>
      <trkpt lat="43.51988" lon="6.58054">
        <ele>42.1</ele>
        <time>2019-01-27T15:00:34Z</time>
      </trkpt>
      <trkpt lat="43.51983" lon="6.58066">
        <ele>42.2</ele>
        <time>2019-01-27T15:00:50Z</time>
      </trkpt>
      <trkpt lat="43.51979" lon="6.58079">
        <ele>42</ele>
        <time>2019-01-27T15:00:57Z</time>
      </trkpt>
      <trkpt lat="43.5197" lon="6.58085">
        <ele>41.8</ele>
        <time>2019-01-27T15:01:06Z</time>
      </trkpt>
      <trkpt lat="43.51963" lon="6.58094">
        <ele>41.7</ele>
        <time>2019-01-27T15:01:15Z</time>
      </trkpt>
      <trkpt lat="43.51957" lon="6.58105">
        <ele>42.1</ele>
        <time>2019-01-27T15:01:24Z</time>
      </trkpt>
      <trkpt lat="43.51953" lon="6.58116">
        <ele>42.3</ele>
        <time>2019-01-27T15:01:39Z</time>
      </trkpt>
      <trkpt lat="43.51946" lon="6.58127">
        <ele>42.1</ele>
        <time>2019-01-27T15:01:50Z</time>
      </trkpt>
      <trkpt lat="43.51942" lon="6.58139">
        <ele>42.2</ele>
        <time>2019-01-27T15:01:58Z</time>
      </trkpt>
      <trkpt lat="43.51939" lon="6.58152">
        <ele>42</ele>
        <time>2019-01-27T15:02:06Z</time>
      </trkpt>
      <trkpt lat="43.51937" lon="6.58165">
        <ele>42</ele>
        <time>2019-01-27T15:02:14Z</time>
      </trkpt>
      <trkpt lat="43.51934" lon="6.58178">
        <ele>41.8</ele>
        <time>2019-01-27T15:02:21Z</time>
      </trkpt>
      <trkpt lat="43.51926" lon="6.58187">
        <ele>41.9</ele>
        <time>2019-01-27T15:02:29Z</time>
      </trkpt>
      <trkpt lat="43.51922" lon="6.58198">
        <ele>41.7</ele>
        <time>2019-01-27T15:02:36Z</time>
      </trkpt>
      <trkpt lat="43.51917" lon="6.58209">
        <ele>42</ele>
        <time>2019-01-27T15:02:47Z</time>
      </trkpt>
      <trkpt lat="43.51915" lon="6.58221">
        <ele>42.3</ele>
        <time>2019-01-27T15:02:57Z</time>
      </trkpt>
      <trkpt lat="43.51913" lon="6.58233">
        <ele>42</ele>
        <time>2019-01-27T15:03:05Z</time>
      </trkpt>
      <trkpt lat="43.51916" lon="6.58246">
        <ele>42.2</ele>
        <time>2019-01-27T15:03:11Z</time>
      </trkpt>
      <trkpt lat="43.51915" lon="6.58259">
        <ele>41.8</ele>
        <time>2019-01-27T15:03:30Z</time>
      </trkpt>
      <trkpt lat="43.5192" lon="6.5827">
        <ele>41.6</ele>
        <time>2019-01-27T15:05:24Z</time>
      </trkpt>
      <trkpt lat="43.51926" lon="6.58279">
        <ele>41.9</ele>
        <time>2019-01-27T15:05:34Z</time>
      </trkpt>
      <trkpt lat="43.51928" lon="6.58292">
        <ele>40.8</ele>
        <time>2019-01-27T15:05:45Z</time>
      </trkpt>
      <trkpt lat="43.51935" lon="6.58299">
        <ele>41.2</ele>
        <time>2019-01-27T15:05:53Z</time>
      </trkpt>
      <trkpt lat="43.51937" lon="6.58311">
        <ele>41.7</ele>
        <time>2019-01-27T15:06:02Z</time>
      </trkpt>
      <trkpt lat="43.51937" lon="6.58325">
        <ele>41.8</ele>
        <time>2019-01-27T15:06:10Z</time>
      </trkpt>
      <trkpt lat="43.51935" lon="6.58338">
        <ele>41.7</ele>
        <time>2019-01-27T15:06:20Z</time>
      </trkpt>
      <trkpt lat="43.51935" lon="6.58351">
        <ele>41.7</ele>
        <time>2019-01-27T15:06:27Z</time>
      </trkpt>
      <trkpt lat="43.51933" lon="6.58364">
        <ele>43.7</ele>
        <time>2019-01-27T15:06:36Z</time>
      </trkpt>
      <trkpt lat="43.5193" lon="6.58376">
        <ele>43</ele>
        <time>2019-01-27T15:06:43Z</time>
      </trkpt>
      <trkpt lat="43.5193" lon="6.58389">
        <ele>42.9</ele>
        <time>2019-01-27T15:06:50Z</time>
      </trkpt>
      <trkpt lat="43.5193" lon="6.58402">
        <ele>44.9</ele>
        <time>2019-01-27T15:06:56Z</time>
      </trkpt>
      <trkpt lat="43.51931" lon="6.58415">
        <ele>45.2</ele>
        <time>2019-01-27T15:07:02Z</time>
      </trkpt>
      <trkpt lat="43.51929" lon="6.58427">
        <ele>45.1</ele>
        <time>2019-01-27T15:07:08Z</time>
      </trkpt>
      <trkpt lat="43.51926" lon="6.5844">
        <ele>45.7</ele>
        <time>2019-01-27T15:07:16Z</time>
      </trkpt>
      <trkpt lat="43.51919" lon="6.58448">
        <ele>46.1</ele>
        <time>2019-01-27T15:07:26Z</time>
      </trkpt>
      <trkpt lat="43.5191" lon="6.58454">
        <ele>46</ele>
        <time>2019-01-27T15:07:34Z</time>
      </trkpt>
      <trkpt lat="43.51903" lon="6.58462">
        <ele>46.7</ele>
        <time>2019-01-27T15:07:42Z</time>
      </trkpt>
      <trkpt lat="43.51894" lon="6.58466">
        <ele>47</ele>
        <time>2019-01-27T15:07:49Z</time>
      </trkpt>
      <trkpt lat="43.51885" lon="6.58469">
        <ele>47.7</ele>
        <time>2019-01-27T15:07:55Z</time>
      </trkpt>
      <trkpt lat="43.51878" lon="6.58478">
        <ele>48.8</ele>
        <time>2019-01-27T15:08:04Z</time>
      </trkpt>
      <trkpt lat="43.5187" lon="6.58485">
        <ele>49.6</ele>
        <time>2019-01-27T15:08:12Z</time>
      </trkpt>
      <trkpt lat="43.51862" lon="6.58493">
        <ele>50.3</ele>
        <time>2019-01-27T15:08:20Z</time>
      </trkpt>
      <trkpt lat="43.51855" lon="6.58504">
        <ele>50.7</ele>
        <time>2019-01-27T15:08:28Z</time>
      </trkpt>
      <trkpt lat="43.51848" lon="6.58512">
        <ele>51</ele>
        <time>2019-01-27T15:08:35Z</time>
      </trkpt>
      <trkpt lat="43.51841" lon="6.58522">
        <ele>52.3</ele>
        <time>2019-01-27T15:08:43Z</time>
      </trkpt>
      <trkpt lat="43.51834" lon="6.58529">
        <ele>52.7</ele>
        <time>2019-01-27T15:08:50Z</time>
      </trkpt>
      <trkpt lat="43.51826" lon="6.58537">
        <ele>54.3</ele>
        <time>2019-01-27T15:08:57Z</time>
      </trkpt>
      <trkpt lat="43.51819" lon="6.58547">
        <ele>55.4</ele>
        <time>2019-01-27T15:09:05Z</time>
      </trkpt>
      <trkpt lat="43.51809" lon="6.58552">
        <ele>55.4</ele>
        <time>2019-01-27T15:09:12Z</time>
      </trkpt>
      <trkpt lat="43.51801" lon="6.58561">
        <ele>56.3</ele>
        <time>2019-01-27T15:09:20Z</time>
      </trkpt>
      <trkpt lat="43.51792" lon="6.58568">
        <ele>56.3</ele>
        <time>2019-01-27T15:09:27Z</time>
      </trkpt>
      <trkpt lat="43.51784" lon="6.58571">
        <ele>58</ele>
        <time>2019-01-27T15:09:36Z</time>
      </trkpt>
      <trkpt lat="43.51775" lon="6.5857">
        <ele>56.1</ele>
        <time>2019-01-27T15:09:43Z</time>
      </trkpt>
      <trkpt lat="43.51765" lon="6.58571">
        <ele>54.7</ele>
        <time>2019-01-27T15:09:50Z</time>
      </trkpt>
      <trkpt lat="43.51756" lon="6.58573">
        <ele>54.9</ele>
        <time>2019-01-27T15:09:58Z</time>
      </trkpt>
      <trkpt lat="43.51747" lon="6.58575">
        <ele>53.7</ele>
        <time>2019-01-27T15:10:05Z</time>
      </trkpt>
      <trkpt lat="43.51737" lon="6.58576">
        <ele>54.1</ele>
        <time>2019-01-27T15:10:13Z</time>
      </trkpt>
      <trkpt lat="43.51727" lon="6.58577">
        <ele>54.6</ele>
        <time>2019-01-27T15:10:29Z</time>
      </trkpt>
      <trkpt lat="43.51726" lon="6.58564">
        <ele>48.6</ele>
        <time>2019-01-27T15:11:50Z</time>
      </trkpt>
      <trkpt lat="43.51718" lon="6.5856">
        <ele>48.1</ele>
        <time>2019-01-27T15:12:02Z</time>
      </trkpt>
      <trkpt lat="43.51708" lon="6.5856">
        <ele>48.4</ele>
        <time>2019-01-27T15:12:15Z</time>
      </trkpt>
      <trkpt lat="43.51699" lon="6.58558">
        <ele>45.6</ele>
        <time>2019-01-27T15:12:32Z</time>
      </trkpt>
      <trkpt lat="43.5169" lon="6.58554">
        <ele>44.1</ele>
        <time>2019-01-27T15:12:42Z</time>
      </trkpt>
      <trkpt lat="43.5168" lon="6.58549">
        <ele>43.7</ele>
        <time>2019-01-27T15:12:56Z</time>
      </trkpt>
      <trkpt lat="43.51671" lon="6.58544">
        <ele>43.6</ele>
        <time>2019-01-27T15:13:05Z</time>
      </trkpt>
      <trkpt lat="43.51662" lon="6.58544">
        <ele>42.1</ele>
        <time>2019-01-27T15:13:16Z</time>
      </trkpt>
      <trkpt lat="43.51654" lon="6.58549">
        <ele>40.9</ele>
        <time>2019-01-27T15:13:40Z</time>
      </trkpt>
      <trkpt lat="43.51644" lon="6.58546">
        <ele>40</ele>
        <time>2019-01-27T15:13:50Z</time>
      </trkpt>
      <trkpt lat="43.51635" lon="6.58541">
        <ele>39.8</ele>
        <time>2019-01-27T15:14:00Z</time>
      </trkpt>
      <trkpt lat="43.51625" lon="6.5854">
        <ele>39.7</ele>
        <time>2019-01-27T15:14:10Z</time>
      </trkpt>
      <trkpt lat="43.51615" lon="6.58538">
        <ele>38.6</ele>
        <time>2019-01-27T15:14:19Z</time>
      </trkpt>
      <trkpt lat="43.51607" lon="6.58542">
        <ele>38.2</ele>
        <time>2019-01-27T15:14:24Z</time>
      </trkpt>
      <trkpt lat="43.51598" lon="6.58545">
        <ele>38</ele>
        <time>2019-01-27T15:14:31Z</time>
      </trkpt>
      <trkpt lat="43.51588" lon="6.5855">
        <ele>38.5</ele>
        <time>2019-01-27T15:14:38Z</time>
      </trkpt>
      <trkpt lat="43.5158" lon="6.58556">
        <ele>38.7</ele>
        <time>2019-01-27T15:14:46Z</time>
      </trkpt>
      <trkpt lat="43.51571" lon="6.58559">
        <ele>38.6</ele>
        <time>2019-01-27T15:14:57Z</time>
      </trkpt>
      <trkpt lat="43.51562" lon="6.58556">
        <ele>38.3</ele>
        <time>2019-01-27T15:15:06Z</time>
      </trkpt>
      <trkpt lat="43.51552" lon="6.58556">
        <ele>38</ele>
        <time>2019-01-27T15:15:14Z</time>
      </trkpt>
      <trkpt lat="43.51543" lon="6.58553">
        <ele>37.8</ele>
        <time>2019-01-27T15:15:23Z</time>
      </trkpt>
      <trkpt lat="43.51534" lon="6.58552">
        <ele>37.4</ele>
        <time>2019-01-27T15:15:32Z</time>
      </trkpt>
      <trkpt lat="43.51524" lon="6.5855">
        <ele>37.4</ele>
        <time>2019-01-27T15:15:37Z</time>
      </trkpt>
      <trkpt lat="43.51514" lon="6.58551">
        <ele>37.5</ele>
        <time>2019-01-27T15:15:44Z</time>
      </trkpt>
      <trkpt lat="43.51504" lon="6.58556">
        <ele>37.5</ele>
        <time>2019-01-27T15:15:52Z</time>
      </trkpt>
      <trkpt lat="43.51495" lon="6.58559">
        <ele>37.5</ele>
        <time>2019-01-27T15:15:59Z</time>
      </trkpt>
      <trkpt lat="43.51486" lon="6.58563">
        <ele>37</ele>
        <time>2019-01-27T15:16:07Z</time>
      </trkpt>
      <trkpt lat="43.51478" lon="6.58567">
        <ele>37</ele>
        <time>2019-01-27T15:16:15Z</time>
      </trkpt>
      <trkpt lat="43.51469" lon="6.58574">
        <ele>36.6</ele>
        <time>2019-01-27T15:16:26Z</time>
      </trkpt>
      <trkpt lat="43.51461" lon="6.58579">
        <ele>36.4</ele>
        <time>2019-01-27T15:16:32Z</time>
      </trkpt>
      <trkpt lat="43.51452" lon="6.58578">
        <ele>36.2</ele>
        <time>2019-01-27T15:16:41Z</time>
      </trkpt>
      <trkpt lat="43.51442" lon="6.5858">
        <ele>36.7</ele>
        <time>2019-01-27T15:16:47Z</time>
      </trkpt>
      <trkpt lat="43.51432" lon="6.58586">
        <ele>36.6</ele>
        <time>2019-01-27T15:16:54Z</time>
      </trkpt>
      <trkpt lat="43.51425" lon="6.58596">
        <ele>36.8</ele>
        <time>2019-01-27T15:17:01Z</time>
      </trkpt>
      <trkpt lat="43.51416" lon="6.58601">
        <ele>37.1</ele>
        <time>2019-01-27T15:17:06Z</time>
      </trkpt>
      <trkpt lat="43.51409" lon="6.58609">
        <ele>36.6</ele>
        <time>2019-01-27T15:17:14Z</time>
      </trkpt>
      <trkpt lat="43.51401" lon="6.58617">
        <ele>36.3</ele>
        <time>2019-01-27T15:17:23Z</time>
      </trkpt>
      <trkpt lat="43.51391" lon="6.5862">
        <ele>36.3</ele>
        <time>2019-01-27T15:17:30Z</time>
      </trkpt>
      <trkpt lat="43.51382" lon="6.58624">
        <ele>36.6</ele>
        <time>2019-01-27T15:17:37Z</time>
      </trkpt>
      <trkpt lat="43.51372" lon="6.58628">
        <ele>36.3</ele>
        <time>2019-01-27T15:17:44Z</time>
      </trkpt>
      <trkpt lat="43.51365" lon="6.58635">
        <ele>36.2</ele>
        <time>2019-01-27T15:18:01Z</time>
      </trkpt>
      <trkpt lat="43.51356" lon="6.58638">
        <ele>35.3</ele>
        <time>2019-01-27T15:18:28Z</time>
      </trkpt>
      <trkpt lat="43.51347" lon="6.58641">
        <ele>35.2</ele>
        <time>2019-01-27T15:18:40Z</time>
      </trkpt>
      <trkpt lat="43.51337" lon="6.58642">
        <ele>33.7</ele>
        <time>2019-01-27T15:19:03Z</time>
      </trkpt>
      <trkpt lat="43.51336" lon="6.58655">
        <ele>33.7</ele>
        <time>2019-01-27T15:19:14Z</time>
      </trkpt>
      <trkpt lat="43.51327" lon="6.58658">
        <ele>35.9</ele>
        <time>2019-01-27T15:19:36Z</time>
      </trkpt>
      <trkpt lat="43.51318" lon="6.58665">
        <ele>36.1</ele>
        <time>2019-01-27T15:19:45Z</time>
      </trkpt>
      <trkpt lat="43.51309" lon="6.5867">
        <ele>36</ele>
        <time>2019-01-27T15:19:52Z</time>
      </trkpt>
      <trkpt lat="43.51301" lon="6.58673">
        <ele>36.3</ele>
        <time>2019-01-27T15:20:00Z</time>
      </trkpt>
      <trkpt lat="43.51291" lon="6.58675">
        <ele>35</ele>
        <time>2019-01-27T15:20:09Z</time>
      </trkpt>
      <trkpt lat="43.51282" lon="6.58674">
        <ele>34.5</ele>
        <time>2019-01-27T15:20:17Z</time>
      </trkpt>
      <trkpt lat="43.51272" lon="6.58674">
        <ele>34.7</ele>
        <time>2019-01-27T15:20:28Z</time>
      </trkpt>
      <trkpt lat="43.51263" lon="6.58679">
        <ele>35.8</ele>
        <time>2019-01-27T15:20:37Z</time>
      </trkpt>
      <trkpt lat="43.51253" lon="6.58683">
        <ele>35.3</ele>
        <time>2019-01-27T15:20:45Z</time>
      </trkpt>
      <trkpt lat="43.51244" lon="6.58684">
        <ele>35</ele>
        <time>2019-01-27T15:20:51Z</time>
      </trkpt>
      <trkpt lat="43.51234" lon="6.58685">
        <ele>34.7</ele>
        <time>2019-01-27T15:20:57Z</time>
      </trkpt>
      <trkpt lat="43.51225" lon="6.58687">
        <ele>34.8</ele>
        <time>2019-01-27T15:21:04Z</time>
      </trkpt>
      <trkpt lat="43.51215" lon="6.5869">
        <ele>34.3</ele>
        <time>2019-01-27T15:21:11Z</time>
      </trkpt>
      <trkpt lat="43.51205" lon="6.58693">
        <ele>34.2</ele>
        <time>2019-01-27T15:21:18Z</time>
      </trkpt>
      <trkpt lat="43.51196" lon="6.58698">
        <ele>34.8</ele>
        <time>2019-01-27T15:21:25Z</time>
      </trkpt>
      <trkpt lat="43.51187" lon="6.58702">
        <ele>34</ele>
        <time>2019-01-27T15:21:33Z</time>
      </trkpt>
      <trkpt lat="43.51178" lon="6.58706">
        <ele>34</ele>
        <time>2019-01-27T15:21:42Z</time>
      </trkpt>
      <trkpt lat="43.51169" lon="6.58713">
        <ele>33.8</ele>
        <time>2019-01-27T15:21:51Z</time>
      </trkpt>
      <trkpt lat="43.51161" lon="6.58718">
        <ele>33.6</ele>
        <time>2019-01-27T15:22:05Z</time>
      </trkpt>
      <trkpt lat="43.51153" lon="6.58725">
        <ele>33.4</ele>
        <time>2019-01-27T15:22:14Z</time>
      </trkpt>
      <trkpt lat="43.51144" lon="6.5873">
        <ele>33</ele>
        <time>2019-01-27T15:22:21Z</time>
      </trkpt>
      <trkpt lat="43.51137" lon="6.58739">
        <ele>32.9</ele>
        <time>2019-01-27T15:22:28Z</time>
      </trkpt>
      <trkpt lat="43.5113" lon="6.58747">
        <ele>32.6</ele>
        <time>2019-01-27T15:22:35Z</time>
      </trkpt>
      <trkpt lat="43.51123" lon="6.58757">
        <ele>33</ele>
        <time>2019-01-27T15:22:44Z</time>
      </trkpt>
      <trkpt lat="43.51113" lon="6.58761">
        <ele>32.2</ele>
        <time>2019-01-27T15:22:53Z</time>
      </trkpt>
      <trkpt lat="43.51104" lon="6.58768">
        <ele>32</ele>
        <time>2019-01-27T15:23:01Z</time>
      </trkpt>
      <trkpt lat="43.51096" lon="6.58774">
        <ele>31.7</ele>
        <time>2019-01-27T15:23:08Z</time>
      </trkpt>
      <trkpt lat="43.5109" lon="6.58784">
        <ele>32.1</ele>
        <time>2019-01-27T15:23:17Z</time>
      </trkpt>
      <trkpt lat="43.51082" lon="6.58792">
        <ele>32.2</ele>
        <time>2019-01-27T15:23:25Z</time>
      </trkpt>
      <trkpt lat="43.51074" lon="6.58798">
        <ele>32.1</ele>
        <time>2019-01-27T15:23:32Z</time>
      </trkpt>
      <trkpt lat="43.51065" lon="6.58805">
        <ele>31.9</ele>
        <time>2019-01-27T15:23:41Z</time>
      </trkpt>
      <trkpt lat="43.51057" lon="6.5881">
        <ele>32.2</ele>
        <time>2019-01-27T15:23:49Z</time>
      </trkpt>
      <trkpt lat="43.5105" lon="6.58818">
        <ele>32.3</ele>
        <time>2019-01-27T15:23:56Z</time>
      </trkpt>
      <trkpt lat="43.51042" lon="6.58825">
        <ele>31.7</ele>
        <time>2019-01-27T15:24:03Z</time>
      </trkpt>
      <trkpt lat="43.51035" lon="6.58834">
        <ele>31.2</ele>
        <time>2019-01-27T15:24:11Z</time>
      </trkpt>
      <trkpt lat="43.51029" lon="6.58844">
        <ele>31.1</ele>
        <time>2019-01-27T15:24:17Z</time>
      </trkpt>
      <trkpt lat="43.51022" lon="6.58854">
        <ele>31.3</ele>
        <time>2019-01-27T15:24:27Z</time>
      </trkpt>
      <trkpt lat="43.51014" lon="6.58861">
        <ele>31.3</ele>
        <time>2019-01-27T15:24:35Z</time>
      </trkpt>
      <trkpt lat="43.51005" lon="6.58867">
        <ele>31.9</ele>
        <time>2019-01-27T15:24:44Z</time>
      </trkpt>
      <trkpt lat="43.50997" lon="6.58871">
        <ele>31.4</ele>
        <time>2019-01-27T15:24:52Z</time>
      </trkpt>
      <trkpt lat="43.50989" lon="6.58876">
        <ele>30.9</ele>
        <time>2019-01-27T15:25:15Z</time>
      </trkpt>
      <trkpt lat="43.5098" lon="6.5888">
        <ele>31.3</ele>
        <time>2019-01-27T15:25:24Z</time>
      </trkpt>
      <trkpt lat="43.5097" lon="6.58882">
        <ele>31.2</ele>
        <time>2019-01-27T15:25:32Z</time>
      </trkpt>
      <trkpt lat="43.50961" lon="6.58882">
        <ele>31.2</ele>
        <time>2019-01-27T15:25:40Z</time>
      </trkpt>
      <trkpt lat="43.50951" lon="6.58882">
        <ele>30.9</ele>
        <time>2019-01-27T15:25:48Z</time>
      </trkpt>
      <trkpt lat="43.50941" lon="6.58882">
        <ele>31.1</ele>
        <time>2019-01-27T15:25:56Z</time>
      </trkpt>
      <trkpt lat="43.50932" lon="6.58881">
        <ele>32.6</ele>
        <time>2019-01-27T15:26:06Z</time>
      </trkpt>
      <trkpt lat="43.50923" lon="6.58887">
        <ele>34</ele>
        <time>2019-01-27T15:26:14Z</time>
      </trkpt>
      <trkpt lat="43.50913" lon="6.58886">
        <ele>33.9</ele>
        <time>2019-01-27T15:26:24Z</time>
      </trkpt>
      <trkpt lat="43.50903" lon="6.58884">
        <ele>33.7</ele>
        <time>2019-01-27T15:26:31Z</time>
      </trkpt>
      <trkpt lat="43.50893" lon="6.58885">
        <ele>33.5</ele>
        <time>2019-01-27T15:26:40Z</time>
      </trkpt>
      <trkpt lat="43.50884" lon="6.58891">
        <ele>33.1</ele>
        <time>2019-01-27T15:26:48Z</time>
      </trkpt>
      <trkpt lat="43.50874" lon="6.58894">
        <ele>33.2</ele>
        <time>2019-01-27T15:26:55Z</time>
      </trkpt>
      <trkpt lat="43.50864" lon="6.58895">
        <ele>33.4</ele>
        <time>2019-01-27T15:27:02Z</time>
      </trkpt>
      <trkpt lat="43.50855" lon="6.58899">
        <ele>33.3</ele>
        <time>2019-01-27T15:27:09Z</time>
      </trkpt>
      <trkpt lat="43.50845" lon="6.589">
        <ele>33.1</ele>
        <time>2019-01-27T15:27:17Z</time>
      </trkpt>
      <trkpt lat="43.50835" lon="6.589">
        <ele>33.2</ele>
        <time>2019-01-27T15:27:26Z</time>
      </trkpt>
      <trkpt lat="43.50826" lon="6.58904">
        <ele>32.8</ele>
        <time>2019-01-27T15:27:34Z</time>
      </trkpt>
      <trkpt lat="43.50817" lon="6.58911">
        <ele>33.3</ele>
        <time>2019-01-27T15:27:42Z</time>
      </trkpt>
      <trkpt lat="43.50808" lon="6.58917">
        <ele>33.3</ele>
        <time>2019-01-27T15:27:50Z</time>
      </trkpt>
      <trkpt lat="43.508" lon="6.58924">
        <ele>33.4</ele>
        <time>2019-01-27T15:27:58Z</time>
      </trkpt>
      <trkpt lat="43.50791" lon="6.58929">
        <ele>31.9</ele>
        <time>2019-01-27T15:28:06Z</time>
      </trkpt>
      <trkpt lat="43.50782" lon="6.58933">
        <ele>31.6</ele>
        <time>2019-01-27T15:28:14Z</time>
      </trkpt>
      <trkpt lat="43.50773" lon="6.58939">
        <ele>31.8</ele>
        <time>2019-01-27T15:28:21Z</time>
      </trkpt>
      <trkpt lat="43.50765" lon="6.58947">
        <ele>31.9</ele>
        <time>2019-01-27T15:28:31Z</time>
      </trkpt>
      <trkpt lat="43.50757" lon="6.58956">
        <ele>31.6</ele>
        <time>2019-01-27T15:28:40Z</time>
      </trkpt>
      <trkpt lat="43.5075" lon="6.58962">
        <ele>31</ele>
        <time>2019-01-27T15:28:49Z</time>
      </trkpt>
      <trkpt lat="43.5074" lon="6.58965">
        <ele>31.5</ele>
        <time>2019-01-27T15:28:57Z</time>
      </trkpt>
      <trkpt lat="43.50731" lon="6.58971">
        <ele>31.1</ele>
        <time>2019-01-27T15:29:04Z</time>
      </trkpt>
      <trkpt lat="43.50724" lon="6.58978">
        <ele>29.9</ele>
        <time>2019-01-27T15:29:13Z</time>
      </trkpt>
      <trkpt lat="43.50714" lon="6.58981">
        <ele>29.5</ele>
        <time>2019-01-27T15:29:20Z</time>
      </trkpt>
      <trkpt lat="43.50706" lon="6.58988">
        <ele>29.2</ele>
        <time>2019-01-27T15:29:29Z</time>
      </trkpt>
      <trkpt lat="43.50696" lon="6.58991">
        <ele>29.9</ele>
        <time>2019-01-27T15:29:37Z</time>
      </trkpt>
      <trkpt lat="43.50686" lon="6.58994">
        <ele>30.5</ele>
        <time>2019-01-27T15:29:46Z</time>
      </trkpt>
      <trkpt lat="43.50676" lon="6.58996">
        <ele>31.4</ele>
        <time>2019-01-27T15:29:55Z</time>
      </trkpt>
      <trkpt lat="43.50667" lon="6.58999">
        <ele>31.3</ele>
        <time>2019-01-27T15:30:03Z</time>
      </trkpt>
      <trkpt lat="43.50657" lon="6.59001">
        <ele>31.6</ele>
        <time>2019-01-27T15:30:12Z</time>
      </trkpt>
      <trkpt lat="43.50647" lon="6.59002">
        <ele>31.1</ele>
        <time>2019-01-27T15:30:20Z</time>
      </trkpt>
      <trkpt lat="43.50638" lon="6.59003">
        <ele>31</ele>
        <time>2019-01-27T15:30:28Z</time>
      </trkpt>
      <trkpt lat="43.50629" lon="6.59008">
        <ele>31.2</ele>
        <time>2019-01-27T15:30:36Z</time>
      </trkpt>
      <trkpt lat="43.50619" lon="6.5901">
        <ele>32.1</ele>
        <time>2019-01-27T15:30:44Z</time>
      </trkpt>
      <trkpt lat="43.50609" lon="6.59012">
        <ele>32.9</ele>
        <time>2019-01-27T15:30:53Z</time>
      </trkpt>
      <trkpt lat="43.50599" lon="6.59013">
        <ele>32.8</ele>
        <time>2019-01-27T15:31:00Z</time>
      </trkpt>
      <trkpt lat="43.5059" lon="6.59018">
        <ele>32.5</ele>
        <time>2019-01-27T15:31:08Z</time>
      </trkpt>
      <trkpt lat="43.5058" lon="6.5902">
        <ele>32.4</ele>
        <time>2019-01-27T15:31:16Z</time>
      </trkpt>
      <trkpt lat="43.5057" lon="6.59021">
        <ele>32.3</ele>
        <time>2019-01-27T15:31:24Z</time>
      </trkpt>
      <trkpt lat="43.50561" lon="6.59022">
        <ele>32.1</ele>
        <time>2019-01-27T15:31:32Z</time>
      </trkpt>
      <trkpt lat="43.50552" lon="6.59021">
        <ele>32.3</ele>
        <time>2019-01-27T15:31:40Z</time>
      </trkpt>
      <trkpt lat="43.50542" lon="6.59022">
        <ele>32.4</ele>
        <time>2019-01-27T15:31:48Z</time>
      </trkpt>
      <trkpt lat="43.50533" lon="6.59024">
        <ele>32.3</ele>
        <time>2019-01-27T15:31:56Z</time>
      </trkpt>
      <trkpt lat="43.50524" lon="6.59025">
        <ele>32.1</ele>
        <time>2019-01-27T15:32:05Z</time>
      </trkpt>
      <trkpt lat="43.50514" lon="6.59027">
        <ele>32</ele>
        <time>2019-01-27T15:32:24Z</time>
      </trkpt>
      <trkpt lat="43.50505" lon="6.5903">
        <ele>31.6</ele>
        <time>2019-01-27T15:32:32Z</time>
      </trkpt>
      <trkpt lat="43.50495" lon="6.59031">
        <ele>31.6</ele>
        <time>2019-01-27T15:32:40Z</time>
      </trkpt>
      <trkpt lat="43.50485" lon="6.59031">
        <ele>31.1</ele>
        <time>2019-01-27T15:32:48Z</time>
      </trkpt>
      <trkpt lat="43.50476" lon="6.59033">
        <ele>31.2</ele>
        <time>2019-01-27T15:32:57Z</time>
      </trkpt>
      <trkpt lat="43.50467" lon="6.59036">
        <ele>31.3</ele>
        <time>2019-01-27T15:33:04Z</time>
      </trkpt>
    </trkseg>
  </trk>
</gpx>